<?xml version="1.0" encoding="UTF-8" standalone="no" ?>
<gpx xmlns="http://www.topografix.com/GPX/1/1" xmlns:xsi="http://www.w3.org/2001/XMLSchema-instance" xsi:schemaLocation="http://www.topografix.com/GPX/1/1 http://www.topografix.com/GPX/1/1/gpx.xsd" version="1.1" creator="VisuGPX - https://www.visugpx.com">
  <metadata>
    <name>Essai pour IPB Index 978</name>
  </metadata>
  <trk>
    <name><![CDATA[30-AVR-19 15:43:44]]></name>
    <trkseg>
      <trkpt lat="45.57691" lon="5.97458">
        <ele>282.77</ele>
        <time>2019-04-30T07:10:23Z</time>
      </trkpt>
      <trkpt lat="45.57692" lon="5.97457">
        <ele>287.57</ele>
        <time>2019-04-30T07:10:25Z</time>
      </trkpt>
      <trkpt lat="45.57692" lon="5.97457">
        <ele>292.38</ele>
        <time>2019-04-30T07:10:28Z</time>
      </trkpt>
      <trkpt lat="45.57692" lon="5.97455">
        <ele>295.26</ele>
        <time>2019-04-30T07:10:30Z</time>
      </trkpt>
      <trkpt lat="45.57692" lon="5.9745">
        <ele>296.7</ele>
        <time>2019-04-30T07:10:31Z</time>
      </trkpt>
      <trkpt lat="45.57693" lon="5.97442">
        <ele>300.07</ele>
        <time>2019-04-30T07:10:33Z</time>
      </trkpt>
      <trkpt lat="45.57693" lon="5.9744">
        <ele>300.07</ele>
        <time>2019-04-30T07:10:34Z</time>
      </trkpt>
      <trkpt lat="45.57694" lon="5.97437">
        <ele>303.43</ele>
        <time>2019-04-30T07:10:36Z</time>
      </trkpt>
      <trkpt lat="45.57695" lon="5.97434">
        <ele>306.8</ele>
        <time>2019-04-30T07:10:41Z</time>
      </trkpt>
      <trkpt lat="45.57696" lon="5.97433">
        <ele>308.72</ele>
        <time>2019-04-30T07:10:45Z</time>
      </trkpt>
      <trkpt lat="45.57697" lon="5.97434">
        <ele>310.16</ele>
        <time>2019-04-30T07:10:48Z</time>
      </trkpt>
      <trkpt lat="45.57696" lon="5.97431">
        <ele>313.53</ele>
        <time>2019-04-30T07:10:58Z</time>
      </trkpt>
      <trkpt lat="45.57696" lon="5.97431">
        <ele>316.41</ele>
        <time>2019-04-30T07:11:12Z</time>
      </trkpt>
      <trkpt lat="45.57695" lon="5.97428">
        <ele>319.3</ele>
        <time>2019-04-30T07:11:30Z</time>
      </trkpt>
      <trkpt lat="45.57696" lon="5.97429">
        <ele>320.74</ele>
        <time>2019-04-30T07:11:46Z</time>
      </trkpt>
      <trkpt lat="45.577" lon="5.97425">
        <ele>320.74</ele>
        <time>2019-04-30T07:11:56Z</time>
      </trkpt>
      <trkpt lat="45.57701" lon="5.97423">
        <ele>320.74</ele>
        <time>2019-04-30T07:12:07Z</time>
      </trkpt>
      <trkpt lat="45.57701" lon="5.97421">
        <ele>320.74</ele>
        <time>2019-04-30T07:12:25Z</time>
      </trkpt>
      <trkpt lat="45.57702" lon="5.97419">
        <ele>320.26</ele>
        <time>2019-04-30T07:12:43Z</time>
      </trkpt>
      <trkpt lat="45.57703" lon="5.97417">
        <ele>320.74</ele>
        <time>2019-04-30T07:13:00Z</time>
      </trkpt>
      <trkpt lat="45.57703" lon="5.97417">
        <ele>320.74</ele>
        <time>2019-04-30T07:13:18Z</time>
      </trkpt>
      <trkpt lat="45.57703" lon="5.97416">
        <ele>320.74</ele>
        <time>2019-04-30T07:13:46Z</time>
      </trkpt>
      <trkpt lat="45.57702" lon="5.97415">
        <ele>320.74</ele>
        <time>2019-04-30T07:14:06Z</time>
      </trkpt>
      <trkpt lat="45.57703" lon="5.97415">
        <ele>320.74</ele>
        <time>2019-04-30T07:14:32Z</time>
      </trkpt>
      <trkpt lat="45.57703" lon="5.97415">
        <ele>320.74</ele>
        <time>2019-04-30T07:14:58Z</time>
      </trkpt>
      <trkpt lat="45.57704" lon="5.97415">
        <ele>320.74</ele>
        <time>2019-04-30T07:15:18Z</time>
      </trkpt>
      <trkpt lat="45.57706" lon="5.9741">
        <ele>320.74</ele>
        <time>2019-04-30T07:15:47Z</time>
      </trkpt>
      <trkpt lat="45.57714" lon="5.97405">
        <ele>320.74</ele>
        <time>2019-04-30T07:16:00Z</time>
      </trkpt>
      <trkpt lat="45.57723" lon="5.97401">
        <ele>321.22</ele>
        <time>2019-04-30T07:16:15Z</time>
      </trkpt>
      <trkpt lat="45.57728" lon="5.97402">
        <ele>320.74</ele>
        <time>2019-04-30T07:16:23Z</time>
      </trkpt>
      <trkpt lat="45.57739" lon="5.97403">
        <ele>321.7</ele>
        <time>2019-04-30T07:16:35Z</time>
      </trkpt>
      <trkpt lat="45.57741" lon="5.97402">
        <ele>321.7</ele>
        <time>2019-04-30T07:16:36Z</time>
      </trkpt>
      <trkpt lat="45.57745" lon="5.974">
        <ele>321.7</ele>
        <time>2019-04-30T07:16:38Z</time>
      </trkpt>
      <trkpt lat="45.57748" lon="5.97395">
        <ele>321.22</ele>
        <time>2019-04-30T07:16:42Z</time>
      </trkpt>
      <trkpt lat="45.57754" lon="5.97392">
        <ele>321.22</ele>
        <time>2019-04-30T07:16:48Z</time>
      </trkpt>
      <trkpt lat="45.57768" lon="5.97399">
        <ele>320.74</ele>
        <time>2019-04-30T07:16:59Z</time>
      </trkpt>
      <trkpt lat="45.57774" lon="5.97401">
        <ele>320.74</ele>
        <time>2019-04-30T07:17:02Z</time>
      </trkpt>
      <trkpt lat="45.57794" lon="5.97417">
        <ele>321.22</ele>
        <time>2019-04-30T07:17:16Z</time>
      </trkpt>
      <trkpt lat="45.578" lon="5.97438">
        <ele>320.74</ele>
        <time>2019-04-30T07:17:31Z</time>
      </trkpt>
      <trkpt lat="45.57803" lon="5.97446">
        <ele>320.74</ele>
        <time>2019-04-30T07:17:43Z</time>
      </trkpt>
      <trkpt lat="45.57824" lon="5.97452">
        <ele>321.22</ele>
        <time>2019-04-30T07:17:57Z</time>
      </trkpt>
      <trkpt lat="45.57826" lon="5.97455">
        <ele>321.22</ele>
        <time>2019-04-30T07:18:00Z</time>
      </trkpt>
      <trkpt lat="45.57825" lon="5.97461">
        <ele>321.22</ele>
        <time>2019-04-30T07:18:05Z</time>
      </trkpt>
      <trkpt lat="45.57836" lon="5.9747">
        <ele>321.22</ele>
        <time>2019-04-30T07:18:18Z</time>
      </trkpt>
      <trkpt lat="45.57848" lon="5.97478">
        <ele>321.22</ele>
        <time>2019-04-30T07:18:32Z</time>
      </trkpt>
      <trkpt lat="45.57857" lon="5.97484">
        <ele>321.7</ele>
        <time>2019-04-30T07:18:46Z</time>
      </trkpt>
      <trkpt lat="45.57873" lon="5.9749">
        <ele>322.18</ele>
        <time>2019-04-30T07:19:02Z</time>
      </trkpt>
      <trkpt lat="45.57889" lon="5.97496">
        <ele>322.66</ele>
        <time>2019-04-30T07:19:15Z</time>
      </trkpt>
      <trkpt lat="45.57899" lon="5.97505">
        <ele>323.14</ele>
        <time>2019-04-30T07:19:30Z</time>
      </trkpt>
      <trkpt lat="45.57903" lon="5.97506">
        <ele>322.66</ele>
        <time>2019-04-30T07:19:34Z</time>
      </trkpt>
      <trkpt lat="45.57923" lon="5.97513">
        <ele>323.62</ele>
        <time>2019-04-30T07:19:54Z</time>
      </trkpt>
      <trkpt lat="45.57935" lon="5.97522">
        <ele>323.62</ele>
        <time>2019-04-30T07:20:09Z</time>
      </trkpt>
      <trkpt lat="45.57952" lon="5.97529">
        <ele>324.1</ele>
        <time>2019-04-30T07:20:24Z</time>
      </trkpt>
      <trkpt lat="45.57972" lon="5.97537">
        <ele>324.1</ele>
        <time>2019-04-30T07:20:40Z</time>
      </trkpt>
      <trkpt lat="45.57987" lon="5.97542">
        <ele>324.1</ele>
        <time>2019-04-30T07:20:50Z</time>
      </trkpt>
      <trkpt lat="45.58009" lon="5.97549">
        <ele>324.1</ele>
        <time>2019-04-30T07:21:06Z</time>
      </trkpt>
      <trkpt lat="45.58017" lon="5.97559">
        <ele>324.58</ele>
        <time>2019-04-30T07:21:21Z</time>
      </trkpt>
      <trkpt lat="45.58036" lon="5.97568">
        <ele>324.58</ele>
        <time>2019-04-30T07:21:35Z</time>
      </trkpt>
      <trkpt lat="45.58047" lon="5.97572">
        <ele>324.58</ele>
        <time>2019-04-30T07:21:42Z</time>
      </trkpt>
      <trkpt lat="45.5805" lon="5.97574">
        <ele>324.58</ele>
        <time>2019-04-30T07:21:44Z</time>
      </trkpt>
      <trkpt lat="45.5806" lon="5.97582">
        <ele>324.58</ele>
        <time>2019-04-30T07:21:52Z</time>
      </trkpt>
      <trkpt lat="45.58073" lon="5.97588">
        <ele>325.54</ele>
        <time>2019-04-30T07:22:06Z</time>
      </trkpt>
      <trkpt lat="45.58082" lon="5.97593">
        <ele>325.54</ele>
        <time>2019-04-30T07:22:13Z</time>
      </trkpt>
      <trkpt lat="45.58097" lon="5.97602">
        <ele>326.02</ele>
        <time>2019-04-30T07:22:26Z</time>
      </trkpt>
      <trkpt lat="45.5811" lon="5.97607">
        <ele>326.5</ele>
        <time>2019-04-30T07:22:37Z</time>
      </trkpt>
      <trkpt lat="45.58138" lon="5.97606">
        <ele>327.47</ele>
        <time>2019-04-30T07:22:52Z</time>
      </trkpt>
      <trkpt lat="45.5815" lon="5.97606">
        <ele>328.43</ele>
        <time>2019-04-30T07:23:01Z</time>
      </trkpt>
      <trkpt lat="45.58152" lon="5.97609">
        <ele>328.43</ele>
        <time>2019-04-30T07:23:03Z</time>
      </trkpt>
      <trkpt lat="45.58161" lon="5.97613">
        <ele>329.39</ele>
        <time>2019-04-30T07:23:16Z</time>
      </trkpt>
      <trkpt lat="45.58169" lon="5.97623">
        <ele>330.35</ele>
        <time>2019-04-30T07:23:28Z</time>
      </trkpt>
      <trkpt lat="45.58171" lon="5.97624">
        <ele>330.83</ele>
        <time>2019-04-30T07:23:30Z</time>
      </trkpt>
      <trkpt lat="45.58186" lon="5.97637">
        <ele>331.31</ele>
        <time>2019-04-30T07:23:42Z</time>
      </trkpt>
      <trkpt lat="45.58199" lon="5.97644">
        <ele>331.79</ele>
        <time>2019-04-30T07:23:54Z</time>
      </trkpt>
      <trkpt lat="45.58209" lon="5.97646">
        <ele>331.79</ele>
        <time>2019-04-30T07:24:07Z</time>
      </trkpt>
      <trkpt lat="45.58209" lon="5.97647">
        <ele>331.31</ele>
        <time>2019-04-30T07:24:08Z</time>
      </trkpt>
      <trkpt lat="45.582" lon="5.97665">
        <ele>330.83</ele>
        <time>2019-04-30T07:24:20Z</time>
      </trkpt>
      <trkpt lat="45.58193" lon="5.97684">
        <ele>330.35</ele>
        <time>2019-04-30T07:24:32Z</time>
      </trkpt>
      <trkpt lat="45.58183" lon="5.97708">
        <ele>329.39</ele>
        <time>2019-04-30T07:24:46Z</time>
      </trkpt>
      <trkpt lat="45.58183" lon="5.97712">
        <ele>329.39</ele>
        <time>2019-04-30T07:24:48Z</time>
      </trkpt>
      <trkpt lat="45.58172" lon="5.97742">
        <ele>329.39</ele>
        <time>2019-04-30T07:25:05Z</time>
      </trkpt>
      <trkpt lat="45.58165" lon="5.97758">
        <ele>328.91</ele>
        <time>2019-04-30T07:25:18Z</time>
      </trkpt>
      <trkpt lat="45.58165" lon="5.97774">
        <ele>328.91</ele>
        <time>2019-04-30T07:25:31Z</time>
      </trkpt>
      <trkpt lat="45.58142" lon="5.9778">
        <ele>328.91</ele>
        <time>2019-04-30T07:25:47Z</time>
      </trkpt>
      <trkpt lat="45.58134" lon="5.97796">
        <ele>328.43</ele>
        <time>2019-04-30T07:26:02Z</time>
      </trkpt>
      <trkpt lat="45.58132" lon="5.97813">
        <ele>328.43</ele>
        <time>2019-04-30T07:26:16Z</time>
      </trkpt>
      <trkpt lat="45.58131" lon="5.97814">
        <ele>328.43</ele>
        <time>2019-04-30T07:26:17Z</time>
      </trkpt>
      <trkpt lat="45.58128" lon="5.97831">
        <ele>328.91</ele>
        <time>2019-04-30T07:26:28Z</time>
      </trkpt>
      <trkpt lat="45.58132" lon="5.97844">
        <ele>329.39</ele>
        <time>2019-04-30T07:26:35Z</time>
      </trkpt>
      <trkpt lat="45.58134" lon="5.97853">
        <ele>329.39</ele>
        <time>2019-04-30T07:26:40Z</time>
      </trkpt>
      <trkpt lat="45.58139" lon="5.97875">
        <ele>329.87</ele>
        <time>2019-04-30T07:26:54Z</time>
      </trkpt>
      <trkpt lat="45.58138" lon="5.97881">
        <ele>329.87</ele>
        <time>2019-04-30T07:26:57Z</time>
      </trkpt>
      <trkpt lat="45.58137" lon="5.97889">
        <ele>330.35</ele>
        <time>2019-04-30T07:27:02Z</time>
      </trkpt>
      <trkpt lat="45.58139" lon="5.97905">
        <ele>330.83</ele>
        <time>2019-04-30T07:27:11Z</time>
      </trkpt>
      <trkpt lat="45.5815" lon="5.97923">
        <ele>331.31</ele>
        <time>2019-04-30T07:27:25Z</time>
      </trkpt>
      <trkpt lat="45.58151" lon="5.97931">
        <ele>331.79</ele>
        <time>2019-04-30T07:27:31Z</time>
      </trkpt>
      <trkpt lat="45.5815" lon="5.97957">
        <ele>331.79</ele>
        <time>2019-04-30T07:27:47Z</time>
      </trkpt>
      <trkpt lat="45.58154" lon="5.97968">
        <ele>332.75</ele>
        <time>2019-04-30T07:28:00Z</time>
      </trkpt>
      <trkpt lat="45.5816" lon="5.97978">
        <ele>334.68</ele>
        <time>2019-04-30T07:28:14Z</time>
      </trkpt>
      <trkpt lat="45.58162" lon="5.97994">
        <ele>334.68</ele>
        <time>2019-04-30T07:28:26Z</time>
      </trkpt>
      <trkpt lat="45.58165" lon="5.98013">
        <ele>334.68</ele>
        <time>2019-04-30T07:28:39Z</time>
      </trkpt>
      <trkpt lat="45.58167" lon="5.98025">
        <ele>334.68</ele>
        <time>2019-04-30T07:28:46Z</time>
      </trkpt>
      <trkpt lat="45.5817" lon="5.98048">
        <ele>334.68</ele>
        <time>2019-04-30T07:29:00Z</time>
      </trkpt>
      <trkpt lat="45.58171" lon="5.9805">
        <ele>334.68</ele>
        <time>2019-04-30T07:29:01Z</time>
      </trkpt>
      <trkpt lat="45.58174" lon="5.98062">
        <ele>334.68</ele>
        <time>2019-04-30T07:29:10Z</time>
      </trkpt>
      <trkpt lat="45.58183" lon="5.98074">
        <ele>334.68</ele>
        <time>2019-04-30T07:29:23Z</time>
      </trkpt>
      <trkpt lat="45.58194" lon="5.98083">
        <ele>335.16</ele>
        <time>2019-04-30T07:29:38Z</time>
      </trkpt>
      <trkpt lat="45.58201" lon="5.98099">
        <ele>334.68</ele>
        <time>2019-04-30T07:29:53Z</time>
      </trkpt>
      <trkpt lat="45.58203" lon="5.98119">
        <ele>334.68</ele>
        <time>2019-04-30T07:30:03Z</time>
      </trkpt>
      <trkpt lat="45.58205" lon="5.98135">
        <ele>335.16</ele>
        <time>2019-04-30T07:30:11Z</time>
      </trkpt>
      <trkpt lat="45.58212" lon="5.98151">
        <ele>335.16</ele>
        <time>2019-04-30T07:30:21Z</time>
      </trkpt>
      <trkpt lat="45.58211" lon="5.98157">
        <ele>335.16</ele>
        <time>2019-04-30T07:30:26Z</time>
      </trkpt>
      <trkpt lat="45.5821" lon="5.98164">
        <ele>335.16</ele>
        <time>2019-04-30T07:30:31Z</time>
      </trkpt>
      <trkpt lat="45.58203" lon="5.98184">
        <ele>336.12</ele>
        <time>2019-04-30T07:30:46Z</time>
      </trkpt>
      <trkpt lat="45.58199" lon="5.98199">
        <ele>336.6</ele>
        <time>2019-04-30T07:30:59Z</time>
      </trkpt>
      <trkpt lat="45.58202" lon="5.98206">
        <ele>337.08</ele>
        <time>2019-04-30T07:31:03Z</time>
      </trkpt>
      <trkpt lat="45.58193" lon="5.98217">
        <ele>337.56</ele>
        <time>2019-04-30T07:31:16Z</time>
      </trkpt>
      <trkpt lat="45.58133" lon="5.98206">
        <ele>337.08</ele>
        <time>2019-04-30T07:31:31Z</time>
      </trkpt>
      <trkpt lat="45.58133" lon="5.98209">
        <ele>337.08</ele>
        <time>2019-04-30T07:31:35Z</time>
      </trkpt>
      <trkpt lat="45.58138" lon="5.98224">
        <ele>337.08</ele>
        <time>2019-04-30T07:31:49Z</time>
      </trkpt>
      <trkpt lat="45.5814" lon="5.9824">
        <ele>337.56</ele>
        <time>2019-04-30T07:32:02Z</time>
      </trkpt>
      <trkpt lat="45.58136" lon="5.98253">
        <ele>337.56</ele>
        <time>2019-04-30T07:32:16Z</time>
      </trkpt>
      <trkpt lat="45.58131" lon="5.98261">
        <ele>338.04</ele>
        <time>2019-04-30T07:32:27Z</time>
      </trkpt>
      <trkpt lat="45.58127" lon="5.98275">
        <ele>338.52</ele>
        <time>2019-04-30T07:32:41Z</time>
      </trkpt>
      <trkpt lat="45.58128" lon="5.98277">
        <ele>338.52</ele>
        <time>2019-04-30T07:32:55Z</time>
      </trkpt>
      <trkpt lat="45.58129" lon="5.98278">
        <ele>338.52</ele>
        <time>2019-04-30T07:33:27Z</time>
      </trkpt>
      <trkpt lat="45.58129" lon="5.98278">
        <ele>338.52</ele>
        <time>2019-04-30T07:33:59Z</time>
      </trkpt>
      <trkpt lat="45.58129" lon="5.98279">
        <ele>338.52</ele>
        <time>2019-04-30T07:34:24Z</time>
      </trkpt>
      <trkpt lat="45.58128" lon="5.9828">
        <ele>339</ele>
        <time>2019-04-30T07:34:55Z</time>
      </trkpt>
      <trkpt lat="45.58128" lon="5.98281">
        <ele>339</ele>
        <time>2019-04-30T07:35:24Z</time>
      </trkpt>
      <trkpt lat="45.58128" lon="5.98281">
        <ele>339</ele>
        <time>2019-04-30T07:36:00Z</time>
      </trkpt>
      <trkpt lat="45.58128" lon="5.98284">
        <ele>338.52</ele>
        <time>2019-04-30T07:36:25Z</time>
      </trkpt>
      <trkpt lat="45.58135" lon="5.98291">
        <ele>339.96</ele>
        <time>2019-04-30T07:36:34Z</time>
      </trkpt>
      <trkpt lat="45.5815" lon="5.98305">
        <ele>339.96</ele>
        <time>2019-04-30T07:36:51Z</time>
      </trkpt>
      <trkpt lat="45.58164" lon="5.98318">
        <ele>340.44</ele>
        <time>2019-04-30T07:37:09Z</time>
      </trkpt>
      <trkpt lat="45.58174" lon="5.98336">
        <ele>341.41</ele>
        <time>2019-04-30T07:37:32Z</time>
      </trkpt>
      <trkpt lat="45.5819" lon="5.98357">
        <ele>342.37</ele>
        <time>2019-04-30T07:37:53Z</time>
      </trkpt>
      <trkpt lat="45.58194" lon="5.98387">
        <ele>343.33</ele>
        <time>2019-04-30T07:38:10Z</time>
      </trkpt>
      <trkpt lat="45.58193" lon="5.98392">
        <ele>343.81</ele>
        <time>2019-04-30T07:38:14Z</time>
      </trkpt>
      <trkpt lat="45.58187" lon="5.98418">
        <ele>345.25</ele>
        <time>2019-04-30T07:38:37Z</time>
      </trkpt>
      <trkpt lat="45.58183" lon="5.98441">
        <ele>345.73</ele>
        <time>2019-04-30T07:38:54Z</time>
      </trkpt>
      <trkpt lat="45.58179" lon="5.98461">
        <ele>345.73</ele>
        <time>2019-04-30T07:39:07Z</time>
      </trkpt>
      <trkpt lat="45.58168" lon="5.98478">
        <ele>346.21</ele>
        <time>2019-04-30T07:39:26Z</time>
      </trkpt>
      <trkpt lat="45.58157" lon="5.98495">
        <ele>347.17</ele>
        <time>2019-04-30T07:39:44Z</time>
      </trkpt>
      <trkpt lat="45.58142" lon="5.98522">
        <ele>348.13</ele>
        <time>2019-04-30T07:40:02Z</time>
      </trkpt>
      <trkpt lat="45.58138" lon="5.98539">
        <ele>348.13</ele>
        <time>2019-04-30T07:40:17Z</time>
      </trkpt>
      <trkpt lat="45.58137" lon="5.98543">
        <ele>347.17</ele>
        <time>2019-04-30T07:40:31Z</time>
      </trkpt>
      <trkpt lat="45.58136" lon="5.98544">
        <ele>347.17</ele>
        <time>2019-04-30T07:40:47Z</time>
      </trkpt>
      <trkpt lat="45.58136" lon="5.98547">
        <ele>347.17</ele>
        <time>2019-04-30T07:41:09Z</time>
      </trkpt>
      <trkpt lat="45.58137" lon="5.98547">
        <ele>347.17</ele>
        <time>2019-04-30T07:41:26Z</time>
      </trkpt>
      <trkpt lat="45.58137" lon="5.98546">
        <ele>347.65</ele>
        <time>2019-04-30T07:41:41Z</time>
      </trkpt>
      <trkpt lat="45.5814" lon="5.9854">
        <ele>348.13</ele>
        <time>2019-04-30T07:41:53Z</time>
      </trkpt>
      <trkpt lat="45.58142" lon="5.98539">
        <ele>349.58</ele>
        <time>2019-04-30T07:42:08Z</time>
      </trkpt>
      <trkpt lat="45.58142" lon="5.98541">
        <ele>351.02</ele>
        <time>2019-04-30T07:42:19Z</time>
      </trkpt>
      <trkpt lat="45.58142" lon="5.98543">
        <ele>345.73</ele>
        <time>2019-04-30T07:42:22Z</time>
      </trkpt>
      <trkpt lat="45.58142" lon="5.98544">
        <ele>355.34</ele>
        <time>2019-04-30T07:42:23Z</time>
      </trkpt>
      <trkpt lat="45.58142" lon="5.98544">
        <ele>352.94</ele>
        <time>2019-04-30T07:42:24Z</time>
      </trkpt>
      <trkpt lat="45.58143" lon="5.98548">
        <ele>354.86</ele>
        <time>2019-04-30T07:42:38Z</time>
      </trkpt>
      <trkpt lat="45.58142" lon="5.98551">
        <ele>355.83</ele>
        <time>2019-04-30T07:42:52Z</time>
      </trkpt>
      <trkpt lat="45.5814" lon="5.9855">
        <ele>357.75</ele>
        <time>2019-04-30T07:43:04Z</time>
      </trkpt>
      <trkpt lat="45.58139" lon="5.9855">
        <ele>360.63</ele>
        <time>2019-04-30T07:43:22Z</time>
      </trkpt>
      <trkpt lat="45.58138" lon="5.98548">
        <ele>362.55</ele>
        <time>2019-04-30T07:43:36Z</time>
      </trkpt>
      <trkpt lat="45.5814" lon="5.9854">
        <ele>364</ele>
        <time>2019-04-30T07:43:48Z</time>
      </trkpt>
      <trkpt lat="45.58132" lon="5.98525">
        <ele>365.92</ele>
        <time>2019-04-30T07:44:06Z</time>
      </trkpt>
      <trkpt lat="45.58134" lon="5.9852">
        <ele>367.84</ele>
        <time>2019-04-30T07:44:21Z</time>
      </trkpt>
      <trkpt lat="45.58147" lon="5.98522">
        <ele>370.24</ele>
        <time>2019-04-30T07:44:38Z</time>
      </trkpt>
      <trkpt lat="45.58142" lon="5.98528">
        <ele>373.13</ele>
        <time>2019-04-30T07:44:54Z</time>
      </trkpt>
      <trkpt lat="45.58139" lon="5.9854">
        <ele>375.53</ele>
        <time>2019-04-30T07:45:09Z</time>
      </trkpt>
      <trkpt lat="45.58139" lon="5.9855">
        <ele>377.45</ele>
        <time>2019-04-30T07:45:22Z</time>
      </trkpt>
      <trkpt lat="45.58132" lon="5.98541">
        <ele>378.42</ele>
        <time>2019-04-30T07:45:30Z</time>
      </trkpt>
      <trkpt lat="45.58125" lon="5.9853">
        <ele>379.38</ele>
        <time>2019-04-30T07:45:44Z</time>
      </trkpt>
      <trkpt lat="45.58133" lon="5.98525">
        <ele>381.78</ele>
        <time>2019-04-30T07:46:03Z</time>
      </trkpt>
      <trkpt lat="45.58147" lon="5.98544">
        <ele>384.18</ele>
        <time>2019-04-30T07:46:18Z</time>
      </trkpt>
      <trkpt lat="45.58146" lon="5.98549">
        <ele>386.11</ele>
        <time>2019-04-30T07:46:32Z</time>
      </trkpt>
      <trkpt lat="45.58145" lon="5.98555">
        <ele>387.55</ele>
        <time>2019-04-30T07:46:50Z</time>
      </trkpt>
      <trkpt lat="45.58149" lon="5.98563">
        <ele>388.51</ele>
        <time>2019-04-30T07:47:01Z</time>
      </trkpt>
      <trkpt lat="45.58153" lon="5.98578">
        <ele>390.91</ele>
        <time>2019-04-30T07:47:15Z</time>
      </trkpt>
      <trkpt lat="45.58154" lon="5.98579">
        <ele>392.84</ele>
        <time>2019-04-30T07:47:29Z</time>
      </trkpt>
      <trkpt lat="45.58155" lon="5.98581">
        <ele>395.24</ele>
        <time>2019-04-30T07:47:44Z</time>
      </trkpt>
      <trkpt lat="45.58158" lon="5.98587">
        <ele>396.2</ele>
        <time>2019-04-30T07:47:57Z</time>
      </trkpt>
      <trkpt lat="45.58159" lon="5.98592">
        <ele>398.12</ele>
        <time>2019-04-30T07:48:13Z</time>
      </trkpt>
      <trkpt lat="45.5816" lon="5.98595">
        <ele>400.53</ele>
        <time>2019-04-30T07:48:29Z</time>
      </trkpt>
      <trkpt lat="45.5816" lon="5.98597">
        <ele>402.93</ele>
        <time>2019-04-30T07:48:48Z</time>
      </trkpt>
      <trkpt lat="45.58159" lon="5.98599">
        <ele>404.37</ele>
        <time>2019-04-30T07:49:01Z</time>
      </trkpt>
      <trkpt lat="45.58159" lon="5.98602">
        <ele>406.77</ele>
        <time>2019-04-30T07:49:17Z</time>
      </trkpt>
      <trkpt lat="45.58158" lon="5.98605">
        <ele>407.26</ele>
        <time>2019-04-30T07:49:20Z</time>
      </trkpt>
      <trkpt lat="45.58155" lon="5.98623">
        <ele>409.18</ele>
        <time>2019-04-30T07:49:34Z</time>
      </trkpt>
      <trkpt lat="45.58156" lon="5.98627">
        <ele>410.62</ele>
        <time>2019-04-30T07:49:46Z</time>
      </trkpt>
      <trkpt lat="45.58156" lon="5.98631">
        <ele>412.06</ele>
        <time>2019-04-30T07:49:55Z</time>
      </trkpt>
      <trkpt lat="45.58156" lon="5.98643">
        <ele>413.98</ele>
        <time>2019-04-30T07:50:06Z</time>
      </trkpt>
      <trkpt lat="45.58151" lon="5.98658">
        <ele>412.06</ele>
        <time>2019-04-30T07:50:21Z</time>
      </trkpt>
      <trkpt lat="45.58146" lon="5.98673">
        <ele>412.06</ele>
        <time>2019-04-30T07:50:33Z</time>
      </trkpt>
      <trkpt lat="45.58144" lon="5.98682">
        <ele>413.02</ele>
        <time>2019-04-30T07:50:45Z</time>
      </trkpt>
      <trkpt lat="45.58148" lon="5.98691">
        <ele>414.95</ele>
        <time>2019-04-30T07:51:00Z</time>
      </trkpt>
      <trkpt lat="45.58145" lon="5.987">
        <ele>416.39</ele>
        <time>2019-04-30T07:51:18Z</time>
      </trkpt>
      <trkpt lat="45.58144" lon="5.98702">
        <ele>415.43</ele>
        <time>2019-04-30T07:51:33Z</time>
      </trkpt>
      <trkpt lat="45.58144" lon="5.98705">
        <ele>414.95</ele>
        <time>2019-04-30T07:51:55Z</time>
      </trkpt>
      <trkpt lat="45.58147" lon="5.98707">
        <ele>414.95</ele>
        <time>2019-04-30T07:52:29Z</time>
      </trkpt>
      <trkpt lat="45.58148" lon="5.98707">
        <ele>414.47</ele>
        <time>2019-04-30T07:53:05Z</time>
      </trkpt>
      <trkpt lat="45.58148" lon="5.98707">
        <ele>413.98</ele>
        <time>2019-04-30T07:53:26Z</time>
      </trkpt>
      <trkpt lat="45.58148" lon="5.98707">
        <ele>413.98</ele>
        <time>2019-04-30T07:53:50Z</time>
      </trkpt>
      <trkpt lat="45.58149" lon="5.98707">
        <ele>413.5</ele>
        <time>2019-04-30T07:54:16Z</time>
      </trkpt>
      <trkpt lat="45.58149" lon="5.98708">
        <ele>413.5</ele>
        <time>2019-04-30T07:54:37Z</time>
      </trkpt>
      <trkpt lat="45.58152" lon="5.98709">
        <ele>413.02</ele>
        <time>2019-04-30T07:55:03Z</time>
      </trkpt>
      <trkpt lat="45.58152" lon="5.9871">
        <ele>413.02</ele>
        <time>2019-04-30T07:55:25Z</time>
      </trkpt>
      <trkpt lat="45.58164" lon="5.98717">
        <ele>414.95</ele>
        <time>2019-04-30T07:55:41Z</time>
      </trkpt>
      <trkpt lat="45.58169" lon="5.98725">
        <ele>416.39</ele>
        <time>2019-04-30T07:55:51Z</time>
      </trkpt>
      <trkpt lat="45.58175" lon="5.98732">
        <ele>417.35</ele>
        <time>2019-04-30T07:56:00Z</time>
      </trkpt>
      <trkpt lat="45.58176" lon="5.98739">
        <ele>417.83</ele>
        <time>2019-04-30T07:56:12Z</time>
      </trkpt>
      <trkpt lat="45.58172" lon="5.9875">
        <ele>418.79</ele>
        <time>2019-04-30T07:56:28Z</time>
      </trkpt>
      <trkpt lat="45.58172" lon="5.98752">
        <ele>420.23</ele>
        <time>2019-04-30T07:56:39Z</time>
      </trkpt>
      <trkpt lat="45.5818" lon="5.98763">
        <ele>420.71</ele>
        <time>2019-04-30T07:56:59Z</time>
      </trkpt>
      <trkpt lat="45.5818" lon="5.98772">
        <ele>420.23</ele>
        <time>2019-04-30T07:57:14Z</time>
      </trkpt>
      <trkpt lat="45.5818" lon="5.98774">
        <ele>417.35</ele>
        <time>2019-04-30T07:57:28Z</time>
      </trkpt>
      <trkpt lat="45.5818" lon="5.98775">
        <ele>416.87</ele>
        <time>2019-04-30T07:57:30Z</time>
      </trkpt>
      <trkpt lat="45.58194" lon="5.98785">
        <ele>413.5</ele>
        <time>2019-04-30T07:57:42Z</time>
      </trkpt>
      <trkpt lat="45.5819" lon="5.98778">
        <ele>411.58</ele>
        <time>2019-04-30T07:57:54Z</time>
      </trkpt>
      <trkpt lat="45.58181" lon="5.98778">
        <ele>408.7</ele>
        <time>2019-04-30T07:58:08Z</time>
      </trkpt>
      <trkpt lat="45.5817" lon="5.98774">
        <ele>406.29</ele>
        <time>2019-04-30T07:58:21Z</time>
      </trkpt>
      <trkpt lat="45.58161" lon="5.98773">
        <ele>405.33</ele>
        <time>2019-04-30T07:58:31Z</time>
      </trkpt>
      <trkpt lat="45.58159" lon="5.98773">
        <ele>404.85</ele>
        <time>2019-04-30T07:58:33Z</time>
      </trkpt>
      <trkpt lat="45.58152" lon="5.98773">
        <ele>405.33</ele>
        <time>2019-04-30T07:58:44Z</time>
      </trkpt>
      <trkpt lat="45.58148" lon="5.98776">
        <ele>406.77</ele>
        <time>2019-04-30T07:58:59Z</time>
      </trkpt>
      <trkpt lat="45.5814" lon="5.98782">
        <ele>409.18</ele>
        <time>2019-04-30T07:59:10Z</time>
      </trkpt>
      <trkpt lat="45.58137" lon="5.98787">
        <ele>411.58</ele>
        <time>2019-04-30T07:59:22Z</time>
      </trkpt>
      <trkpt lat="45.58132" lon="5.98793">
        <ele>412.54</ele>
        <time>2019-04-30T07:59:36Z</time>
      </trkpt>
      <trkpt lat="45.58131" lon="5.98792">
        <ele>412.54</ele>
        <time>2019-04-30T08:00:02Z</time>
      </trkpt>
      <trkpt lat="45.5813" lon="5.98794">
        <ele>413.02</ele>
        <time>2019-04-30T08:00:21Z</time>
      </trkpt>
      <trkpt lat="45.58129" lon="5.98795">
        <ele>412.54</ele>
        <time>2019-04-30T08:00:43Z</time>
      </trkpt>
      <trkpt lat="45.5813" lon="5.98795">
        <ele>413.02</ele>
        <time>2019-04-30T08:01:08Z</time>
      </trkpt>
      <trkpt lat="45.5813" lon="5.98796">
        <ele>413.02</ele>
        <time>2019-04-30T08:01:26Z</time>
      </trkpt>
      <trkpt lat="45.58131" lon="5.98796">
        <ele>413.02</ele>
        <time>2019-04-30T08:01:57Z</time>
      </trkpt>
      <trkpt lat="45.58126" lon="5.98809">
        <ele>413.02</ele>
        <time>2019-04-30T08:02:19Z</time>
      </trkpt>
      <trkpt lat="45.58119" lon="5.98833">
        <ele>411.58</ele>
        <time>2019-04-30T08:02:37Z</time>
      </trkpt>
      <trkpt lat="45.58114" lon="5.98853">
        <ele>413.02</ele>
        <time>2019-04-30T08:02:56Z</time>
      </trkpt>
      <trkpt lat="45.58114" lon="5.98861">
        <ele>415.91</ele>
        <time>2019-04-30T08:03:07Z</time>
      </trkpt>
      <trkpt lat="45.58115" lon="5.9887">
        <ele>416.87</ele>
        <time>2019-04-30T08:03:18Z</time>
      </trkpt>
      <trkpt lat="45.58116" lon="5.9888">
        <ele>419.27</ele>
        <time>2019-04-30T08:03:34Z</time>
      </trkpt>
      <trkpt lat="45.58113" lon="5.98894">
        <ele>420.71</ele>
        <time>2019-04-30T08:03:47Z</time>
      </trkpt>
      <trkpt lat="45.58114" lon="5.98913">
        <ele>422.16</ele>
        <time>2019-04-30T08:04:00Z</time>
      </trkpt>
      <trkpt lat="45.58115" lon="5.98915">
        <ele>425.52</ele>
        <time>2019-04-30T08:04:02Z</time>
      </trkpt>
      <trkpt lat="45.58117" lon="5.98919">
        <ele>422.16</ele>
        <time>2019-04-30T08:04:06Z</time>
      </trkpt>
      <trkpt lat="45.58119" lon="5.98922">
        <ele>421.68</ele>
        <time>2019-04-30T08:04:09Z</time>
      </trkpt>
      <trkpt lat="45.5812" lon="5.9894">
        <ele>420.71</ele>
        <time>2019-04-30T08:04:23Z</time>
      </trkpt>
      <trkpt lat="45.58121" lon="5.98943">
        <ele>421.19</ele>
        <time>2019-04-30T08:04:27Z</time>
      </trkpt>
      <trkpt lat="45.58117" lon="5.98945">
        <ele>424.56</ele>
        <time>2019-04-30T08:04:37Z</time>
      </trkpt>
      <trkpt lat="45.58115" lon="5.9895">
        <ele>424.08</ele>
        <time>2019-04-30T08:04:43Z</time>
      </trkpt>
      <trkpt lat="45.58109" lon="5.98961">
        <ele>425.04</ele>
        <time>2019-04-30T08:04:55Z</time>
      </trkpt>
      <trkpt lat="45.58106" lon="5.98973">
        <ele>426.48</ele>
        <time>2019-04-30T08:05:08Z</time>
      </trkpt>
      <trkpt lat="45.58103" lon="5.9899">
        <ele>426.48</ele>
        <time>2019-04-30T08:05:21Z</time>
      </trkpt>
      <trkpt lat="45.58098" lon="5.99006">
        <ele>425.04</ele>
        <time>2019-04-30T08:05:34Z</time>
      </trkpt>
      <trkpt lat="45.58096" lon="5.99015">
        <ele>423.6</ele>
        <time>2019-04-30T08:05:42Z</time>
      </trkpt>
      <trkpt lat="45.58091" lon="5.99033">
        <ele>421.68</ele>
        <time>2019-04-30T08:05:56Z</time>
      </trkpt>
      <trkpt lat="45.58087" lon="5.99039">
        <ele>425.04</ele>
        <time>2019-04-30T08:06:08Z</time>
      </trkpt>
      <trkpt lat="45.58081" lon="5.99055">
        <ele>427.44</ele>
        <time>2019-04-30T08:06:22Z</time>
      </trkpt>
      <trkpt lat="45.58075" lon="5.99069">
        <ele>428.89</ele>
        <time>2019-04-30T08:06:34Z</time>
      </trkpt>
      <trkpt lat="45.58073" lon="5.99078">
        <ele>431.29</ele>
        <time>2019-04-30T08:06:48Z</time>
      </trkpt>
      <trkpt lat="45.58071" lon="5.99089">
        <ele>434.17</ele>
        <time>2019-04-30T08:07:01Z</time>
      </trkpt>
      <trkpt lat="45.58077" lon="5.99098">
        <ele>435.61</ele>
        <time>2019-04-30T08:07:14Z</time>
      </trkpt>
      <trkpt lat="45.58079" lon="5.99099">
        <ele>438.98</ele>
        <time>2019-04-30T08:07:30Z</time>
      </trkpt>
      <trkpt lat="45.58093" lon="5.99102">
        <ele>440.9</ele>
        <time>2019-04-30T08:07:47Z</time>
      </trkpt>
      <trkpt lat="45.58103" lon="5.99096">
        <ele>443.79</ele>
        <time>2019-04-30T08:08:05Z</time>
      </trkpt>
      <trkpt lat="45.5811" lon="5.99092">
        <ele>445.71</ele>
        <time>2019-04-30T08:08:18Z</time>
      </trkpt>
      <trkpt lat="45.58113" lon="5.99098">
        <ele>447.63</ele>
        <time>2019-04-30T08:08:29Z</time>
      </trkpt>
      <trkpt lat="45.58117" lon="5.99105">
        <ele>450.03</ele>
        <time>2019-04-30T08:08:41Z</time>
      </trkpt>
      <trkpt lat="45.58122" lon="5.99113">
        <ele>452.44</ele>
        <time>2019-04-30T08:08:54Z</time>
      </trkpt>
      <trkpt lat="45.58125" lon="5.9912">
        <ele>453.88</ele>
        <time>2019-04-30T08:09:02Z</time>
      </trkpt>
      <trkpt lat="45.58129" lon="5.9913">
        <ele>454.84</ele>
        <time>2019-04-30T08:09:15Z</time>
      </trkpt>
      <trkpt lat="45.58129" lon="5.99142">
        <ele>455.32</ele>
        <time>2019-04-30T08:09:26Z</time>
      </trkpt>
      <trkpt lat="45.58134" lon="5.99161">
        <ele>456.28</ele>
        <time>2019-04-30T08:09:41Z</time>
      </trkpt>
      <trkpt lat="45.58136" lon="5.9917">
        <ele>456.76</ele>
        <time>2019-04-30T08:09:56Z</time>
      </trkpt>
      <trkpt lat="45.58135" lon="5.99186">
        <ele>458.69</ele>
        <time>2019-04-30T08:10:09Z</time>
      </trkpt>
      <trkpt lat="45.58134" lon="5.99199">
        <ele>461.09</ele>
        <time>2019-04-30T08:10:27Z</time>
      </trkpt>
      <trkpt lat="45.58135" lon="5.99209">
        <ele>463.49</ele>
        <time>2019-04-30T08:10:41Z</time>
      </trkpt>
      <trkpt lat="45.58138" lon="5.99225">
        <ele>465.42</ele>
        <time>2019-04-30T08:10:55Z</time>
      </trkpt>
      <trkpt lat="45.58141" lon="5.99236">
        <ele>469.74</ele>
        <time>2019-04-30T08:11:05Z</time>
      </trkpt>
      <trkpt lat="45.58147" lon="5.99241">
        <ele>468.3</ele>
        <time>2019-04-30T08:11:18Z</time>
      </trkpt>
      <trkpt lat="45.58149" lon="5.99243">
        <ele>468.78</ele>
        <time>2019-04-30T08:11:34Z</time>
      </trkpt>
      <trkpt lat="45.58154" lon="5.99247">
        <ele>470.7</ele>
        <time>2019-04-30T08:11:49Z</time>
      </trkpt>
      <trkpt lat="45.58168" lon="5.99272">
        <ele>470.7</ele>
        <time>2019-04-30T08:12:08Z</time>
      </trkpt>
      <trkpt lat="45.58179" lon="5.993">
        <ele>472.14</ele>
        <time>2019-04-30T08:12:28Z</time>
      </trkpt>
      <trkpt lat="45.58181" lon="5.99308">
        <ele>474.07</ele>
        <time>2019-04-30T08:12:47Z</time>
      </trkpt>
      <trkpt lat="45.58189" lon="5.9932">
        <ele>480.32</ele>
        <time>2019-04-30T08:13:01Z</time>
      </trkpt>
      <trkpt lat="45.58199" lon="5.99327">
        <ele>478.87</ele>
        <time>2019-04-30T08:13:14Z</time>
      </trkpt>
      <trkpt lat="45.58204" lon="5.99333">
        <ele>481.76</ele>
        <time>2019-04-30T08:13:26Z</time>
      </trkpt>
      <trkpt lat="45.58206" lon="5.99335">
        <ele>478.87</ele>
        <time>2019-04-30T08:13:28Z</time>
      </trkpt>
      <trkpt lat="45.5821" lon="5.99343">
        <ele>476.47</ele>
        <time>2019-04-30T08:13:38Z</time>
      </trkpt>
      <trkpt lat="45.58214" lon="5.9935">
        <ele>475.03</ele>
        <time>2019-04-30T08:13:52Z</time>
      </trkpt>
      <trkpt lat="45.58214" lon="5.99364">
        <ele>472.63</ele>
        <time>2019-04-30T08:14:10Z</time>
      </trkpt>
      <trkpt lat="45.58215" lon="5.99378">
        <ele>470.7</ele>
        <time>2019-04-30T08:14:20Z</time>
      </trkpt>
      <trkpt lat="45.58216" lon="5.99384">
        <ele>471.66</ele>
        <time>2019-04-30T08:14:33Z</time>
      </trkpt>
      <trkpt lat="45.58218" lon="5.99398">
        <ele>472.14</ele>
        <time>2019-04-30T08:14:42Z</time>
      </trkpt>
      <trkpt lat="45.58217" lon="5.99403">
        <ele>477.43</ele>
        <time>2019-04-30T08:14:45Z</time>
      </trkpt>
      <trkpt lat="45.58217" lon="5.99406">
        <ele>472.63</ele>
        <time>2019-04-30T08:14:46Z</time>
      </trkpt>
      <trkpt lat="45.5822" lon="5.99423">
        <ele>472.14</ele>
        <time>2019-04-30T08:14:57Z</time>
      </trkpt>
      <trkpt lat="45.58221" lon="5.99429">
        <ele>473.59</ele>
        <time>2019-04-30T08:15:12Z</time>
      </trkpt>
      <trkpt lat="45.58231" lon="5.99445">
        <ele>473.59</ele>
        <time>2019-04-30T08:15:26Z</time>
      </trkpt>
      <trkpt lat="45.58232" lon="5.99448">
        <ele>470.22</ele>
        <time>2019-04-30T08:15:30Z</time>
      </trkpt>
      <trkpt lat="45.58232" lon="5.99449">
        <ele>476.95</ele>
        <time>2019-04-30T08:15:31Z</time>
      </trkpt>
      <trkpt lat="45.58233" lon="5.9945">
        <ele>473.59</ele>
        <time>2019-04-30T08:15:32Z</time>
      </trkpt>
      <trkpt lat="45.58239" lon="5.99457">
        <ele>473.11</ele>
        <time>2019-04-30T08:15:44Z</time>
      </trkpt>
      <trkpt lat="45.58242" lon="5.99463">
        <ele>474.55</ele>
        <time>2019-04-30T08:15:59Z</time>
      </trkpt>
      <trkpt lat="45.58241" lon="5.99466">
        <ele>475.03</ele>
        <time>2019-04-30T08:16:17Z</time>
      </trkpt>
      <trkpt lat="45.58242" lon="5.99469">
        <ele>475.51</ele>
        <time>2019-04-30T08:16:28Z</time>
      </trkpt>
      <trkpt lat="45.58247" lon="5.99491">
        <ele>478.39</ele>
        <time>2019-04-30T08:16:42Z</time>
      </trkpt>
      <trkpt lat="45.58248" lon="5.99502">
        <ele>480.8</ele>
        <time>2019-04-30T08:16:57Z</time>
      </trkpt>
      <trkpt lat="45.5825" lon="5.99512">
        <ele>482.72</ele>
        <time>2019-04-30T08:17:11Z</time>
      </trkpt>
      <trkpt lat="45.58249" lon="5.99517">
        <ele>484.64</ele>
        <time>2019-04-30T08:17:22Z</time>
      </trkpt>
      <trkpt lat="45.58251" lon="5.99513">
        <ele>487.05</ele>
        <time>2019-04-30T08:17:36Z</time>
      </trkpt>
      <trkpt lat="45.58255" lon="5.99513">
        <ele>489.45</ele>
        <time>2019-04-30T08:17:52Z</time>
      </trkpt>
      <trkpt lat="45.58257" lon="5.99521">
        <ele>490.89</ele>
        <time>2019-04-30T08:18:07Z</time>
      </trkpt>
      <trkpt lat="45.58258" lon="5.99527">
        <ele>492.81</ele>
        <time>2019-04-30T08:18:16Z</time>
      </trkpt>
      <trkpt lat="45.58261" lon="5.99545">
        <ele>494.26</ele>
        <time>2019-04-30T08:18:30Z</time>
      </trkpt>
      <trkpt lat="45.58259" lon="5.99562">
        <ele>494.74</ele>
        <time>2019-04-30T08:18:42Z</time>
      </trkpt>
      <trkpt lat="45.58258" lon="5.9957">
        <ele>495.22</ele>
        <time>2019-04-30T08:18:47Z</time>
      </trkpt>
      <trkpt lat="45.58256" lon="5.99574">
        <ele>495.22</ele>
        <time>2019-04-30T08:18:50Z</time>
      </trkpt>
      <trkpt lat="45.58255" lon="5.99577">
        <ele>495.7</ele>
        <time>2019-04-30T08:18:52Z</time>
      </trkpt>
      <trkpt lat="45.58254" lon="5.99594">
        <ele>496.18</ele>
        <time>2019-04-30T08:19:04Z</time>
      </trkpt>
      <trkpt lat="45.58252" lon="5.99606">
        <ele>497.62</ele>
        <time>2019-04-30T08:19:18Z</time>
      </trkpt>
      <trkpt lat="45.5825" lon="5.99612">
        <ele>498.1</ele>
        <time>2019-04-30T08:19:31Z</time>
      </trkpt>
      <trkpt lat="45.58249" lon="5.99615">
        <ele>499.06</ele>
        <time>2019-04-30T08:19:42Z</time>
      </trkpt>
      <trkpt lat="45.5825" lon="5.99619">
        <ele>501.46</ele>
        <time>2019-04-30T08:19:58Z</time>
      </trkpt>
      <trkpt lat="45.5825" lon="5.99619">
        <ele>503.39</ele>
        <time>2019-04-30T08:20:03Z</time>
      </trkpt>
      <trkpt lat="45.58254" lon="5.99616">
        <ele>504.35</ele>
        <time>2019-04-30T08:20:12Z</time>
      </trkpt>
      <trkpt lat="45.58259" lon="5.99614">
        <ele>505.79</ele>
        <time>2019-04-30T08:20:20Z</time>
      </trkpt>
      <trkpt lat="45.58261" lon="5.99623">
        <ele>508.19</ele>
        <time>2019-04-30T08:20:32Z</time>
      </trkpt>
      <trkpt lat="45.58258" lon="5.99635">
        <ele>510.6</ele>
        <time>2019-04-30T08:20:46Z</time>
      </trkpt>
      <trkpt lat="45.58256" lon="5.99643">
        <ele>512.04</ele>
        <time>2019-04-30T08:20:56Z</time>
      </trkpt>
      <trkpt lat="45.58256" lon="5.99663">
        <ele>513.96</ele>
        <time>2019-04-30T08:21:09Z</time>
      </trkpt>
      <trkpt lat="45.58258" lon="5.99673">
        <ele>514.92</ele>
        <time>2019-04-30T08:21:20Z</time>
      </trkpt>
      <trkpt lat="45.58258" lon="5.9968">
        <ele>514.44</ele>
        <time>2019-04-30T08:21:32Z</time>
      </trkpt>
      <trkpt lat="45.58257" lon="5.99689">
        <ele>512.52</ele>
        <time>2019-04-30T08:21:48Z</time>
      </trkpt>
      <trkpt lat="45.58258" lon="5.99699">
        <ele>510.6</ele>
        <time>2019-04-30T08:22:01Z</time>
      </trkpt>
      <trkpt lat="45.58258" lon="5.99701">
        <ele>514.92</ele>
        <time>2019-04-30T08:22:04Z</time>
      </trkpt>
      <trkpt lat="45.58258" lon="5.99702">
        <ele>511.08</ele>
        <time>2019-04-30T08:22:05Z</time>
      </trkpt>
      <trkpt lat="45.58261" lon="5.99707">
        <ele>509.64</ele>
        <time>2019-04-30T08:22:18Z</time>
      </trkpt>
      <trkpt lat="45.58259" lon="5.99721">
        <ele>508.19</ele>
        <time>2019-04-30T08:22:33Z</time>
      </trkpt>
      <trkpt lat="45.58256" lon="5.99736">
        <ele>504.35</ele>
        <time>2019-04-30T08:22:45Z</time>
      </trkpt>
      <trkpt lat="45.58252" lon="5.99745">
        <ele>503.87</ele>
        <time>2019-04-30T08:22:52Z</time>
      </trkpt>
      <trkpt lat="45.58249" lon="5.99754">
        <ele>503.39</ele>
        <time>2019-04-30T08:22:59Z</time>
      </trkpt>
      <trkpt lat="45.58243" lon="5.99765">
        <ele>503.87</ele>
        <time>2019-04-30T08:23:08Z</time>
      </trkpt>
      <trkpt lat="45.5824" lon="5.99782">
        <ele>505.79</ele>
        <time>2019-04-30T08:23:24Z</time>
      </trkpt>
      <trkpt lat="45.58241" lon="5.99791">
        <ele>508.19</ele>
        <time>2019-04-30T08:23:40Z</time>
      </trkpt>
      <trkpt lat="45.58238" lon="5.99806">
        <ele>510.12</ele>
        <time>2019-04-30T08:23:51Z</time>
      </trkpt>
      <trkpt lat="45.58238" lon="5.99825">
        <ele>511.56</ele>
        <time>2019-04-30T08:24:06Z</time>
      </trkpt>
      <trkpt lat="45.58239" lon="5.99837">
        <ele>513.48</ele>
        <time>2019-04-30T08:24:20Z</time>
      </trkpt>
      <trkpt lat="45.58237" lon="5.9985">
        <ele>515.4</ele>
        <time>2019-04-30T08:24:36Z</time>
      </trkpt>
      <trkpt lat="45.58234" lon="5.99867">
        <ele>517.33</ele>
        <time>2019-04-30T08:24:54Z</time>
      </trkpt>
      <trkpt lat="45.58234" lon="5.9987">
        <ele>516.85</ele>
        <time>2019-04-30T08:25:18Z</time>
      </trkpt>
      <trkpt lat="45.58233" lon="5.99873">
        <ele>516.37</ele>
        <time>2019-04-30T08:25:36Z</time>
      </trkpt>
      <trkpt lat="45.58227" lon="5.99881">
        <ele>513.96</ele>
        <time>2019-04-30T08:25:51Z</time>
      </trkpt>
      <trkpt lat="45.58226" lon="5.99882">
        <ele>513.48</ele>
        <time>2019-04-30T08:26:11Z</time>
      </trkpt>
      <trkpt lat="45.58226" lon="5.99885">
        <ele>510.6</ele>
        <time>2019-04-30T08:26:22Z</time>
      </trkpt>
      <trkpt lat="45.58227" lon="5.99885">
        <ele>514.44</ele>
        <time>2019-04-30T08:26:23Z</time>
      </trkpt>
      <trkpt lat="45.58231" lon="5.99881">
        <ele>516.37</ele>
        <time>2019-04-30T08:26:37Z</time>
      </trkpt>
      <trkpt lat="45.58234" lon="5.99886">
        <ele>518.77</ele>
        <time>2019-04-30T08:26:47Z</time>
      </trkpt>
      <trkpt lat="45.58235" lon="5.99886">
        <ele>519.73</ele>
        <time>2019-04-30T08:26:52Z</time>
      </trkpt>
      <trkpt lat="45.58243" lon="5.99898">
        <ele>521.17</ele>
        <time>2019-04-30T08:27:06Z</time>
      </trkpt>
      <trkpt lat="45.58247" lon="5.99909">
        <ele>521.17</ele>
        <time>2019-04-30T08:27:22Z</time>
      </trkpt>
      <trkpt lat="45.5825" lon="5.99919">
        <ele>522.13</ele>
        <time>2019-04-30T08:27:33Z</time>
      </trkpt>
      <trkpt lat="45.58255" lon="5.99934">
        <ele>523.58</ele>
        <time>2019-04-30T08:27:48Z</time>
      </trkpt>
      <trkpt lat="45.58258" lon="5.99951">
        <ele>524.54</ele>
        <time>2019-04-30T08:28:01Z</time>
      </trkpt>
      <trkpt lat="45.58259" lon="5.99952">
        <ele>521.17</ele>
        <time>2019-04-30T08:28:06Z</time>
      </trkpt>
      <trkpt lat="45.58259" lon="5.99952">
        <ele>526.94</ele>
        <time>2019-04-30T08:28:07Z</time>
      </trkpt>
      <trkpt lat="45.58261" lon="5.99959">
        <ele>527.9</ele>
        <time>2019-04-30T08:28:22Z</time>
      </trkpt>
      <trkpt lat="45.58267" lon="5.99968">
        <ele>527.9</ele>
        <time>2019-04-30T08:28:36Z</time>
      </trkpt>
      <trkpt lat="45.58271" lon="5.9999">
        <ele>526.46</ele>
        <time>2019-04-30T08:28:51Z</time>
      </trkpt>
      <trkpt lat="45.58278" lon="6.00012">
        <ele>524.54</ele>
        <time>2019-04-30T08:29:08Z</time>
      </trkpt>
      <trkpt lat="45.58279" lon="6.00019">
        <ele>521.17</ele>
        <time>2019-04-30T08:29:23Z</time>
      </trkpt>
      <trkpt lat="45.5828" lon="6.00022">
        <ele>520.21</ele>
        <time>2019-04-30T08:29:27Z</time>
      </trkpt>
      <trkpt lat="45.58282" lon="6.00026">
        <ele>520.21</ele>
        <time>2019-04-30T08:29:29Z</time>
      </trkpt>
      <trkpt lat="45.58284" lon="6.00042">
        <ele>518.29</ele>
        <time>2019-04-30T08:29:44Z</time>
      </trkpt>
      <trkpt lat="45.5829" lon="6.00064">
        <ele>516.37</ele>
        <time>2019-04-30T08:29:56Z</time>
      </trkpt>
      <trkpt lat="45.58291" lon="6.00072">
        <ele>516.85</ele>
        <time>2019-04-30T08:30:13Z</time>
      </trkpt>
      <trkpt lat="45.58292" lon="6.00078">
        <ele>517.81</ele>
        <time>2019-04-30T08:30:29Z</time>
      </trkpt>
      <trkpt lat="45.58288" lon="6.00088">
        <ele>520.69</ele>
        <time>2019-04-30T08:30:42Z</time>
      </trkpt>
      <trkpt lat="45.58285" lon="6.00107">
        <ele>523.09</ele>
        <time>2019-04-30T08:30:57Z</time>
      </trkpt>
      <trkpt lat="45.58284" lon="6.00117">
        <ele>525.5</ele>
        <time>2019-04-30T08:31:11Z</time>
      </trkpt>
      <trkpt lat="45.58277" lon="6.00125">
        <ele>527.42</ele>
        <time>2019-04-30T08:31:23Z</time>
      </trkpt>
      <trkpt lat="45.58274" lon="6.0013">
        <ele>528.86</ele>
        <time>2019-04-30T08:31:36Z</time>
      </trkpt>
      <trkpt lat="45.58268" lon="6.00139">
        <ele>531.75</ele>
        <time>2019-04-30T08:31:52Z</time>
      </trkpt>
      <trkpt lat="45.58266" lon="6.00146">
        <ele>534.15</ele>
        <time>2019-04-30T08:32:03Z</time>
      </trkpt>
      <trkpt lat="45.58269" lon="6.00155">
        <ele>536.55</ele>
        <time>2019-04-30T08:32:16Z</time>
      </trkpt>
      <trkpt lat="45.58269" lon="6.00163">
        <ele>536.07</ele>
        <time>2019-04-30T08:32:21Z</time>
      </trkpt>
      <trkpt lat="45.58271" lon="6.0017">
        <ele>536.55</ele>
        <time>2019-04-30T08:32:25Z</time>
      </trkpt>
      <trkpt lat="45.58274" lon="6.00184">
        <ele>537.51</ele>
        <time>2019-04-30T08:32:33Z</time>
      </trkpt>
      <trkpt lat="45.58277" lon="6.00196">
        <ele>537.51</ele>
        <time>2019-04-30T08:32:42Z</time>
      </trkpt>
      <trkpt lat="45.58279" lon="6.00216">
        <ele>538.48</ele>
        <time>2019-04-30T08:32:55Z</time>
      </trkpt>
      <trkpt lat="45.58281" lon="6.0023">
        <ele>538.96</ele>
        <time>2019-04-30T08:33:05Z</time>
      </trkpt>
      <trkpt lat="45.58284" lon="6.00245">
        <ele>539.44</ele>
        <time>2019-04-30T08:33:16Z</time>
      </trkpt>
      <trkpt lat="45.58285" lon="6.00249">
        <ele>539.92</ele>
        <time>2019-04-30T08:33:20Z</time>
      </trkpt>
      <trkpt lat="45.58287" lon="6.00253">
        <ele>540.4</ele>
        <time>2019-04-30T08:33:23Z</time>
      </trkpt>
      <trkpt lat="45.58291" lon="6.0027">
        <ele>540.88</ele>
        <time>2019-04-30T08:33:37Z</time>
      </trkpt>
      <trkpt lat="45.58293" lon="6.00275">
        <ele>541.36</ele>
        <time>2019-04-30T08:33:43Z</time>
      </trkpt>
      <trkpt lat="45.58299" lon="6.00287">
        <ele>541.84</ele>
        <time>2019-04-30T08:33:55Z</time>
      </trkpt>
      <trkpt lat="45.58299" lon="6.00287">
        <ele>541.84</ele>
        <time>2019-04-30T08:34:20Z</time>
      </trkpt>
      <trkpt lat="45.58298" lon="6.00288">
        <ele>541.84</ele>
        <time>2019-04-30T08:34:56Z</time>
      </trkpt>
      <trkpt lat="45.58299" lon="6.00294">
        <ele>542.8</ele>
        <time>2019-04-30T08:35:11Z</time>
      </trkpt>
      <trkpt lat="45.583" lon="6.00296">
        <ele>544.24</ele>
        <time>2019-04-30T08:35:30Z</time>
      </trkpt>
      <trkpt lat="45.58302" lon="6.00297">
        <ele>542.32</ele>
        <time>2019-04-30T08:35:53Z</time>
      </trkpt>
      <trkpt lat="45.58303" lon="6.00299">
        <ele>542.8</ele>
        <time>2019-04-30T08:36:12Z</time>
      </trkpt>
      <trkpt lat="45.58303" lon="6.00299">
        <ele>541.84</ele>
        <time>2019-04-30T08:36:31Z</time>
      </trkpt>
      <trkpt lat="45.58304" lon="6.00311">
        <ele>539.92</ele>
        <time>2019-04-30T08:36:49Z</time>
      </trkpt>
      <trkpt lat="45.58304" lon="6.00313">
        <ele>539.44</ele>
        <time>2019-04-30T08:36:50Z</time>
      </trkpt>
      <trkpt lat="45.58303" lon="6.00317">
        <ele>536.07</ele>
        <time>2019-04-30T08:36:54Z</time>
      </trkpt>
      <trkpt lat="45.58303" lon="6.00317">
        <ele>540.88</ele>
        <time>2019-04-30T08:36:55Z</time>
      </trkpt>
      <trkpt lat="45.58303" lon="6.00319">
        <ele>537.99</ele>
        <time>2019-04-30T08:36:57Z</time>
      </trkpt>
      <trkpt lat="45.58302" lon="6.00325">
        <ele>536.07</ele>
        <time>2019-04-30T08:37:02Z</time>
      </trkpt>
      <trkpt lat="45.58301" lon="6.00327">
        <ele>534.15</ele>
        <time>2019-04-30T08:37:15Z</time>
      </trkpt>
      <trkpt lat="45.58298" lon="6.00335">
        <ele>530.79</ele>
        <time>2019-04-30T08:37:25Z</time>
      </trkpt>
      <trkpt lat="45.5829" lon="6.00348">
        <ele>528.38</ele>
        <time>2019-04-30T08:37:35Z</time>
      </trkpt>
      <trkpt lat="45.58287" lon="6.00352">
        <ele>523.09</ele>
        <time>2019-04-30T08:37:38Z</time>
      </trkpt>
      <trkpt lat="45.58286" lon="6.00354">
        <ele>530.79</ele>
        <time>2019-04-30T08:37:39Z</time>
      </trkpt>
      <trkpt lat="45.58285" lon="6.00355">
        <ele>527.42</ele>
        <time>2019-04-30T08:37:40Z</time>
      </trkpt>
      <trkpt lat="45.58281" lon="6.00359">
        <ele>524.06</ele>
        <time>2019-04-30T08:37:53Z</time>
      </trkpt>
      <trkpt lat="45.58278" lon="6.00363">
        <ele>521.17</ele>
        <time>2019-04-30T08:38:10Z</time>
      </trkpt>
      <trkpt lat="45.58275" lon="6.0037">
        <ele>518.29</ele>
        <time>2019-04-30T08:38:20Z</time>
      </trkpt>
      <trkpt lat="45.58268" lon="6.00382">
        <ele>514.92</ele>
        <time>2019-04-30T08:38:37Z</time>
      </trkpt>
      <trkpt lat="45.58262" lon="6.00381">
        <ele>511.56</ele>
        <time>2019-04-30T08:38:51Z</time>
      </trkpt>
      <trkpt lat="45.5826" lon="6.00386">
        <ele>507.71</ele>
        <time>2019-04-30T08:38:56Z</time>
      </trkpt>
      <trkpt lat="45.5826" lon="6.00386">
        <ele>513</ele>
        <time>2019-04-30T08:38:57Z</time>
      </trkpt>
      <trkpt lat="45.58258" lon="6.00387">
        <ele>509.64</ele>
        <time>2019-04-30T08:39:01Z</time>
      </trkpt>
      <trkpt lat="45.58253" lon="6.00378">
        <ele>507.23</ele>
        <time>2019-04-30T08:39:15Z</time>
      </trkpt>
      <trkpt lat="45.5825" lon="6.00381">
        <ele>505.31</ele>
        <time>2019-04-30T08:39:23Z</time>
      </trkpt>
      <trkpt lat="45.58248" lon="6.00386">
        <ele>502.43</ele>
        <time>2019-04-30T08:39:42Z</time>
      </trkpt>
      <trkpt lat="45.58244" lon="6.00396">
        <ele>499.54</ele>
        <time>2019-04-30T08:39:54Z</time>
      </trkpt>
      <trkpt lat="45.58244" lon="6.00397">
        <ele>499.06</ele>
        <time>2019-04-30T08:39:55Z</time>
      </trkpt>
      <trkpt lat="45.58242" lon="6.00416">
        <ele>498.1</ele>
        <time>2019-04-30T08:40:09Z</time>
      </trkpt>
      <trkpt lat="45.58244" lon="6.00433">
        <ele>496.66</ele>
        <time>2019-04-30T08:40:24Z</time>
      </trkpt>
      <trkpt lat="45.58252" lon="6.00449">
        <ele>494.26</ele>
        <time>2019-04-30T08:40:40Z</time>
      </trkpt>
      <trkpt lat="45.58258" lon="6.00461">
        <ele>494.26</ele>
        <time>2019-04-30T08:40:53Z</time>
      </trkpt>
      <trkpt lat="45.58259" lon="6.00471">
        <ele>493.29</ele>
        <time>2019-04-30T08:41:06Z</time>
      </trkpt>
      <trkpt lat="45.58259" lon="6.00473">
        <ele>492.81</ele>
        <time>2019-04-30T08:41:13Z</time>
      </trkpt>
      <trkpt lat="45.58259" lon="6.00476">
        <ele>493.29</ele>
        <time>2019-04-30T08:41:24Z</time>
      </trkpt>
      <trkpt lat="45.58256" lon="6.00489">
        <ele>493.77</ele>
        <time>2019-04-30T08:41:34Z</time>
      </trkpt>
      <trkpt lat="45.58253" lon="6.00501">
        <ele>494.26</ele>
        <time>2019-04-30T08:41:46Z</time>
      </trkpt>
      <trkpt lat="45.58249" lon="6.00517">
        <ele>494.26</ele>
        <time>2019-04-30T08:41:52Z</time>
      </trkpt>
      <trkpt lat="45.58245" lon="6.00534">
        <ele>493.29</ele>
        <time>2019-04-30T08:42:01Z</time>
      </trkpt>
      <trkpt lat="45.58239" lon="6.00546">
        <ele>493.29</ele>
        <time>2019-04-30T08:42:08Z</time>
      </trkpt>
      <trkpt lat="45.58237" lon="6.00563">
        <ele>493.77</ele>
        <time>2019-04-30T08:42:20Z</time>
      </trkpt>
      <trkpt lat="45.58235" lon="6.00583">
        <ele>493.77</ele>
        <time>2019-04-30T08:42:30Z</time>
      </trkpt>
      <trkpt lat="45.58235" lon="6.00592">
        <ele>492.81</ele>
        <time>2019-04-30T08:42:38Z</time>
      </trkpt>
      <trkpt lat="45.58236" lon="6.00626">
        <ele>491.85</ele>
        <time>2019-04-30T08:42:52Z</time>
      </trkpt>
      <trkpt lat="45.58237" lon="6.00631">
        <ele>491.37</ele>
        <time>2019-04-30T08:42:54Z</time>
      </trkpt>
      <trkpt lat="45.58238" lon="6.00645">
        <ele>490.41</ele>
        <time>2019-04-30T08:43:07Z</time>
      </trkpt>
      <trkpt lat="45.58238" lon="6.0065">
        <ele>490.89</ele>
        <time>2019-04-30T08:43:10Z</time>
      </trkpt>
      <trkpt lat="45.5824" lon="6.00658">
        <ele>490.41</ele>
        <time>2019-04-30T08:43:14Z</time>
      </trkpt>
      <trkpt lat="45.58237" lon="6.00673">
        <ele>490.89</ele>
        <time>2019-04-30T08:43:22Z</time>
      </trkpt>
      <trkpt lat="45.58236" lon="6.00687">
        <ele>490.41</ele>
        <time>2019-04-30T08:43:33Z</time>
      </trkpt>
      <trkpt lat="45.58235" lon="6.00693">
        <ele>490.41</ele>
        <time>2019-04-30T08:43:46Z</time>
      </trkpt>
      <trkpt lat="45.58234" lon="6.00696">
        <ele>490.41</ele>
        <time>2019-04-30T08:44:04Z</time>
      </trkpt>
      <trkpt lat="45.58235" lon="6.00697">
        <ele>490.41</ele>
        <time>2019-04-30T08:44:31Z</time>
      </trkpt>
      <trkpt lat="45.58235" lon="6.00697">
        <ele>490.41</ele>
        <time>2019-04-30T08:44:52Z</time>
      </trkpt>
      <trkpt lat="45.58235" lon="6.00698">
        <ele>489.93</ele>
        <time>2019-04-30T08:45:23Z</time>
      </trkpt>
      <trkpt lat="45.58235" lon="6.00699">
        <ele>489.93</ele>
        <time>2019-04-30T08:45:48Z</time>
      </trkpt>
      <trkpt lat="45.58235" lon="6.00701">
        <ele>489.93</ele>
        <time>2019-04-30T08:46:10Z</time>
      </trkpt>
      <trkpt lat="45.58234" lon="6.00709">
        <ele>490.41</ele>
        <time>2019-04-30T08:46:16Z</time>
      </trkpt>
      <trkpt lat="45.58234" lon="6.00721">
        <ele>490.41</ele>
        <time>2019-04-30T08:46:23Z</time>
      </trkpt>
      <trkpt lat="45.58237" lon="6.00736">
        <ele>490.41</ele>
        <time>2019-04-30T08:46:35Z</time>
      </trkpt>
      <trkpt lat="45.58237" lon="6.00737">
        <ele>490.41</ele>
        <time>2019-04-30T08:46:36Z</time>
      </trkpt>
      <trkpt lat="45.58239" lon="6.00746">
        <ele>490.89</ele>
        <time>2019-04-30T08:46:43Z</time>
      </trkpt>
      <trkpt lat="45.58244" lon="6.00763">
        <ele>490.89</ele>
        <time>2019-04-30T08:46:56Z</time>
      </trkpt>
      <trkpt lat="45.58249" lon="6.0078">
        <ele>491.85</ele>
        <time>2019-04-30T08:47:10Z</time>
      </trkpt>
      <trkpt lat="45.58253" lon="6.00788">
        <ele>491.85</ele>
        <time>2019-04-30T08:47:21Z</time>
      </trkpt>
      <trkpt lat="45.58256" lon="6.00797">
        <ele>491.85</ele>
        <time>2019-04-30T08:47:32Z</time>
      </trkpt>
      <trkpt lat="45.58264" lon="6.00806">
        <ele>491.85</ele>
        <time>2019-04-30T08:47:45Z</time>
      </trkpt>
      <trkpt lat="45.58276" lon="6.00816">
        <ele>492.33</ele>
        <time>2019-04-30T08:47:53Z</time>
      </trkpt>
      <trkpt lat="45.58281" lon="6.0082">
        <ele>492.33</ele>
        <time>2019-04-30T08:47:58Z</time>
      </trkpt>
      <trkpt lat="45.58288" lon="6.00848">
        <ele>492.33</ele>
        <time>2019-04-30T08:48:08Z</time>
      </trkpt>
      <trkpt lat="45.5829" lon="6.00852">
        <ele>492.33</ele>
        <time>2019-04-30T08:48:11Z</time>
      </trkpt>
      <trkpt lat="45.58298" lon="6.00875">
        <ele>493.77</ele>
        <time>2019-04-30T08:48:26Z</time>
      </trkpt>
      <trkpt lat="45.58311" lon="6.00891">
        <ele>494.26</ele>
        <time>2019-04-30T08:48:38Z</time>
      </trkpt>
      <trkpt lat="45.58319" lon="6.009">
        <ele>495.22</ele>
        <time>2019-04-30T08:48:48Z</time>
      </trkpt>
      <trkpt lat="45.58328" lon="6.0091">
        <ele>495.22</ele>
        <time>2019-04-30T08:48:59Z</time>
      </trkpt>
      <trkpt lat="45.58336" lon="6.00917">
        <ele>495.7</ele>
        <time>2019-04-30T08:49:14Z</time>
      </trkpt>
      <trkpt lat="45.58348" lon="6.00936">
        <ele>495.7</ele>
        <time>2019-04-30T08:49:28Z</time>
      </trkpt>
      <trkpt lat="45.5836" lon="6.00947">
        <ele>496.18</ele>
        <time>2019-04-30T08:49:42Z</time>
      </trkpt>
      <trkpt lat="45.58368" lon="6.00962">
        <ele>497.62</ele>
        <time>2019-04-30T08:49:56Z</time>
      </trkpt>
      <trkpt lat="45.58382" lon="6.00971">
        <ele>500.5</ele>
        <time>2019-04-30T08:50:03Z</time>
      </trkpt>
      <trkpt lat="45.58387" lon="6.0099">
        <ele>500.02</ele>
        <time>2019-04-30T08:50:18Z</time>
      </trkpt>
      <trkpt lat="45.58388" lon="6.00999">
        <ele>497.62</ele>
        <time>2019-04-30T08:50:24Z</time>
      </trkpt>
      <trkpt lat="45.58388" lon="6.01017">
        <ele>502.43</ele>
        <time>2019-04-30T08:50:37Z</time>
      </trkpt>
      <trkpt lat="45.58385" lon="6.01036">
        <ele>504.35</ele>
        <time>2019-04-30T08:50:50Z</time>
      </trkpt>
      <trkpt lat="45.58386" lon="6.01041">
        <ele>505.31</ele>
        <time>2019-04-30T08:51:06Z</time>
      </trkpt>
      <trkpt lat="45.58386" lon="6.01042">
        <ele>500.02</ele>
        <time>2019-04-30T08:51:12Z</time>
      </trkpt>
      <trkpt lat="45.58386" lon="6.01043">
        <ele>509.64</ele>
        <time>2019-04-30T08:51:13Z</time>
      </trkpt>
      <trkpt lat="45.58386" lon="6.01044">
        <ele>505.31</ele>
        <time>2019-04-30T08:51:14Z</time>
      </trkpt>
      <trkpt lat="45.58386" lon="6.01046">
        <ele>504.35</ele>
        <time>2019-04-30T08:51:29Z</time>
      </trkpt>
      <trkpt lat="45.58386" lon="6.01045">
        <ele>504.35</ele>
        <time>2019-04-30T08:51:43Z</time>
      </trkpt>
      <trkpt lat="45.58383" lon="6.01047">
        <ele>503.87</ele>
        <time>2019-04-30T08:51:47Z</time>
      </trkpt>
      <trkpt lat="45.58377" lon="6.01051">
        <ele>501.95</ele>
        <time>2019-04-30T08:51:55Z</time>
      </trkpt>
      <trkpt lat="45.5837" lon="6.01055">
        <ele>500.5</ele>
        <time>2019-04-30T08:52:02Z</time>
      </trkpt>
      <trkpt lat="45.58358" lon="6.0106">
        <ele>499.54</ele>
        <time>2019-04-30T08:52:16Z</time>
      </trkpt>
      <trkpt lat="45.5835" lon="6.01065">
        <ele>498.58</ele>
        <time>2019-04-30T08:52:29Z</time>
      </trkpt>
      <trkpt lat="45.58346" lon="6.01073">
        <ele>500.02</ele>
        <time>2019-04-30T08:52:41Z</time>
      </trkpt>
      <trkpt lat="45.58345" lon="6.01076">
        <ele>498.58</ele>
        <time>2019-04-30T08:52:43Z</time>
      </trkpt>
      <trkpt lat="45.58343" lon="6.01079">
        <ele>499.06</ele>
        <time>2019-04-30T08:52:45Z</time>
      </trkpt>
      <trkpt lat="45.58331" lon="6.01083">
        <ele>499.06</ele>
        <time>2019-04-30T08:52:56Z</time>
      </trkpt>
      <trkpt lat="45.58323" lon="6.01087">
        <ele>500.98</ele>
        <time>2019-04-30T08:53:08Z</time>
      </trkpt>
      <trkpt lat="45.58315" lon="6.01086">
        <ele>501.95</ele>
        <time>2019-04-30T08:53:19Z</time>
      </trkpt>
      <trkpt lat="45.58302" lon="6.01092">
        <ele>503.87</ele>
        <time>2019-04-30T08:53:31Z</time>
      </trkpt>
      <trkpt lat="45.58295" lon="6.01095">
        <ele>504.83</ele>
        <time>2019-04-30T08:53:44Z</time>
      </trkpt>
      <trkpt lat="45.58282" lon="6.01098">
        <ele>505.79</ele>
        <time>2019-04-30T08:53:54Z</time>
      </trkpt>
      <trkpt lat="45.58273" lon="6.01098">
        <ele>509.64</ele>
        <time>2019-04-30T08:54:04Z</time>
      </trkpt>
      <trkpt lat="45.58268" lon="6.01095">
        <ele>506.75</ele>
        <time>2019-04-30T08:54:12Z</time>
      </trkpt>
      <trkpt lat="45.5826" lon="6.01087">
        <ele>506.75</ele>
        <time>2019-04-30T08:54:23Z</time>
      </trkpt>
      <trkpt lat="45.58259" lon="6.01087">
        <ele>506.27</ele>
        <time>2019-04-30T08:54:24Z</time>
      </trkpt>
      <trkpt lat="45.5825" lon="6.01081">
        <ele>506.27</ele>
        <time>2019-04-30T08:54:38Z</time>
      </trkpt>
      <trkpt lat="45.58242" lon="6.01081">
        <ele>508.19</ele>
        <time>2019-04-30T08:54:53Z</time>
      </trkpt>
      <trkpt lat="45.58232" lon="6.01087">
        <ele>509.64</ele>
        <time>2019-04-30T08:55:07Z</time>
      </trkpt>
      <trkpt lat="45.58225" lon="6.01093">
        <ele>510.12</ele>
        <time>2019-04-30T08:55:20Z</time>
      </trkpt>
      <trkpt lat="45.58219" lon="6.01097">
        <ele>511.08</ele>
        <time>2019-04-30T08:55:48Z</time>
      </trkpt>
      <trkpt lat="45.58218" lon="6.01097">
        <ele>510.12</ele>
        <time>2019-04-30T08:56:05Z</time>
      </trkpt>
      <trkpt lat="45.58219" lon="6.01096">
        <ele>510.6</ele>
        <time>2019-04-30T08:56:21Z</time>
      </trkpt>
      <trkpt lat="45.58219" lon="6.01096">
        <ele>510.12</ele>
        <time>2019-04-30T08:56:48Z</time>
      </trkpt>
      <trkpt lat="45.58219" lon="6.01096">
        <ele>510.12</ele>
        <time>2019-04-30T08:57:13Z</time>
      </trkpt>
      <trkpt lat="45.58219" lon="6.01096">
        <ele>510.12</ele>
        <time>2019-04-30T08:57:37Z</time>
      </trkpt>
      <trkpt lat="45.58219" lon="6.01097">
        <ele>510.12</ele>
        <time>2019-04-30T08:57:59Z</time>
      </trkpt>
      <trkpt lat="45.5822" lon="6.01094">
        <ele>509.64</ele>
        <time>2019-04-30T08:58:20Z</time>
      </trkpt>
      <trkpt lat="45.58224" lon="6.01085">
        <ele>507.23</ele>
        <time>2019-04-30T08:58:35Z</time>
      </trkpt>
      <trkpt lat="45.58226" lon="6.01083">
        <ele>506.75</ele>
        <time>2019-04-30T08:58:37Z</time>
      </trkpt>
      <trkpt lat="45.58232" lon="6.01076">
        <ele>504.35</ele>
        <time>2019-04-30T08:58:51Z</time>
      </trkpt>
      <trkpt lat="45.58236" lon="6.01072">
        <ele>500.98</ele>
        <time>2019-04-30T08:59:03Z</time>
      </trkpt>
      <trkpt lat="45.58246" lon="6.01071">
        <ele>498.1</ele>
        <time>2019-04-30T08:59:16Z</time>
      </trkpt>
      <trkpt lat="45.58249" lon="6.01068">
        <ele>497.14</ele>
        <time>2019-04-30T08:59:19Z</time>
      </trkpt>
      <trkpt lat="45.58259" lon="6.01066">
        <ele>494.26</ele>
        <time>2019-04-30T08:59:36Z</time>
      </trkpt>
      <trkpt lat="45.58255" lon="6.01058">
        <ele>490.89</ele>
        <time>2019-04-30T08:59:47Z</time>
      </trkpt>
      <trkpt lat="45.58259" lon="6.01051">
        <ele>488.01</ele>
        <time>2019-04-30T08:59:59Z</time>
      </trkpt>
      <trkpt lat="45.58269" lon="6.01048">
        <ele>485.12</ele>
        <time>2019-04-30T09:00:10Z</time>
      </trkpt>
      <trkpt lat="45.58276" lon="6.01041">
        <ele>481.76</ele>
        <time>2019-04-30T09:00:22Z</time>
      </trkpt>
      <trkpt lat="45.58281" lon="6.01035">
        <ele>478.87</ele>
        <time>2019-04-30T09:00:34Z</time>
      </trkpt>
      <trkpt lat="45.58278" lon="6.01034">
        <ele>476.47</ele>
        <time>2019-04-30T09:00:48Z</time>
      </trkpt>
      <trkpt lat="45.5828" lon="6.01028">
        <ele>473.59</ele>
        <time>2019-04-30T09:00:58Z</time>
      </trkpt>
      <trkpt lat="45.58281" lon="6.01023">
        <ele>472.14</ele>
        <time>2019-04-30T09:01:15Z</time>
      </trkpt>
      <trkpt lat="45.5828" lon="6.01017">
        <ele>470.22</ele>
        <time>2019-04-30T09:01:26Z</time>
      </trkpt>
      <trkpt lat="45.58274" lon="6.01013">
        <ele>466.86</ele>
        <time>2019-04-30T09:01:39Z</time>
      </trkpt>
      <trkpt lat="45.58274" lon="6.01011">
        <ele>465.9</ele>
        <time>2019-04-30T09:01:42Z</time>
      </trkpt>
      <trkpt lat="45.58264" lon="6.01006">
        <ele>462.53</ele>
        <time>2019-04-30T09:01:55Z</time>
      </trkpt>
      <trkpt lat="45.58258" lon="6.01001">
        <ele>459.65</ele>
        <time>2019-04-30T09:02:08Z</time>
      </trkpt>
      <trkpt lat="45.58238" lon="6.00983">
        <ele>456.28</ele>
        <time>2019-04-30T09:02:20Z</time>
      </trkpt>
      <trkpt lat="45.58232" lon="6.00975">
        <ele>452.92</ele>
        <time>2019-04-30T09:02:32Z</time>
      </trkpt>
      <trkpt lat="45.58224" lon="6.00968">
        <ele>449.55</ele>
        <time>2019-04-30T09:02:49Z</time>
      </trkpt>
      <trkpt lat="45.58218" lon="6.00967">
        <ele>446.67</ele>
        <time>2019-04-30T09:03:04Z</time>
      </trkpt>
      <trkpt lat="45.58211" lon="6.00967">
        <ele>443.31</ele>
        <time>2019-04-30T09:03:15Z</time>
      </trkpt>
      <trkpt lat="45.58203" lon="6.00963">
        <ele>440.42</ele>
        <time>2019-04-30T09:03:23Z</time>
      </trkpt>
      <trkpt lat="45.58194" lon="6.00963">
        <ele>438.5</ele>
        <time>2019-04-30T09:03:34Z</time>
      </trkpt>
      <trkpt lat="45.58187" lon="6.00973">
        <ele>435.13</ele>
        <time>2019-04-30T09:03:48Z</time>
      </trkpt>
      <trkpt lat="45.58186" lon="6.00969">
        <ele>433.21</ele>
        <time>2019-04-30T09:04:01Z</time>
      </trkpt>
      <trkpt lat="45.58183" lon="6.00968">
        <ele>429.85</ele>
        <time>2019-04-30T09:04:12Z</time>
      </trkpt>
      <trkpt lat="45.58182" lon="6.00969">
        <ele>428.4</ele>
        <time>2019-04-30T09:04:22Z</time>
      </trkpt>
      <trkpt lat="45.58185" lon="6.0098">
        <ele>426</ele>
        <time>2019-04-30T09:04:33Z</time>
      </trkpt>
      <trkpt lat="45.58185" lon="6.00981">
        <ele>426</ele>
        <time>2019-04-30T09:04:37Z</time>
      </trkpt>
      <trkpt lat="45.58186" lon="6.00986">
        <ele>426.48</ele>
        <time>2019-04-30T09:04:42Z</time>
      </trkpt>
      <trkpt lat="45.58186" lon="6.00999">
        <ele>423.6</ele>
        <time>2019-04-30T09:04:54Z</time>
      </trkpt>
      <trkpt lat="45.58186" lon="6.01003">
        <ele>424.08</ele>
        <time>2019-04-30T09:05:08Z</time>
      </trkpt>
      <trkpt lat="45.58185" lon="6.01003">
        <ele>421.19</ele>
        <time>2019-04-30T09:05:23Z</time>
      </trkpt>
      <trkpt lat="45.58185" lon="6.01004">
        <ele>424.56</ele>
        <time>2019-04-30T09:05:24Z</time>
      </trkpt>
      <trkpt lat="45.58183" lon="6.01019">
        <ele>425.52</ele>
        <time>2019-04-30T09:05:37Z</time>
      </trkpt>
      <trkpt lat="45.58179" lon="6.01024">
        <ele>429.37</ele>
        <time>2019-04-30T09:05:40Z</time>
      </trkpt>
      <trkpt lat="45.58179" lon="6.01025">
        <ele>426</ele>
        <time>2019-04-30T09:05:41Z</time>
      </trkpt>
      <trkpt lat="45.58171" lon="6.01039">
        <ele>426.48</ele>
        <time>2019-04-30T09:05:52Z</time>
      </trkpt>
      <trkpt lat="45.58165" lon="6.01043">
        <ele>427.44</ele>
        <time>2019-04-30T09:06:01Z</time>
      </trkpt>
      <trkpt lat="45.58158" lon="6.01046">
        <ele>429.37</ele>
        <time>2019-04-30T09:06:12Z</time>
      </trkpt>
      <trkpt lat="45.58147" lon="6.01041">
        <ele>431.29</ele>
        <time>2019-04-30T09:06:24Z</time>
      </trkpt>
      <trkpt lat="45.58146" lon="6.01042">
        <ele>433.21</ele>
        <time>2019-04-30T09:06:39Z</time>
      </trkpt>
      <trkpt lat="45.58146" lon="6.01043">
        <ele>435.61</ele>
        <time>2019-04-30T09:06:52Z</time>
      </trkpt>
      <trkpt lat="45.58143" lon="6.01045">
        <ele>437.54</ele>
        <time>2019-04-30T09:07:07Z</time>
      </trkpt>
      <trkpt lat="45.5814" lon="6.01047">
        <ele>440.9</ele>
        <time>2019-04-30T09:07:23Z</time>
      </trkpt>
      <trkpt lat="45.5814" lon="6.01047">
        <ele>440.9</ele>
        <time>2019-04-30T09:07:24Z</time>
      </trkpt>
      <trkpt lat="45.58135" lon="6.01057">
        <ele>440.9</ele>
        <time>2019-04-30T09:07:33Z</time>
      </trkpt>
      <trkpt lat="45.58129" lon="6.01067">
        <ele>440.42</ele>
        <time>2019-04-30T09:07:39Z</time>
      </trkpt>
      <trkpt lat="45.5812" lon="6.01079">
        <ele>440.9</ele>
        <time>2019-04-30T09:07:52Z</time>
      </trkpt>
      <trkpt lat="45.58113" lon="6.01079">
        <ele>438.98</ele>
        <time>2019-04-30T09:08:04Z</time>
      </trkpt>
      <trkpt lat="45.58102" lon="6.01077">
        <ele>437.06</ele>
        <time>2019-04-30T09:08:13Z</time>
      </trkpt>
      <trkpt lat="45.58089" lon="6.01076">
        <ele>435.61</ele>
        <time>2019-04-30T09:08:27Z</time>
      </trkpt>
      <trkpt lat="45.58079" lon="6.01066">
        <ele>433.69</ele>
        <time>2019-04-30T09:08:39Z</time>
      </trkpt>
      <trkpt lat="45.58067" lon="6.01061">
        <ele>435.13</ele>
        <time>2019-04-30T09:08:53Z</time>
      </trkpt>
      <trkpt lat="45.58058" lon="6.01061">
        <ele>433.69</ele>
        <time>2019-04-30T09:09:09Z</time>
      </trkpt>
      <trkpt lat="45.58052" lon="6.01053">
        <ele>430.81</ele>
        <time>2019-04-30T09:09:24Z</time>
      </trkpt>
      <trkpt lat="45.58048" lon="6.01046">
        <ele>428.89</ele>
        <time>2019-04-30T09:09:34Z</time>
      </trkpt>
      <trkpt lat="45.58047" lon="6.01047">
        <ele>429.37</ele>
        <time>2019-04-30T09:09:35Z</time>
      </trkpt>
      <trkpt lat="45.58044" lon="6.01049">
        <ele>426</ele>
        <time>2019-04-30T09:09:48Z</time>
      </trkpt>
      <trkpt lat="45.58043" lon="6.01051">
        <ele>424.08</ele>
        <time>2019-04-30T09:09:58Z</time>
      </trkpt>
      <trkpt lat="45.58039" lon="6.01045">
        <ele>423.6</ele>
        <time>2019-04-30T09:10:07Z</time>
      </trkpt>
      <trkpt lat="45.58039" lon="6.01041">
        <ele>422.64</ele>
        <time>2019-04-30T09:10:18Z</time>
      </trkpt>
      <trkpt lat="45.58037" lon="6.01035">
        <ele>421.68</ele>
        <time>2019-04-30T09:10:28Z</time>
      </trkpt>
      <trkpt lat="45.58031" lon="6.0103">
        <ele>420.71</ele>
        <time>2019-04-30T09:10:40Z</time>
      </trkpt>
      <trkpt lat="45.58025" lon="6.01023">
        <ele>420.71</ele>
        <time>2019-04-30T09:10:58Z</time>
      </trkpt>
      <trkpt lat="45.58022" lon="6.01016">
        <ele>421.19</ele>
        <time>2019-04-30T09:11:11Z</time>
      </trkpt>
      <trkpt lat="45.58021" lon="6.01009">
        <ele>421.68</ele>
        <time>2019-04-30T09:11:24Z</time>
      </trkpt>
      <trkpt lat="45.58021" lon="6.01007">
        <ele>421.68</ele>
        <time>2019-04-30T09:11:26Z</time>
      </trkpt>
      <trkpt lat="45.58023" lon="6.01006">
        <ele>416.87</ele>
        <time>2019-04-30T09:11:28Z</time>
      </trkpt>
      <trkpt lat="45.58024" lon="6.01004">
        <ele>426</ele>
        <time>2019-04-30T09:11:29Z</time>
      </trkpt>
      <trkpt lat="45.58024" lon="6.01003">
        <ele>422.16</ele>
        <time>2019-04-30T09:11:30Z</time>
      </trkpt>
      <trkpt lat="45.58024" lon="6.00998">
        <ele>422.16</ele>
        <time>2019-04-30T09:11:40Z</time>
      </trkpt>
      <trkpt lat="45.58021" lon="6.01">
        <ele>424.08</ele>
        <time>2019-04-30T09:11:54Z</time>
      </trkpt>
      <trkpt lat="45.58022" lon="6.01001">
        <ele>425.04</ele>
        <time>2019-04-30T09:12:08Z</time>
      </trkpt>
      <trkpt lat="45.58016" lon="6.01003">
        <ele>426.96</ele>
        <time>2019-04-30T09:12:27Z</time>
      </trkpt>
      <trkpt lat="45.58014" lon="6.01002">
        <ele>427.92</ele>
        <time>2019-04-30T09:12:32Z</time>
      </trkpt>
      <trkpt lat="45.58013" lon="6.00993">
        <ele>423.6</ele>
        <time>2019-04-30T09:12:41Z</time>
      </trkpt>
      <trkpt lat="45.58013" lon="6.00992">
        <ele>433.69</ele>
        <time>2019-04-30T09:12:42Z</time>
      </trkpt>
      <trkpt lat="45.58013" lon="6.00992">
        <ele>430.33</ele>
        <time>2019-04-30T09:12:43Z</time>
      </trkpt>
      <trkpt lat="45.58014" lon="6.00988">
        <ele>424.56</ele>
        <time>2019-04-30T09:12:47Z</time>
      </trkpt>
      <trkpt lat="45.58014" lon="6.00987">
        <ele>434.17</ele>
        <time>2019-04-30T09:12:48Z</time>
      </trkpt>
      <trkpt lat="45.58014" lon="6.00986">
        <ele>429.37</ele>
        <time>2019-04-30T09:12:49Z</time>
      </trkpt>
      <trkpt lat="45.58013" lon="6.00982">
        <ele>433.69</ele>
        <time>2019-04-30T09:13:00Z</time>
      </trkpt>
      <trkpt lat="45.58005" lon="6.00989">
        <ele>433.69</ele>
        <time>2019-04-30T09:13:12Z</time>
      </trkpt>
      <trkpt lat="45.58" lon="6.00995">
        <ele>435.13</ele>
        <time>2019-04-30T09:13:24Z</time>
      </trkpt>
      <trkpt lat="45.57995" lon="6.01001">
        <ele>437.06</ele>
        <time>2019-04-30T09:13:35Z</time>
      </trkpt>
      <trkpt lat="45.57995" lon="6.00992">
        <ele>438.98</ele>
        <time>2019-04-30T09:13:50Z</time>
      </trkpt>
      <trkpt lat="45.57995" lon="6.00984">
        <ele>440.9</ele>
        <time>2019-04-30T09:14:04Z</time>
      </trkpt>
      <trkpt lat="45.57992" lon="6.00991">
        <ele>441.86</ele>
        <time>2019-04-30T09:14:15Z</time>
      </trkpt>
      <trkpt lat="45.57989" lon="6.00997">
        <ele>443.31</ele>
        <time>2019-04-30T09:14:26Z</time>
      </trkpt>
      <trkpt lat="45.57989" lon="6.00997">
        <ele>443.79</ele>
        <time>2019-04-30T09:14:29Z</time>
      </trkpt>
      <trkpt lat="45.57985" lon="6.00991">
        <ele>445.71</ele>
        <time>2019-04-30T09:14:41Z</time>
      </trkpt>
      <trkpt lat="45.57987" lon="6.00981">
        <ele>447.63</ele>
        <time>2019-04-30T09:14:55Z</time>
      </trkpt>
      <trkpt lat="45.57985" lon="6.00977">
        <ele>449.07</ele>
        <time>2019-04-30T09:15:08Z</time>
      </trkpt>
      <trkpt lat="45.57982" lon="6.00979">
        <ele>451</ele>
        <time>2019-04-30T09:15:21Z</time>
      </trkpt>
      <trkpt lat="45.57975" lon="6.00982">
        <ele>452.92</ele>
        <time>2019-04-30T09:15:34Z</time>
      </trkpt>
      <trkpt lat="45.57973" lon="6.00983">
        <ele>454.84</ele>
        <time>2019-04-30T09:15:46Z</time>
      </trkpt>
      <trkpt lat="45.57972" lon="6.00976">
        <ele>455.32</ele>
        <time>2019-04-30T09:15:57Z</time>
      </trkpt>
      <trkpt lat="45.57971" lon="6.00969">
        <ele>458.21</ele>
        <time>2019-04-30T09:16:15Z</time>
      </trkpt>
      <trkpt lat="45.57968" lon="6.00968">
        <ele>460.13</ele>
        <time>2019-04-30T09:16:29Z</time>
      </trkpt>
      <trkpt lat="45.57967" lon="6.00969">
        <ele>461.57</ele>
        <time>2019-04-30T09:16:44Z</time>
      </trkpt>
      <trkpt lat="45.57969" lon="6.00974">
        <ele>463.49</ele>
        <time>2019-04-30T09:16:57Z</time>
      </trkpt>
      <trkpt lat="45.57969" lon="6.00993">
        <ele>465.42</ele>
        <time>2019-04-30T09:17:11Z</time>
      </trkpt>
      <trkpt lat="45.57968" lon="6.01005">
        <ele>468.3</ele>
        <time>2019-04-30T09:17:24Z</time>
      </trkpt>
      <trkpt lat="45.57963" lon="6.01008">
        <ele>470.7</ele>
        <time>2019-04-30T09:17:37Z</time>
      </trkpt>
      <trkpt lat="45.57958" lon="6.01009">
        <ele>471.66</ele>
        <time>2019-04-30T09:17:42Z</time>
      </trkpt>
      <trkpt lat="45.57949" lon="6.01004">
        <ele>472.63</ele>
        <time>2019-04-30T09:17:56Z</time>
      </trkpt>
      <trkpt lat="45.57947" lon="6.00999">
        <ele>474.07</ele>
        <time>2019-04-30T09:18:05Z</time>
      </trkpt>
      <trkpt lat="45.57949" lon="6.01005">
        <ele>475.99</ele>
        <time>2019-04-30T09:18:17Z</time>
      </trkpt>
      <trkpt lat="45.57947" lon="6.01014">
        <ele>476.95</ele>
        <time>2019-04-30T09:18:28Z</time>
      </trkpt>
      <trkpt lat="45.57939" lon="6.01008">
        <ele>478.87</ele>
        <time>2019-04-30T09:18:39Z</time>
      </trkpt>
      <trkpt lat="45.57937" lon="6.01013">
        <ele>480.8</ele>
        <time>2019-04-30T09:18:52Z</time>
      </trkpt>
      <trkpt lat="45.57934" lon="6.01019">
        <ele>481.76</ele>
        <time>2019-04-30T09:18:58Z</time>
      </trkpt>
      <trkpt lat="45.57927" lon="6.01031">
        <ele>482.72</ele>
        <time>2019-04-30T09:19:09Z</time>
      </trkpt>
      <trkpt lat="45.5792" lon="6.01047">
        <ele>483.68</ele>
        <time>2019-04-30T09:19:24Z</time>
      </trkpt>
      <trkpt lat="45.5792" lon="6.01056">
        <ele>484.64</ele>
        <time>2019-04-30T09:19:36Z</time>
      </trkpt>
      <trkpt lat="45.57919" lon="6.01076">
        <ele>486.08</ele>
        <time>2019-04-30T09:19:49Z</time>
      </trkpt>
      <trkpt lat="45.57921" lon="6.01088">
        <ele>487.53</ele>
        <time>2019-04-30T09:20:00Z</time>
      </trkpt>
      <trkpt lat="45.57926" lon="6.01101">
        <ele>490.41</ele>
        <time>2019-04-30T09:20:17Z</time>
      </trkpt>
      <trkpt lat="45.57922" lon="6.01113">
        <ele>492.33</ele>
        <time>2019-04-30T09:20:32Z</time>
      </trkpt>
      <trkpt lat="45.57917" lon="6.01121">
        <ele>493.77</ele>
        <time>2019-04-30T09:20:47Z</time>
      </trkpt>
      <trkpt lat="45.57908" lon="6.01132">
        <ele>495.7</ele>
        <time>2019-04-30T09:21:00Z</time>
      </trkpt>
      <trkpt lat="45.57903" lon="6.01138">
        <ele>498.1</ele>
        <time>2019-04-30T09:21:13Z</time>
      </trkpt>
      <trkpt lat="45.57897" lon="6.01148">
        <ele>501.46</ele>
        <time>2019-04-30T09:21:30Z</time>
      </trkpt>
      <trkpt lat="45.57888" lon="6.01153">
        <ele>502.91</ele>
        <time>2019-04-30T09:21:41Z</time>
      </trkpt>
      <trkpt lat="45.57882" lon="6.01162">
        <ele>505.31</ele>
        <time>2019-04-30T09:21:56Z</time>
      </trkpt>
      <trkpt lat="45.57879" lon="6.01169">
        <ele>507.71</ele>
        <time>2019-04-30T09:22:08Z</time>
      </trkpt>
      <trkpt lat="45.57878" lon="6.01179">
        <ele>510.12</ele>
        <time>2019-04-30T09:22:21Z</time>
      </trkpt>
      <trkpt lat="45.57885" lon="6.01178">
        <ele>512.04</ele>
        <time>2019-04-30T09:22:37Z</time>
      </trkpt>
      <trkpt lat="45.5789" lon="6.01181">
        <ele>514.44</ele>
        <time>2019-04-30T09:22:49Z</time>
      </trkpt>
      <trkpt lat="45.57896" lon="6.01186">
        <ele>516.37</ele>
        <time>2019-04-30T09:23:03Z</time>
      </trkpt>
      <trkpt lat="45.57903" lon="6.01189">
        <ele>518.77</ele>
        <time>2019-04-30T09:23:18Z</time>
      </trkpt>
      <trkpt lat="45.57908" lon="6.01187">
        <ele>521.17</ele>
        <time>2019-04-30T09:23:32Z</time>
      </trkpt>
      <trkpt lat="45.57914" lon="6.01185">
        <ele>523.09</ele>
        <time>2019-04-30T09:23:44Z</time>
      </trkpt>
      <trkpt lat="45.57921" lon="6.01186">
        <ele>525.5</ele>
        <time>2019-04-30T09:23:58Z</time>
      </trkpt>
      <trkpt lat="45.57928" lon="6.01192">
        <ele>527.9</ele>
        <time>2019-04-30T09:24:12Z</time>
      </trkpt>
      <trkpt lat="45.57932" lon="6.012">
        <ele>530.3</ele>
        <time>2019-04-30T09:24:24Z</time>
      </trkpt>
      <trkpt lat="45.57931" lon="6.01208">
        <ele>531.75</ele>
        <time>2019-04-30T09:24:34Z</time>
      </trkpt>
      <trkpt lat="45.57929" lon="6.01213">
        <ele>533.19</ele>
        <time>2019-04-30T09:24:40Z</time>
      </trkpt>
      <trkpt lat="45.57926" lon="6.01224">
        <ele>535.11</ele>
        <time>2019-04-30T09:24:53Z</time>
      </trkpt>
      <trkpt lat="45.57918" lon="6.01234">
        <ele>537.51</ele>
        <time>2019-04-30T09:25:08Z</time>
      </trkpt>
      <trkpt lat="45.5791" lon="6.01239">
        <ele>539.44</ele>
        <time>2019-04-30T09:25:20Z</time>
      </trkpt>
      <trkpt lat="45.57904" lon="6.01237">
        <ele>541.84</ele>
        <time>2019-04-30T09:25:33Z</time>
      </trkpt>
      <trkpt lat="45.57902" lon="6.0124">
        <ele>544.72</ele>
        <time>2019-04-30T09:25:49Z</time>
      </trkpt>
      <trkpt lat="45.57899" lon="6.01244">
        <ele>547.61</ele>
        <time>2019-04-30T09:26:04Z</time>
      </trkpt>
      <trkpt lat="45.57892" lon="6.01255">
        <ele>550.01</ele>
        <time>2019-04-30T09:26:18Z</time>
      </trkpt>
      <trkpt lat="45.57889" lon="6.01265">
        <ele>551.45</ele>
        <time>2019-04-30T09:26:31Z</time>
      </trkpt>
      <trkpt lat="45.57889" lon="6.01275">
        <ele>554.34</ele>
        <time>2019-04-30T09:26:46Z</time>
      </trkpt>
      <trkpt lat="45.57888" lon="6.01286">
        <ele>556.26</ele>
        <time>2019-04-30T09:26:58Z</time>
      </trkpt>
      <trkpt lat="45.57886" lon="6.01291">
        <ele>558.66</ele>
        <time>2019-04-30T09:27:10Z</time>
      </trkpt>
      <trkpt lat="45.5788" lon="6.01303">
        <ele>560.59</ele>
        <time>2019-04-30T09:27:24Z</time>
      </trkpt>
      <trkpt lat="45.57875" lon="6.01314">
        <ele>562.99</ele>
        <time>2019-04-30T09:27:37Z</time>
      </trkpt>
      <trkpt lat="45.57873" lon="6.01321">
        <ele>564.91</ele>
        <time>2019-04-30T09:27:51Z</time>
      </trkpt>
      <trkpt lat="45.5787" lon="6.01327">
        <ele>567.32</ele>
        <time>2019-04-30T09:28:05Z</time>
      </trkpt>
      <trkpt lat="45.57868" lon="6.01334">
        <ele>569.24</ele>
        <time>2019-04-30T09:28:16Z</time>
      </trkpt>
      <trkpt lat="45.57862" lon="6.01353">
        <ele>571.64</ele>
        <time>2019-04-30T09:28:28Z</time>
      </trkpt>
      <trkpt lat="45.57858" lon="6.01368">
        <ele>574.53</ele>
        <time>2019-04-30T09:28:41Z</time>
      </trkpt>
      <trkpt lat="45.57855" lon="6.01376">
        <ele>574.53</ele>
        <time>2019-04-30T09:28:55Z</time>
      </trkpt>
      <trkpt lat="45.57853" lon="6.01379">
        <ele>574.04</ele>
        <time>2019-04-30T09:29:15Z</time>
      </trkpt>
      <trkpt lat="45.57852" lon="6.01381">
        <ele>574.53</ele>
        <time>2019-04-30T09:29:40Z</time>
      </trkpt>
      <trkpt lat="45.57852" lon="6.01382">
        <ele>574.04</ele>
        <time>2019-04-30T09:30:09Z</time>
      </trkpt>
      <trkpt lat="45.57852" lon="6.01383">
        <ele>574.04</ele>
        <time>2019-04-30T09:30:35Z</time>
      </trkpt>
      <trkpt lat="45.57851" lon="6.01384">
        <ele>574.04</ele>
        <time>2019-04-30T09:30:54Z</time>
      </trkpt>
      <trkpt lat="45.57851" lon="6.01384">
        <ele>574.04</ele>
        <time>2019-04-30T09:31:18Z</time>
      </trkpt>
      <trkpt lat="45.57851" lon="6.01384">
        <ele>574.04</ele>
        <time>2019-04-30T09:31:47Z</time>
      </trkpt>
      <trkpt lat="45.5785" lon="6.01384">
        <ele>574.04</ele>
        <time>2019-04-30T09:32:16Z</time>
      </trkpt>
      <trkpt lat="45.5785" lon="6.01384">
        <ele>574.04</ele>
        <time>2019-04-30T09:32:51Z</time>
      </trkpt>
      <trkpt lat="45.57849" lon="6.01383">
        <ele>574.04</ele>
        <time>2019-04-30T09:33:22Z</time>
      </trkpt>
      <trkpt lat="45.57848" lon="6.01384">
        <ele>574.53</ele>
        <time>2019-04-30T09:33:53Z</time>
      </trkpt>
      <trkpt lat="45.57848" lon="6.01385">
        <ele>574.04</ele>
        <time>2019-04-30T09:34:31Z</time>
      </trkpt>
      <trkpt lat="45.57849" lon="6.01385">
        <ele>574.04</ele>
        <time>2019-04-30T09:35:01Z</time>
      </trkpt>
      <trkpt lat="45.57849" lon="6.01385">
        <ele>574.53</ele>
        <time>2019-04-30T09:35:22Z</time>
      </trkpt>
      <trkpt lat="45.57849" lon="6.01385">
        <ele>574.53</ele>
        <time>2019-04-30T09:35:50Z</time>
      </trkpt>
      <trkpt lat="45.57849" lon="6.01385">
        <ele>574.53</ele>
        <time>2019-04-30T09:36:13Z</time>
      </trkpt>
      <trkpt lat="45.57849" lon="6.01386">
        <ele>574.04</ele>
        <time>2019-04-30T09:36:30Z</time>
      </trkpt>
      <trkpt lat="45.57847" lon="6.01392">
        <ele>574.04</ele>
        <time>2019-04-30T09:36:44Z</time>
      </trkpt>
      <trkpt lat="45.57839" lon="6.01403">
        <ele>575.49</ele>
        <time>2019-04-30T09:37:00Z</time>
      </trkpt>
      <trkpt lat="45.5783" lon="6.01421">
        <ele>577.41</ele>
        <time>2019-04-30T09:37:15Z</time>
      </trkpt>
      <trkpt lat="45.57822" lon="6.01434">
        <ele>577.89</ele>
        <time>2019-04-30T09:37:25Z</time>
      </trkpt>
      <trkpt lat="45.57814" lon="6.01449">
        <ele>579.33</ele>
        <time>2019-04-30T09:37:39Z</time>
      </trkpt>
      <trkpt lat="45.57803" lon="6.01456">
        <ele>580.29</ele>
        <time>2019-04-30T09:37:50Z</time>
      </trkpt>
      <trkpt lat="45.57801" lon="6.01459">
        <ele>580.77</ele>
        <time>2019-04-30T09:37:53Z</time>
      </trkpt>
      <trkpt lat="45.57791" lon="6.01471">
        <ele>582.22</ele>
        <time>2019-04-30T09:38:06Z</time>
      </trkpt>
      <trkpt lat="45.57781" lon="6.01478">
        <ele>583.18</ele>
        <time>2019-04-30T09:38:17Z</time>
      </trkpt>
      <trkpt lat="45.57772" lon="6.01486">
        <ele>585.1</ele>
        <time>2019-04-30T09:38:29Z</time>
      </trkpt>
      <trkpt lat="45.5776" lon="6.01498">
        <ele>587.5</ele>
        <time>2019-04-30T09:38:43Z</time>
      </trkpt>
      <trkpt lat="45.5775" lon="6.01501">
        <ele>588.95</ele>
        <time>2019-04-30T09:38:56Z</time>
      </trkpt>
      <trkpt lat="45.57743" lon="6.01501">
        <ele>592.31</ele>
        <time>2019-04-30T09:39:03Z</time>
      </trkpt>
      <trkpt lat="45.57738" lon="6.01502">
        <ele>590.39</ele>
        <time>2019-04-30T09:39:08Z</time>
      </trkpt>
      <trkpt lat="45.57735" lon="6.01504">
        <ele>591.35</ele>
        <time>2019-04-30T09:39:11Z</time>
      </trkpt>
      <trkpt lat="45.57723" lon="6.01507">
        <ele>592.79</ele>
        <time>2019-04-30T09:39:26Z</time>
      </trkpt>
      <trkpt lat="45.57719" lon="6.01508">
        <ele>593.27</ele>
        <time>2019-04-30T09:39:31Z</time>
      </trkpt>
      <trkpt lat="45.57716" lon="6.0151">
        <ele>593.75</ele>
        <time>2019-04-30T09:39:35Z</time>
      </trkpt>
      <trkpt lat="45.57712" lon="6.01511">
        <ele>594.23</ele>
        <time>2019-04-30T09:39:38Z</time>
      </trkpt>
      <trkpt lat="45.57704" lon="6.01514">
        <ele>595.67</ele>
        <time>2019-04-30T09:39:48Z</time>
      </trkpt>
      <trkpt lat="45.57701" lon="6.01514">
        <ele>596.15</ele>
        <time>2019-04-30T09:39:51Z</time>
      </trkpt>
      <trkpt lat="45.57696" lon="6.01516">
        <ele>597.6</ele>
        <time>2019-04-30T09:40:01Z</time>
      </trkpt>
      <trkpt lat="45.57692" lon="6.01517">
        <ele>597.6</ele>
        <time>2019-04-30T09:40:04Z</time>
      </trkpt>
      <trkpt lat="45.5768" lon="6.01519">
        <ele>600.48</ele>
        <time>2019-04-30T09:40:17Z</time>
      </trkpt>
      <trkpt lat="45.57678" lon="6.01521">
        <ele>600.48</ele>
        <time>2019-04-30T09:40:19Z</time>
      </trkpt>
      <trkpt lat="45.57671" lon="6.01525">
        <ele>601.44</ele>
        <time>2019-04-30T09:40:26Z</time>
      </trkpt>
      <trkpt lat="45.57666" lon="6.01531">
        <ele>602.4</ele>
        <time>2019-04-30T09:40:36Z</time>
      </trkpt>
      <trkpt lat="45.57663" lon="6.01534">
        <ele>602.88</ele>
        <time>2019-04-30T09:40:39Z</time>
      </trkpt>
      <trkpt lat="45.57661" lon="6.01541">
        <ele>604.33</ele>
        <time>2019-04-30T09:40:48Z</time>
      </trkpt>
      <trkpt lat="45.57658" lon="6.0155">
        <ele>605.29</ele>
        <time>2019-04-30T09:40:57Z</time>
      </trkpt>
      <trkpt lat="45.57655" lon="6.01559">
        <ele>606.73</ele>
        <time>2019-04-30T09:41:05Z</time>
      </trkpt>
      <trkpt lat="45.57651" lon="6.0157">
        <ele>608.17</ele>
        <time>2019-04-30T09:41:16Z</time>
      </trkpt>
      <trkpt lat="45.57645" lon="6.01584">
        <ele>609.61</ele>
        <time>2019-04-30T09:41:28Z</time>
      </trkpt>
      <trkpt lat="45.57642" lon="6.01594">
        <ele>611.06</ele>
        <time>2019-04-30T09:41:38Z</time>
      </trkpt>
      <trkpt lat="45.57639" lon="6.01601">
        <ele>612.02</ele>
        <time>2019-04-30T09:41:45Z</time>
      </trkpt>
      <trkpt lat="45.57632" lon="6.01611">
        <ele>613.94</ele>
        <time>2019-04-30T09:41:58Z</time>
      </trkpt>
      <trkpt lat="45.57629" lon="6.01614">
        <ele>615.38</ele>
        <time>2019-04-30T09:42:10Z</time>
      </trkpt>
      <trkpt lat="45.57629" lon="6.01614">
        <ele>615.86</ele>
        <time>2019-04-30T09:42:11Z</time>
      </trkpt>
      <trkpt lat="45.57626" lon="6.01617">
        <ele>616.34</ele>
        <time>2019-04-30T09:42:14Z</time>
      </trkpt>
      <trkpt lat="45.57615" lon="6.01625">
        <ele>617.78</ele>
        <time>2019-04-30T09:42:25Z</time>
      </trkpt>
      <trkpt lat="45.57605" lon="6.01635">
        <ele>619.23</ele>
        <time>2019-04-30T09:42:36Z</time>
      </trkpt>
      <trkpt lat="45.57599" lon="6.0164">
        <ele>620.19</ele>
        <time>2019-04-30T09:42:42Z</time>
      </trkpt>
      <trkpt lat="45.57598" lon="6.01641">
        <ele>620.67</ele>
        <time>2019-04-30T09:42:44Z</time>
      </trkpt>
      <trkpt lat="45.57596" lon="6.01643">
        <ele>624.99</ele>
        <time>2019-04-30T09:42:46Z</time>
      </trkpt>
      <trkpt lat="45.57596" lon="6.01644">
        <ele>621.63</ele>
        <time>2019-04-30T09:42:47Z</time>
      </trkpt>
      <trkpt lat="45.57595" lon="6.01645">
        <ele>621.63</ele>
        <time>2019-04-30T09:42:48Z</time>
      </trkpt>
      <trkpt lat="45.57594" lon="6.01647">
        <ele>622.11</ele>
        <time>2019-04-30T09:42:55Z</time>
      </trkpt>
      <trkpt lat="45.57586" lon="6.01657">
        <ele>624.51</ele>
        <time>2019-04-30T09:43:09Z</time>
      </trkpt>
      <trkpt lat="45.5758" lon="6.01666">
        <ele>625.96</ele>
        <time>2019-04-30T09:43:22Z</time>
      </trkpt>
      <trkpt lat="45.57569" lon="6.01676">
        <ele>629.32</ele>
        <time>2019-04-30T09:43:35Z</time>
      </trkpt>
      <trkpt lat="45.57562" lon="6.01677">
        <ele>630.28</ele>
        <time>2019-04-30T09:43:46Z</time>
      </trkpt>
      <trkpt lat="45.57556" lon="6.01681">
        <ele>632.2</ele>
        <time>2019-04-30T09:43:56Z</time>
      </trkpt>
      <trkpt lat="45.57548" lon="6.01687">
        <ele>633.65</ele>
        <time>2019-04-30T09:44:07Z</time>
      </trkpt>
      <trkpt lat="45.5754" lon="6.01695">
        <ele>635.57</ele>
        <time>2019-04-30T09:44:19Z</time>
      </trkpt>
      <trkpt lat="45.57532" lon="6.01701">
        <ele>637.97</ele>
        <time>2019-04-30T09:44:32Z</time>
      </trkpt>
      <trkpt lat="45.5753" lon="6.01702">
        <ele>638.45</ele>
        <time>2019-04-30T09:44:35Z</time>
      </trkpt>
      <trkpt lat="45.57525" lon="6.01705">
        <ele>640.86</ele>
        <time>2019-04-30T09:44:46Z</time>
      </trkpt>
      <trkpt lat="45.57516" lon="6.01702">
        <ele>638.45</ele>
        <time>2019-04-30T09:45:00Z</time>
      </trkpt>
      <trkpt lat="45.57505" lon="6.01702">
        <ele>637.01</ele>
        <time>2019-04-30T09:45:13Z</time>
      </trkpt>
      <trkpt lat="45.57503" lon="6.01701">
        <ele>636.53</ele>
        <time>2019-04-30T09:45:15Z</time>
      </trkpt>
      <trkpt lat="45.57492" lon="6.01693">
        <ele>634.13</ele>
        <time>2019-04-30T09:45:29Z</time>
      </trkpt>
      <trkpt lat="45.57486" lon="6.01682">
        <ele>633.65</ele>
        <time>2019-04-30T09:45:40Z</time>
      </trkpt>
      <trkpt lat="45.57485" lon="6.0168">
        <ele>632.2</ele>
        <time>2019-04-30T09:45:42Z</time>
      </trkpt>
      <trkpt lat="45.57476" lon="6.01666">
        <ele>631.72</ele>
        <time>2019-04-30T09:45:56Z</time>
      </trkpt>
      <trkpt lat="45.57466" lon="6.0165">
        <ele>629.8</ele>
        <time>2019-04-30T09:46:12Z</time>
      </trkpt>
      <trkpt lat="45.57458" lon="6.01635">
        <ele>628.36</ele>
        <time>2019-04-30T09:46:26Z</time>
      </trkpt>
      <trkpt lat="45.57457" lon="6.01632">
        <ele>627.88</ele>
        <time>2019-04-30T09:46:28Z</time>
      </trkpt>
      <trkpt lat="45.57454" lon="6.01613">
        <ele>626.92</ele>
        <time>2019-04-30T09:46:40Z</time>
      </trkpt>
      <trkpt lat="45.57456" lon="6.01599">
        <ele>625.47</ele>
        <time>2019-04-30T09:46:53Z</time>
      </trkpt>
      <trkpt lat="45.57457" lon="6.01595">
        <ele>624.99</ele>
        <time>2019-04-30T09:46:56Z</time>
      </trkpt>
      <trkpt lat="45.5746" lon="6.01576">
        <ele>624.03</ele>
        <time>2019-04-30T09:47:08Z</time>
      </trkpt>
      <trkpt lat="45.57463" lon="6.01565">
        <ele>623.07</ele>
        <time>2019-04-30T09:47:17Z</time>
      </trkpt>
      <trkpt lat="45.57464" lon="6.01558">
        <ele>628.36</ele>
        <time>2019-04-30T09:47:22Z</time>
      </trkpt>
      <trkpt lat="45.57464" lon="6.01557">
        <ele>623.55</ele>
        <time>2019-04-30T09:47:23Z</time>
      </trkpt>
      <trkpt lat="45.57463" lon="6.01543">
        <ele>620.67</ele>
        <time>2019-04-30T09:47:34Z</time>
      </trkpt>
      <trkpt lat="45.57454" lon="6.01536">
        <ele>618.26</ele>
        <time>2019-04-30T09:47:45Z</time>
      </trkpt>
      <trkpt lat="45.57446" lon="6.01534">
        <ele>617.3</ele>
        <time>2019-04-30T09:47:53Z</time>
      </trkpt>
      <trkpt lat="45.57441" lon="6.01531">
        <ele>616.82</ele>
        <time>2019-04-30T09:47:58Z</time>
      </trkpt>
      <trkpt lat="45.57428" lon="6.01529">
        <ele>614.9</ele>
        <time>2019-04-30T09:48:12Z</time>
      </trkpt>
      <trkpt lat="45.57414" lon="6.0153">
        <ele>612.5</ele>
        <time>2019-04-30T09:48:28Z</time>
      </trkpt>
      <trkpt lat="45.57396" lon="6.01518">
        <ele>611.06</ele>
        <time>2019-04-30T09:48:45Z</time>
      </trkpt>
      <trkpt lat="45.57394" lon="6.01513">
        <ele>614.42</ele>
        <time>2019-04-30T09:48:48Z</time>
      </trkpt>
      <trkpt lat="45.57393" lon="6.01512">
        <ele>611.06</ele>
        <time>2019-04-30T09:48:49Z</time>
      </trkpt>
      <trkpt lat="45.57388" lon="6.01505">
        <ele>609.13</ele>
        <time>2019-04-30T09:49:03Z</time>
      </trkpt>
      <trkpt lat="45.57389" lon="6.01503">
        <ele>608.65</ele>
        <time>2019-04-30T09:49:14Z</time>
      </trkpt>
      <trkpt lat="45.57388" lon="6.01496">
        <ele>607.21</ele>
        <time>2019-04-30T09:49:33Z</time>
      </trkpt>
      <trkpt lat="45.57384" lon="6.01486">
        <ele>603.36</ele>
        <time>2019-04-30T09:49:46Z</time>
      </trkpt>
      <trkpt lat="45.57373" lon="6.01471">
        <ele>600.96</ele>
        <time>2019-04-30T09:50:03Z</time>
      </trkpt>
      <trkpt lat="45.5737" lon="6.01467">
        <ele>597.6</ele>
        <time>2019-04-30T09:50:13Z</time>
      </trkpt>
      <trkpt lat="45.57366" lon="6.0146">
        <ele>591.83</ele>
        <time>2019-04-30T09:50:22Z</time>
      </trkpt>
      <trkpt lat="45.57365" lon="6.0146">
        <ele>602.4</ele>
        <time>2019-04-30T09:50:23Z</time>
      </trkpt>
      <trkpt lat="45.57364" lon="6.01458">
        <ele>596.15</ele>
        <time>2019-04-30T09:50:24Z</time>
      </trkpt>
      <trkpt lat="45.57359" lon="6.0145">
        <ele>593.27</ele>
        <time>2019-04-30T09:50:30Z</time>
      </trkpt>
      <trkpt lat="45.57352" lon="6.0144">
        <ele>591.35</ele>
        <time>2019-04-30T09:50:44Z</time>
      </trkpt>
      <trkpt lat="45.57347" lon="6.0144">
        <ele>589.91</ele>
        <time>2019-04-30T09:50:59Z</time>
      </trkpt>
      <trkpt lat="45.57346" lon="6.01442">
        <ele>589.43</ele>
        <time>2019-04-30T09:51:16Z</time>
      </trkpt>
      <trkpt lat="45.57345" lon="6.01444">
        <ele>589.91</ele>
        <time>2019-04-30T09:51:36Z</time>
      </trkpt>
      <trkpt lat="45.57344" lon="6.01444">
        <ele>589.43</ele>
        <time>2019-04-30T09:51:57Z</time>
      </trkpt>
      <trkpt lat="45.57341" lon="6.01447">
        <ele>589.43</ele>
        <time>2019-04-30T09:52:13Z</time>
      </trkpt>
      <trkpt lat="45.57339" lon="6.01455">
        <ele>588.46</ele>
        <time>2019-04-30T09:52:26Z</time>
      </trkpt>
      <trkpt lat="45.57337" lon="6.0146">
        <ele>584.14</ele>
        <time>2019-04-30T09:52:34Z</time>
      </trkpt>
      <trkpt lat="45.57337" lon="6.01461">
        <ele>590.39</ele>
        <time>2019-04-30T09:52:35Z</time>
      </trkpt>
      <trkpt lat="45.57337" lon="6.01462">
        <ele>587.5</ele>
        <time>2019-04-30T09:52:37Z</time>
      </trkpt>
      <trkpt lat="45.57335" lon="6.01473">
        <ele>586.54</ele>
        <time>2019-04-30T09:52:51Z</time>
      </trkpt>
      <trkpt lat="45.57333" lon="6.01487">
        <ele>584.62</ele>
        <time>2019-04-30T09:53:03Z</time>
      </trkpt>
      <trkpt lat="45.57333" lon="6.01488">
        <ele>584.62</ele>
        <time>2019-04-30T09:53:04Z</time>
      </trkpt>
      <trkpt lat="45.5733" lon="6.01494">
        <ele>583.66</ele>
        <time>2019-04-30T09:53:16Z</time>
      </trkpt>
      <trkpt lat="45.57328" lon="6.01501">
        <ele>582.22</ele>
        <time>2019-04-30T09:53:27Z</time>
      </trkpt>
      <trkpt lat="45.57327" lon="6.01506">
        <ele>579.81</ele>
        <time>2019-04-30T09:53:38Z</time>
      </trkpt>
      <trkpt lat="45.57319" lon="6.01518">
        <ele>576.93</ele>
        <time>2019-04-30T09:53:51Z</time>
      </trkpt>
      <trkpt lat="45.57312" lon="6.01529">
        <ele>574.53</ele>
        <time>2019-04-30T09:54:06Z</time>
      </trkpt>
      <trkpt lat="45.57292" lon="6.01545">
        <ele>573.08</ele>
        <time>2019-04-30T09:54:18Z</time>
      </trkpt>
      <trkpt lat="45.57275" lon="6.01546">
        <ele>571.16</ele>
        <time>2019-04-30T09:54:31Z</time>
      </trkpt>
      <trkpt lat="45.57266" lon="6.01544">
        <ele>569.24</ele>
        <time>2019-04-30T09:54:42Z</time>
      </trkpt>
      <trkpt lat="45.57248" lon="6.01549">
        <ele>566.35</ele>
        <time>2019-04-30T09:54:54Z</time>
      </trkpt>
      <trkpt lat="45.57245" lon="6.01552">
        <ele>564.91</ele>
        <time>2019-04-30T09:54:58Z</time>
      </trkpt>
      <trkpt lat="45.57238" lon="6.01561">
        <ele>563.95</ele>
        <time>2019-04-30T09:55:10Z</time>
      </trkpt>
      <trkpt lat="45.57232" lon="6.01571">
        <ele>560.59</ele>
        <time>2019-04-30T09:55:22Z</time>
      </trkpt>
      <trkpt lat="45.57226" lon="6.01576">
        <ele>560.59</ele>
        <time>2019-04-30T09:55:26Z</time>
      </trkpt>
      <trkpt lat="45.5722" lon="6.01593">
        <ele>557.22</ele>
        <time>2019-04-30T09:55:39Z</time>
      </trkpt>
      <trkpt lat="45.57222" lon="6.01606">
        <ele>555.78</ele>
        <time>2019-04-30T09:55:54Z</time>
      </trkpt>
      <trkpt lat="45.57219" lon="6.01619">
        <ele>552.9</ele>
        <time>2019-04-30T09:56:12Z</time>
      </trkpt>
      <trkpt lat="45.57206" lon="6.01628">
        <ele>550.49</ele>
        <time>2019-04-30T09:56:29Z</time>
      </trkpt>
      <trkpt lat="45.57204" lon="6.01626">
        <ele>550.01</ele>
        <time>2019-04-30T09:56:32Z</time>
      </trkpt>
      <trkpt lat="45.57196" lon="6.01617">
        <ele>548.57</ele>
        <time>2019-04-30T09:56:48Z</time>
      </trkpt>
      <trkpt lat="45.57181" lon="6.01617">
        <ele>545.69</ele>
        <time>2019-04-30T09:57:06Z</time>
      </trkpt>
      <trkpt lat="45.57177" lon="6.01618">
        <ele>542.32</ele>
        <time>2019-04-30T09:57:18Z</time>
      </trkpt>
      <trkpt lat="45.57167" lon="6.01629">
        <ele>545.69</ele>
        <time>2019-04-30T09:57:26Z</time>
      </trkpt>
      <trkpt lat="45.57155" lon="6.01639">
        <ele>544.72</ele>
        <time>2019-04-30T09:57:37Z</time>
      </trkpt>
      <trkpt lat="45.57151" lon="6.01654">
        <ele>546.17</ele>
        <time>2019-04-30T09:57:55Z</time>
      </trkpt>
      <trkpt lat="45.57141" lon="6.01668">
        <ele>549.53</ele>
        <time>2019-04-30T09:58:12Z</time>
      </trkpt>
      <trkpt lat="45.57136" lon="6.01668">
        <ele>549.53</ele>
        <time>2019-04-30T09:58:27Z</time>
      </trkpt>
      <trkpt lat="45.57128" lon="6.0167">
        <ele>550.49</ele>
        <time>2019-04-30T09:58:44Z</time>
      </trkpt>
      <trkpt lat="45.57123" lon="6.01682">
        <ele>552.41</ele>
        <time>2019-04-30T09:59:03Z</time>
      </trkpt>
      <trkpt lat="45.57117" lon="6.01692">
        <ele>555.3</ele>
        <time>2019-04-30T09:59:22Z</time>
      </trkpt>
      <trkpt lat="45.57114" lon="6.01698">
        <ele>556.26</ele>
        <time>2019-04-30T09:59:43Z</time>
      </trkpt>
      <trkpt lat="45.57107" lon="6.01706">
        <ele>558.66</ele>
        <time>2019-04-30T10:00:00Z</time>
      </trkpt>
      <trkpt lat="45.57106" lon="6.01706">
        <ele>558.66</ele>
        <time>2019-04-30T10:00:01Z</time>
      </trkpt>
      <trkpt lat="45.57097" lon="6.01715">
        <ele>557.22</ele>
        <time>2019-04-30T10:00:18Z</time>
      </trkpt>
      <trkpt lat="45.57092" lon="6.01722">
        <ele>554.34</ele>
        <time>2019-04-30T10:00:27Z</time>
      </trkpt>
      <trkpt lat="45.57082" lon="6.01735">
        <ele>555.78</ele>
        <time>2019-04-30T10:00:44Z</time>
      </trkpt>
      <trkpt lat="45.57056" lon="6.01753">
        <ele>556.26</ele>
        <time>2019-04-30T10:01:03Z</time>
      </trkpt>
      <trkpt lat="45.57043" lon="6.01769">
        <ele>558.18</ele>
        <time>2019-04-30T10:01:22Z</time>
      </trkpt>
      <trkpt lat="45.57033" lon="6.01772">
        <ele>557.7</ele>
        <time>2019-04-30T10:01:41Z</time>
      </trkpt>
      <trkpt lat="45.57018" lon="6.01776">
        <ele>557.22</ele>
        <time>2019-04-30T10:01:58Z</time>
      </trkpt>
      <trkpt lat="45.57007" lon="6.01785">
        <ele>557.22</ele>
        <time>2019-04-30T10:02:15Z</time>
      </trkpt>
      <trkpt lat="45.56987" lon="6.01779">
        <ele>556.74</ele>
        <time>2019-04-30T10:02:27Z</time>
      </trkpt>
      <trkpt lat="45.56977" lon="6.01785">
        <ele>557.22</ele>
        <time>2019-04-30T10:02:45Z</time>
      </trkpt>
      <trkpt lat="45.56971" lon="6.0181">
        <ele>559.62</ele>
        <time>2019-04-30T10:03:05Z</time>
      </trkpt>
      <trkpt lat="45.5697" lon="6.01816">
        <ele>561.55</ele>
        <time>2019-04-30T10:03:24Z</time>
      </trkpt>
      <trkpt lat="45.56969" lon="6.01825">
        <ele>562.51</ele>
        <time>2019-04-30T10:03:41Z</time>
      </trkpt>
      <trkpt lat="45.56965" lon="6.01832">
        <ele>564.43</ele>
        <time>2019-04-30T10:04:01Z</time>
      </trkpt>
      <trkpt lat="45.56969" lon="6.01839">
        <ele>567.32</ele>
        <time>2019-04-30T10:04:16Z</time>
      </trkpt>
      <trkpt lat="45.5697" lon="6.01854">
        <ele>570.68</ele>
        <time>2019-04-30T10:04:34Z</time>
      </trkpt>
      <trkpt lat="45.56957" lon="6.01861">
        <ele>571.64</ele>
        <time>2019-04-30T10:04:51Z</time>
      </trkpt>
      <trkpt lat="45.56953" lon="6.01866">
        <ele>572.6</ele>
        <time>2019-04-30T10:05:06Z</time>
      </trkpt>
      <trkpt lat="45.56945" lon="6.01872">
        <ele>573.56</ele>
        <time>2019-04-30T10:05:21Z</time>
      </trkpt>
      <trkpt lat="45.56928" lon="6.0189">
        <ele>573.56</ele>
        <time>2019-04-30T10:05:39Z</time>
      </trkpt>
      <trkpt lat="45.5692" lon="6.01899">
        <ele>574.04</ele>
        <time>2019-04-30T10:05:59Z</time>
      </trkpt>
      <trkpt lat="45.56913" lon="6.01906">
        <ele>571.64</ele>
        <time>2019-04-30T10:06:14Z</time>
      </trkpt>
      <trkpt lat="45.56913" lon="6.01911">
        <ele>573.08</ele>
        <time>2019-04-30T10:06:25Z</time>
      </trkpt>
      <trkpt lat="45.56915" lon="6.01916">
        <ele>571.64</ele>
        <time>2019-04-30T10:06:37Z</time>
      </trkpt>
      <trkpt lat="45.56912" lon="6.01915">
        <ele>568.28</ele>
        <time>2019-04-30T10:06:44Z</time>
      </trkpt>
      <trkpt lat="45.56911" lon="6.01914">
        <ele>568.28</ele>
        <time>2019-04-30T10:06:45Z</time>
      </trkpt>
      <trkpt lat="45.5691" lon="6.01914">
        <ele>571.64</ele>
        <time>2019-04-30T10:06:46Z</time>
      </trkpt>
      <trkpt lat="45.56909" lon="6.01914">
        <ele>569.24</ele>
        <time>2019-04-30T10:06:47Z</time>
      </trkpt>
      <trkpt lat="45.56894" lon="6.01908">
        <ele>566.35</ele>
        <time>2019-04-30T10:07:01Z</time>
      </trkpt>
      <trkpt lat="45.56879" lon="6.01904">
        <ele>565.39</ele>
        <time>2019-04-30T10:07:12Z</time>
      </trkpt>
      <trkpt lat="45.56879" lon="6.01904">
        <ele>567.32</ele>
        <time>2019-04-30T10:07:13Z</time>
      </trkpt>
      <trkpt lat="45.56866" lon="6.01894">
        <ele>565.87</ele>
        <time>2019-04-30T10:07:28Z</time>
      </trkpt>
      <trkpt lat="45.56861" lon="6.01891">
        <ele>566.35</ele>
        <time>2019-04-30T10:07:41Z</time>
      </trkpt>
      <trkpt lat="45.56851" lon="6.01899">
        <ele>569.72</ele>
        <time>2019-04-30T10:07:57Z</time>
      </trkpt>
      <trkpt lat="45.56837" lon="6.01924">
        <ele>572.6</ele>
        <time>2019-04-30T10:08:16Z</time>
      </trkpt>
      <trkpt lat="45.56826" lon="6.01933">
        <ele>572.12</ele>
        <time>2019-04-30T10:08:32Z</time>
      </trkpt>
      <trkpt lat="45.56824" lon="6.01936">
        <ele>572.12</ele>
        <time>2019-04-30T10:08:52Z</time>
      </trkpt>
      <trkpt lat="45.56815" lon="6.01942">
        <ele>572.6</ele>
        <time>2019-04-30T10:09:10Z</time>
      </trkpt>
      <trkpt lat="45.56798" lon="6.01937">
        <ele>573.56</ele>
        <time>2019-04-30T10:09:25Z</time>
      </trkpt>
      <trkpt lat="45.56781" lon="6.01931">
        <ele>575.01</ele>
        <time>2019-04-30T10:09:40Z</time>
      </trkpt>
      <trkpt lat="45.56781" lon="6.0193">
        <ele>575.01</ele>
        <time>2019-04-30T10:09:56Z</time>
      </trkpt>
      <trkpt lat="45.5678" lon="6.01927">
        <ele>574.04</ele>
        <time>2019-04-30T10:10:18Z</time>
      </trkpt>
      <trkpt lat="45.5678" lon="6.01925">
        <ele>575.01</ele>
        <time>2019-04-30T10:10:41Z</time>
      </trkpt>
      <trkpt lat="45.5678" lon="6.01922">
        <ele>575.01</ele>
        <time>2019-04-30T10:10:59Z</time>
      </trkpt>
      <trkpt lat="45.56779" lon="6.01903">
        <ele>576.45</ele>
        <time>2019-04-30T10:11:16Z</time>
      </trkpt>
      <trkpt lat="45.56775" lon="6.01895">
        <ele>579.81</ele>
        <time>2019-04-30T10:11:33Z</time>
      </trkpt>
      <trkpt lat="45.56761" lon="6.01909">
        <ele>582.22</ele>
        <time>2019-04-30T10:11:52Z</time>
      </trkpt>
      <trkpt lat="45.5675" lon="6.01913">
        <ele>585.58</ele>
        <time>2019-04-30T10:12:08Z</time>
      </trkpt>
      <trkpt lat="45.56747" lon="6.01909">
        <ele>587.5</ele>
        <time>2019-04-30T10:12:25Z</time>
      </trkpt>
      <trkpt lat="45.56747" lon="6.01906">
        <ele>590.39</ele>
        <time>2019-04-30T10:12:40Z</time>
      </trkpt>
      <trkpt lat="45.56754" lon="6.01879">
        <ele>589.91</ele>
        <time>2019-04-30T10:12:58Z</time>
      </trkpt>
      <trkpt lat="45.56765" lon="6.01862">
        <ele>589.43</ele>
        <time>2019-04-30T10:13:15Z</time>
      </trkpt>
      <trkpt lat="45.56775" lon="6.01845">
        <ele>588.95</ele>
        <time>2019-04-30T10:13:37Z</time>
      </trkpt>
      <trkpt lat="45.56782" lon="6.01839">
        <ele>588.95</ele>
        <time>2019-04-30T10:13:52Z</time>
      </trkpt>
      <trkpt lat="45.56793" lon="6.01829">
        <ele>588.46</ele>
        <time>2019-04-30T10:14:06Z</time>
      </trkpt>
      <trkpt lat="45.56798" lon="6.01825">
        <ele>586.54</ele>
        <time>2019-04-30T10:14:18Z</time>
      </trkpt>
      <trkpt lat="45.56808" lon="6.01809">
        <ele>587.02</ele>
        <time>2019-04-30T10:14:34Z</time>
      </trkpt>
      <trkpt lat="45.56828" lon="6.01773">
        <ele>587.98</ele>
        <time>2019-04-30T10:14:50Z</time>
      </trkpt>
      <trkpt lat="45.56837" lon="6.01747">
        <ele>589.91</ele>
        <time>2019-04-30T10:15:08Z</time>
      </trkpt>
      <trkpt lat="45.56853" lon="6.0174">
        <ele>590.39</ele>
        <time>2019-04-30T10:15:19Z</time>
      </trkpt>
      <trkpt lat="45.56854" lon="6.01739">
        <ele>590.87</ele>
        <time>2019-04-30T10:15:25Z</time>
      </trkpt>
      <trkpt lat="45.56857" lon="6.01734">
        <ele>591.83</ele>
        <time>2019-04-30T10:15:30Z</time>
      </trkpt>
      <trkpt lat="45.56866" lon="6.01725">
        <ele>592.31</ele>
        <time>2019-04-30T10:15:41Z</time>
      </trkpt>
      <trkpt lat="45.56874" lon="6.01716">
        <ele>593.27</ele>
        <time>2019-04-30T10:15:52Z</time>
      </trkpt>
      <trkpt lat="45.56877" lon="6.01711">
        <ele>593.27</ele>
        <time>2019-04-30T10:16:12Z</time>
      </trkpt>
      <trkpt lat="45.56878" lon="6.0171">
        <ele>593.75</ele>
        <time>2019-04-30T10:16:32Z</time>
      </trkpt>
      <trkpt lat="45.56878" lon="6.01709">
        <ele>593.75</ele>
        <time>2019-04-30T10:17:00Z</time>
      </trkpt>
      <trkpt lat="45.56878" lon="6.01708">
        <ele>593.75</ele>
        <time>2019-04-30T10:17:28Z</time>
      </trkpt>
      <trkpt lat="45.56878" lon="6.01707">
        <ele>594.23</ele>
        <time>2019-04-30T10:17:48Z</time>
      </trkpt>
      <trkpt lat="45.56877" lon="6.01699">
        <ele>597.6</ele>
        <time>2019-04-30T10:18:01Z</time>
      </trkpt>
      <trkpt lat="45.56885" lon="6.01691">
        <ele>600</ele>
        <time>2019-04-30T10:18:16Z</time>
      </trkpt>
      <trkpt lat="45.56888" lon="6.01688">
        <ele>601.44</ele>
        <time>2019-04-30T10:18:29Z</time>
      </trkpt>
      <trkpt lat="45.5689" lon="6.01684">
        <ele>603.36</ele>
        <time>2019-04-30T10:18:44Z</time>
      </trkpt>
      <trkpt lat="45.5689" lon="6.01683">
        <ele>603.85</ele>
        <time>2019-04-30T10:18:45Z</time>
      </trkpt>
      <trkpt lat="45.56893" lon="6.01676">
        <ele>604.33</ele>
        <time>2019-04-30T10:18:59Z</time>
      </trkpt>
      <trkpt lat="45.56901" lon="6.0166">
        <ele>604.33</ele>
        <time>2019-04-30T10:19:09Z</time>
      </trkpt>
      <trkpt lat="45.5691" lon="6.01647">
        <ele>604.33</ele>
        <time>2019-04-30T10:19:20Z</time>
      </trkpt>
      <trkpt lat="45.56914" lon="6.01642">
        <ele>605.77</ele>
        <time>2019-04-30T10:19:35Z</time>
      </trkpt>
      <trkpt lat="45.56922" lon="6.01632">
        <ele>606.25</ele>
        <time>2019-04-30T10:19:48Z</time>
      </trkpt>
      <trkpt lat="45.56924" lon="6.01627">
        <ele>608.17</ele>
        <time>2019-04-30T10:20:04Z</time>
      </trkpt>
      <trkpt lat="45.56926" lon="6.01622">
        <ele>609.13</ele>
        <time>2019-04-30T10:20:15Z</time>
      </trkpt>
      <trkpt lat="45.56927" lon="6.01615">
        <ele>610.57</ele>
        <time>2019-04-30T10:20:30Z</time>
      </trkpt>
      <trkpt lat="45.56926" lon="6.0161">
        <ele>613.46</ele>
        <time>2019-04-30T10:20:48Z</time>
      </trkpt>
      <trkpt lat="45.56926" lon="6.01594">
        <ele>613.94</ele>
        <time>2019-04-30T10:21:02Z</time>
      </trkpt>
      <trkpt lat="45.56931" lon="6.01584">
        <ele>615.86</ele>
        <time>2019-04-30T10:21:06Z</time>
      </trkpt>
      <trkpt lat="45.56925" lon="6.01574">
        <ele>615.38</ele>
        <time>2019-04-30T10:21:22Z</time>
      </trkpt>
      <trkpt lat="45.56943" lon="6.01538">
        <ele>617.78</ele>
        <time>2019-04-30T10:21:36Z</time>
      </trkpt>
      <trkpt lat="45.5695" lon="6.01519">
        <ele>619.23</ele>
        <time>2019-04-30T10:21:54Z</time>
      </trkpt>
      <trkpt lat="45.56945" lon="6.01498">
        <ele>621.63</ele>
        <time>2019-04-30T10:22:12Z</time>
      </trkpt>
      <trkpt lat="45.56934" lon="6.01468">
        <ele>624.51</ele>
        <time>2019-04-30T10:22:27Z</time>
      </trkpt>
      <trkpt lat="45.56934" lon="6.0146">
        <ele>628.84</ele>
        <time>2019-04-30T10:22:37Z</time>
      </trkpt>
      <trkpt lat="45.56936" lon="6.01457">
        <ele>625.47</ele>
        <time>2019-04-30T10:22:38Z</time>
      </trkpt>
      <trkpt lat="45.56939" lon="6.0145">
        <ele>625.96</ele>
        <time>2019-04-30T10:22:49Z</time>
      </trkpt>
      <trkpt lat="45.56937" lon="6.01444">
        <ele>627.88</ele>
        <time>2019-04-30T10:23:03Z</time>
      </trkpt>
      <trkpt lat="45.56933" lon="6.01435">
        <ele>630.28</ele>
        <time>2019-04-30T10:23:21Z</time>
      </trkpt>
      <trkpt lat="45.56927" lon="6.01431">
        <ele>632.68</ele>
        <time>2019-04-30T10:23:38Z</time>
      </trkpt>
      <trkpt lat="45.56926" lon="6.01422">
        <ele>635.09</ele>
        <time>2019-04-30T10:23:54Z</time>
      </trkpt>
      <trkpt lat="45.56924" lon="6.01401">
        <ele>637.49</ele>
        <time>2019-04-30T10:24:12Z</time>
      </trkpt>
      <trkpt lat="45.56927" lon="6.0139">
        <ele>639.89</ele>
        <time>2019-04-30T10:24:31Z</time>
      </trkpt>
      <trkpt lat="45.56935" lon="6.01381">
        <ele>642.3</ele>
        <time>2019-04-30T10:24:45Z</time>
      </trkpt>
      <trkpt lat="45.56942" lon="6.01381">
        <ele>643.74</ele>
        <time>2019-04-30T10:25:02Z</time>
      </trkpt>
      <trkpt lat="45.56949" lon="6.01379">
        <ele>645.66</ele>
        <time>2019-04-30T10:25:18Z</time>
      </trkpt>
      <trkpt lat="45.56963" lon="6.0138">
        <ele>648.07</ele>
        <time>2019-04-30T10:25:34Z</time>
      </trkpt>
      <trkpt lat="45.56971" lon="6.01379">
        <ele>650.47</ele>
        <time>2019-04-30T10:25:52Z</time>
      </trkpt>
      <trkpt lat="45.56977" lon="6.01375">
        <ele>652.87</ele>
        <time>2019-04-30T10:26:09Z</time>
      </trkpt>
      <trkpt lat="45.56987" lon="6.01366">
        <ele>654.8</ele>
        <time>2019-04-30T10:26:22Z</time>
      </trkpt>
      <trkpt lat="45.56991" lon="6.0136">
        <ele>657.2</ele>
        <time>2019-04-30T10:26:37Z</time>
      </trkpt>
      <trkpt lat="45.56991" lon="6.01357">
        <ele>659.6</ele>
        <time>2019-04-30T10:26:53Z</time>
      </trkpt>
      <trkpt lat="45.56989" lon="6.01353">
        <ele>662.01</ele>
        <time>2019-04-30T10:27:12Z</time>
      </trkpt>
      <trkpt lat="45.56987" lon="6.01349">
        <ele>665.37</ele>
        <time>2019-04-30T10:27:28Z</time>
      </trkpt>
      <trkpt lat="45.56985" lon="6.01345">
        <ele>666.81</ele>
        <time>2019-04-30T10:27:43Z</time>
      </trkpt>
      <trkpt lat="45.56984" lon="6.0134">
        <ele>668.25</ele>
        <time>2019-04-30T10:28:01Z</time>
      </trkpt>
      <trkpt lat="45.56984" lon="6.01336">
        <ele>671.62</ele>
        <time>2019-04-30T10:28:18Z</time>
      </trkpt>
      <trkpt lat="45.56983" lon="6.01333">
        <ele>674.5</ele>
        <time>2019-04-30T10:28:36Z</time>
      </trkpt>
      <trkpt lat="45.56981" lon="6.01325">
        <ele>676.42</ele>
        <time>2019-04-30T10:28:53Z</time>
      </trkpt>
      <trkpt lat="45.56975" lon="6.01311">
        <ele>681.71</ele>
        <time>2019-04-30T10:29:05Z</time>
      </trkpt>
      <trkpt lat="45.56974" lon="6.0131">
        <ele>678.35</ele>
        <time>2019-04-30T10:29:06Z</time>
      </trkpt>
      <trkpt lat="45.56966" lon="6.01292">
        <ele>679.31</ele>
        <time>2019-04-30T10:29:16Z</time>
      </trkpt>
      <trkpt lat="45.56958" lon="6.01279">
        <ele>680.27</ele>
        <time>2019-04-30T10:29:26Z</time>
      </trkpt>
      <trkpt lat="45.56953" lon="6.01272">
        <ele>681.71</ele>
        <time>2019-04-30T10:29:37Z</time>
      </trkpt>
      <trkpt lat="45.56945" lon="6.01265">
        <ele>683.15</ele>
        <time>2019-04-30T10:29:50Z</time>
      </trkpt>
      <trkpt lat="45.56935" lon="6.01256">
        <ele>684.6</ele>
        <time>2019-04-30T10:30:01Z</time>
      </trkpt>
      <trkpt lat="45.56931" lon="6.01252">
        <ele>684.6</ele>
        <time>2019-04-30T10:30:07Z</time>
      </trkpt>
      <trkpt lat="45.56922" lon="6.01246">
        <ele>685.08</ele>
        <time>2019-04-30T10:30:15Z</time>
      </trkpt>
      <trkpt lat="45.5692" lon="6.0124">
        <ele>685.08</ele>
        <time>2019-04-30T10:30:18Z</time>
      </trkpt>
      <trkpt lat="45.56918" lon="6.01236">
        <ele>681.23</ele>
        <time>2019-04-30T10:30:21Z</time>
      </trkpt>
      <trkpt lat="45.56917" lon="6.01235">
        <ele>688.92</ele>
        <time>2019-04-30T10:30:22Z</time>
      </trkpt>
      <trkpt lat="45.56916" lon="6.01235">
        <ele>685.56</ele>
        <time>2019-04-30T10:30:23Z</time>
      </trkpt>
      <trkpt lat="45.56913" lon="6.01229">
        <ele>685.08</ele>
        <time>2019-04-30T10:30:37Z</time>
      </trkpt>
      <trkpt lat="45.56905" lon="6.01219">
        <ele>684.12</ele>
        <time>2019-04-30T10:30:54Z</time>
      </trkpt>
      <trkpt lat="45.56903" lon="6.01214">
        <ele>685.08</ele>
        <time>2019-04-30T10:31:15Z</time>
      </trkpt>
      <trkpt lat="45.56902" lon="6.01213">
        <ele>684.6</ele>
        <time>2019-04-30T10:31:33Z</time>
      </trkpt>
      <trkpt lat="45.56899" lon="6.01206">
        <ele>684.6</ele>
        <time>2019-04-30T10:31:40Z</time>
      </trkpt>
      <trkpt lat="45.56896" lon="6.01202">
        <ele>684.6</ele>
        <time>2019-04-30T10:31:44Z</time>
      </trkpt>
      <trkpt lat="45.56893" lon="6.01199">
        <ele>684.6</ele>
        <time>2019-04-30T10:31:47Z</time>
      </trkpt>
      <trkpt lat="45.56879" lon="6.01186">
        <ele>684.6</ele>
        <time>2019-04-30T10:32:00Z</time>
      </trkpt>
      <trkpt lat="45.56868" lon="6.01179">
        <ele>684.12</ele>
        <time>2019-04-30T10:32:11Z</time>
      </trkpt>
      <trkpt lat="45.56855" lon="6.01174">
        <ele>684.12</ele>
        <time>2019-04-30T10:32:22Z</time>
      </trkpt>
      <trkpt lat="45.56846" lon="6.0117">
        <ele>684.12</ele>
        <time>2019-04-30T10:32:30Z</time>
      </trkpt>
      <trkpt lat="45.56841" lon="6.01169">
        <ele>684.6</ele>
        <time>2019-04-30T10:32:34Z</time>
      </trkpt>
      <trkpt lat="45.56835" lon="6.0117">
        <ele>685.08</ele>
        <time>2019-04-30T10:32:39Z</time>
      </trkpt>
      <trkpt lat="45.5683" lon="6.01177">
        <ele>685.08</ele>
        <time>2019-04-30T10:32:44Z</time>
      </trkpt>
      <trkpt lat="45.56825" lon="6.01184">
        <ele>685.56</ele>
        <time>2019-04-30T10:32:50Z</time>
      </trkpt>
      <trkpt lat="45.56819" lon="6.01187">
        <ele>686.52</ele>
        <time>2019-04-30T10:32:56Z</time>
      </trkpt>
      <trkpt lat="45.56816" lon="6.01191">
        <ele>686.04</ele>
        <time>2019-04-30T10:32:59Z</time>
      </trkpt>
      <trkpt lat="45.56809" lon="6.01192">
        <ele>686.52</ele>
        <time>2019-04-30T10:33:04Z</time>
      </trkpt>
      <trkpt lat="45.56803" lon="6.01195">
        <ele>687.48</ele>
        <time>2019-04-30T10:33:10Z</time>
      </trkpt>
      <trkpt lat="45.56799" lon="6.01196">
        <ele>687.48</ele>
        <time>2019-04-30T10:33:14Z</time>
      </trkpt>
      <trkpt lat="45.56795" lon="6.01198">
        <ele>687.48</ele>
        <time>2019-04-30T10:33:18Z</time>
      </trkpt>
      <trkpt lat="45.56787" lon="6.01201">
        <ele>689.4</ele>
        <time>2019-04-30T10:33:29Z</time>
      </trkpt>
      <trkpt lat="45.56786" lon="6.01201">
        <ele>689.4</ele>
        <time>2019-04-30T10:33:31Z</time>
      </trkpt>
      <trkpt lat="45.56777" lon="6.01199">
        <ele>691.81</ele>
        <time>2019-04-30T10:33:43Z</time>
      </trkpt>
      <trkpt lat="45.56773" lon="6.01193">
        <ele>691.81</ele>
        <time>2019-04-30T10:33:51Z</time>
      </trkpt>
      <trkpt lat="45.56771" lon="6.01188">
        <ele>691.81</ele>
        <time>2019-04-30T10:33:54Z</time>
      </trkpt>
      <trkpt lat="45.56763" lon="6.01169">
        <ele>691.81</ele>
        <time>2019-04-30T10:34:07Z</time>
      </trkpt>
      <trkpt lat="45.56758" lon="6.01153">
        <ele>693.25</ele>
        <time>2019-04-30T10:34:18Z</time>
      </trkpt>
      <trkpt lat="45.56757" lon="6.01152">
        <ele>691.81</ele>
        <time>2019-04-30T10:34:19Z</time>
      </trkpt>
      <trkpt lat="45.56751" lon="6.01133">
        <ele>691.81</ele>
        <time>2019-04-30T10:34:31Z</time>
      </trkpt>
      <trkpt lat="45.56746" lon="6.0111">
        <ele>692.77</ele>
        <time>2019-04-30T10:34:47Z</time>
      </trkpt>
      <trkpt lat="45.5674" lon="6.01081">
        <ele>693.25</ele>
        <time>2019-04-30T10:35:04Z</time>
      </trkpt>
      <trkpt lat="45.56737" lon="6.01058">
        <ele>694.21</ele>
        <time>2019-04-30T10:35:17Z</time>
      </trkpt>
      <trkpt lat="45.56736" lon="6.01039">
        <ele>694.69</ele>
        <time>2019-04-30T10:35:29Z</time>
      </trkpt>
      <trkpt lat="45.56734" lon="6.01021">
        <ele>695.65</ele>
        <time>2019-04-30T10:35:41Z</time>
      </trkpt>
      <trkpt lat="45.56733" lon="6.01019">
        <ele>696.13</ele>
        <time>2019-04-30T10:35:43Z</time>
      </trkpt>
      <trkpt lat="45.56733" lon="6.01011">
        <ele>696.61</ele>
        <time>2019-04-30T10:35:48Z</time>
      </trkpt>
      <trkpt lat="45.56732" lon="6.01004">
        <ele>697.09</ele>
        <time>2019-04-30T10:35:53Z</time>
      </trkpt>
      <trkpt lat="45.56733" lon="6.00998">
        <ele>697.57</ele>
        <time>2019-04-30T10:35:57Z</time>
      </trkpt>
      <trkpt lat="45.56733" lon="6.0099">
        <ele>698.05</ele>
        <time>2019-04-30T10:36:03Z</time>
      </trkpt>
      <trkpt lat="45.56734" lon="6.00987">
        <ele>698.53</ele>
        <time>2019-04-30T10:36:05Z</time>
      </trkpt>
      <trkpt lat="45.56735" lon="6.00971">
        <ele>699.02</ele>
        <time>2019-04-30T10:36:16Z</time>
      </trkpt>
      <trkpt lat="45.56736" lon="6.00966">
        <ele>699.5</ele>
        <time>2019-04-30T10:36:20Z</time>
      </trkpt>
      <trkpt lat="45.56738" lon="6.00958">
        <ele>700.46</ele>
        <time>2019-04-30T10:36:26Z</time>
      </trkpt>
      <trkpt lat="45.56742" lon="6.00945">
        <ele>700.94</ele>
        <time>2019-04-30T10:36:37Z</time>
      </trkpt>
      <trkpt lat="45.56745" lon="6.00928">
        <ele>702.38</ele>
        <time>2019-04-30T10:36:49Z</time>
      </trkpt>
      <trkpt lat="45.56745" lon="6.00926">
        <ele>702.38</ele>
        <time>2019-04-30T10:36:51Z</time>
      </trkpt>
      <trkpt lat="45.56744" lon="6.0091">
        <ele>702.86</ele>
        <time>2019-04-30T10:37:04Z</time>
      </trkpt>
      <trkpt lat="45.56739" lon="6.00895">
        <ele>704.3</ele>
        <time>2019-04-30T10:37:20Z</time>
      </trkpt>
      <trkpt lat="45.56735" lon="6.00883">
        <ele>707.67</ele>
        <time>2019-04-30T10:37:28Z</time>
      </trkpt>
      <trkpt lat="45.56734" lon="6.00878">
        <ele>704.78</ele>
        <time>2019-04-30T10:37:31Z</time>
      </trkpt>
      <trkpt lat="45.56727" lon="6.00855">
        <ele>705.75</ele>
        <time>2019-04-30T10:37:44Z</time>
      </trkpt>
      <trkpt lat="45.56727" lon="6.00846">
        <ele>706.23</ele>
        <time>2019-04-30T10:37:51Z</time>
      </trkpt>
      <trkpt lat="45.56728" lon="6.00839">
        <ele>706.71</ele>
        <time>2019-04-30T10:37:57Z</time>
      </trkpt>
      <trkpt lat="45.56728" lon="6.00824">
        <ele>708.63</ele>
        <time>2019-04-30T10:38:09Z</time>
      </trkpt>
      <trkpt lat="45.56728" lon="6.00823">
        <ele>707.67</ele>
        <time>2019-04-30T10:38:10Z</time>
      </trkpt>
      <trkpt lat="45.5673" lon="6.00807">
        <ele>707.67</ele>
        <time>2019-04-30T10:38:20Z</time>
      </trkpt>
      <trkpt lat="45.5673" lon="6.00803">
        <ele>708.15</ele>
        <time>2019-04-30T10:38:23Z</time>
      </trkpt>
      <trkpt lat="45.56742" lon="6.00787">
        <ele>709.11</ele>
        <time>2019-04-30T10:38:37Z</time>
      </trkpt>
      <trkpt lat="45.56756" lon="6.00783">
        <ele>709.59</ele>
        <time>2019-04-30T10:38:50Z</time>
      </trkpt>
      <trkpt lat="45.56768" lon="6.0078">
        <ele>709.59</ele>
        <time>2019-04-30T10:39:02Z</time>
      </trkpt>
      <trkpt lat="45.56779" lon="6.00777">
        <ele>710.07</ele>
        <time>2019-04-30T10:39:14Z</time>
      </trkpt>
      <trkpt lat="45.56781" lon="6.00773">
        <ele>706.71</ele>
        <time>2019-04-30T10:39:16Z</time>
      </trkpt>
      <trkpt lat="45.56785" lon="6.00768">
        <ele>710.07</ele>
        <time>2019-04-30T10:39:21Z</time>
      </trkpt>
      <trkpt lat="45.56782" lon="6.00756">
        <ele>710.55</ele>
        <time>2019-04-30T10:39:34Z</time>
      </trkpt>
      <trkpt lat="45.56782" lon="6.00756">
        <ele>710.55</ele>
        <time>2019-04-30T10:40:05Z</time>
      </trkpt>
      <trkpt lat="45.56782" lon="6.00754">
        <ele>710.55</ele>
        <time>2019-04-30T10:40:38Z</time>
      </trkpt>
      <trkpt lat="45.56784" lon="6.00751">
        <ele>710.55</ele>
        <time>2019-04-30T10:40:49Z</time>
      </trkpt>
      <trkpt lat="45.56784" lon="6.00752">
        <ele>711.03</ele>
        <time>2019-04-30T10:41:21Z</time>
      </trkpt>
      <trkpt lat="45.56784" lon="6.00751">
        <ele>711.03</ele>
        <time>2019-04-30T10:41:54Z</time>
      </trkpt>
      <trkpt lat="45.56785" lon="6.00752">
        <ele>711.51</ele>
        <time>2019-04-30T10:42:09Z</time>
      </trkpt>
      <trkpt lat="45.56784" lon="6.00752">
        <ele>711.03</ele>
        <time>2019-04-30T10:42:31Z</time>
      </trkpt>
      <trkpt lat="45.56785" lon="6.00754">
        <ele>711.51</ele>
        <time>2019-04-30T10:42:53Z</time>
      </trkpt>
      <trkpt lat="45.56784" lon="6.00754">
        <ele>711.03</ele>
        <time>2019-04-30T10:43:06Z</time>
      </trkpt>
      <trkpt lat="45.56784" lon="6.00754">
        <ele>712.47</ele>
        <time>2019-04-30T10:43:29Z</time>
      </trkpt>
      <trkpt lat="45.56784" lon="6.00753">
        <ele>708.15</ele>
        <time>2019-04-30T10:43:39Z</time>
      </trkpt>
      <trkpt lat="45.56784" lon="6.00753">
        <ele>714.88</ele>
        <time>2019-04-30T10:43:40Z</time>
      </trkpt>
      <trkpt lat="45.56784" lon="6.00752">
        <ele>711.99</ele>
        <time>2019-04-30T10:43:43Z</time>
      </trkpt>
      <trkpt lat="45.56792" lon="6.0075">
        <ele>711.99</ele>
        <time>2019-04-30T10:43:58Z</time>
      </trkpt>
      <trkpt lat="45.56793" lon="6.00745">
        <ele>712.47</ele>
        <time>2019-04-30T10:44:11Z</time>
      </trkpt>
      <trkpt lat="45.568" lon="6.00727">
        <ele>713.92</ele>
        <time>2019-04-30T10:44:24Z</time>
      </trkpt>
      <trkpt lat="45.56802" lon="6.00722">
        <ele>714.4</ele>
        <time>2019-04-30T10:44:28Z</time>
      </trkpt>
      <trkpt lat="45.56805" lon="6.00711">
        <ele>715.36</ele>
        <time>2019-04-30T10:44:37Z</time>
      </trkpt>
      <trkpt lat="45.56812" lon="6.00684">
        <ele>716.8</ele>
        <time>2019-04-30T10:44:55Z</time>
      </trkpt>
      <trkpt lat="45.56819" lon="6.00665">
        <ele>719.2</ele>
        <time>2019-04-30T10:45:10Z</time>
      </trkpt>
      <trkpt lat="45.56823" lon="6.0065">
        <ele>722.09</ele>
        <time>2019-04-30T10:45:24Z</time>
      </trkpt>
      <trkpt lat="45.56833" lon="6.00631">
        <ele>723.53</ele>
        <time>2019-04-30T10:45:40Z</time>
      </trkpt>
      <trkpt lat="45.56847" lon="6.00614">
        <ele>724.97</ele>
        <time>2019-04-30T10:45:56Z</time>
      </trkpt>
      <trkpt lat="45.56848" lon="6.00613">
        <ele>724.97</ele>
        <time>2019-04-30T10:45:57Z</time>
      </trkpt>
      <trkpt lat="45.56858" lon="6.00594">
        <ele>727.37</ele>
        <time>2019-04-30T10:46:12Z</time>
      </trkpt>
      <trkpt lat="45.5687" lon="6.00581">
        <ele>727.86</ele>
        <time>2019-04-30T10:46:26Z</time>
      </trkpt>
      <trkpt lat="45.56884" lon="6.00573">
        <ele>729.3</ele>
        <time>2019-04-30T10:46:42Z</time>
      </trkpt>
      <trkpt lat="45.56893" lon="6.00564">
        <ele>732.18</ele>
        <time>2019-04-30T10:46:55Z</time>
      </trkpt>
      <trkpt lat="45.56888" lon="6.00551">
        <ele>733.14</ele>
        <time>2019-04-30T10:47:09Z</time>
      </trkpt>
      <trkpt lat="45.56879" lon="6.00544">
        <ele>733.62</ele>
        <time>2019-04-30T10:47:24Z</time>
      </trkpt>
      <trkpt lat="45.56865" lon="6.00534">
        <ele>734.1</ele>
        <time>2019-04-30T10:47:40Z</time>
      </trkpt>
      <trkpt lat="45.56854" lon="6.00525">
        <ele>734.58</ele>
        <time>2019-04-30T10:47:55Z</time>
      </trkpt>
      <trkpt lat="45.5685" lon="6.00521">
        <ele>735.07</ele>
        <time>2019-04-30T10:48:01Z</time>
      </trkpt>
      <trkpt lat="45.56839" lon="6.0051">
        <ele>735.55</ele>
        <time>2019-04-30T10:48:13Z</time>
      </trkpt>
      <trkpt lat="45.56822" lon="6.00499">
        <ele>737.47</ele>
        <time>2019-04-30T10:48:27Z</time>
      </trkpt>
      <trkpt lat="45.56808" lon="6.00489">
        <ele>739.87</ele>
        <time>2019-04-30T10:48:41Z</time>
      </trkpt>
      <trkpt lat="45.56807" lon="6.00488">
        <ele>738.91</ele>
        <time>2019-04-30T10:48:42Z</time>
      </trkpt>
      <trkpt lat="45.56798" lon="6.00477">
        <ele>740.35</ele>
        <time>2019-04-30T10:48:52Z</time>
      </trkpt>
      <trkpt lat="45.56798" lon="6.00464">
        <ele>744.2</ele>
        <time>2019-04-30T10:49:07Z</time>
      </trkpt>
      <trkpt lat="45.568" lon="6.00448">
        <ele>745.64</ele>
        <time>2019-04-30T10:49:22Z</time>
      </trkpt>
      <trkpt lat="45.56803" lon="6.00439">
        <ele>747.56</ele>
        <time>2019-04-30T10:49:30Z</time>
      </trkpt>
      <trkpt lat="45.56805" lon="6.00437">
        <ele>746.6</ele>
        <time>2019-04-30T10:49:32Z</time>
      </trkpt>
      <trkpt lat="45.56804" lon="6.00411">
        <ele>748.52</ele>
        <time>2019-04-30T10:49:49Z</time>
      </trkpt>
      <trkpt lat="45.56792" lon="6.00388">
        <ele>749</ele>
        <time>2019-04-30T10:50:09Z</time>
      </trkpt>
      <trkpt lat="45.56783" lon="6.00376">
        <ele>752.37</ele>
        <time>2019-04-30T10:50:23Z</time>
      </trkpt>
      <trkpt lat="45.56779" lon="6.00372">
        <ele>755.73</ele>
        <time>2019-04-30T10:50:39Z</time>
      </trkpt>
      <trkpt lat="45.56774" lon="6.00361">
        <ele>757.18</ele>
        <time>2019-04-30T10:50:56Z</time>
      </trkpt>
      <trkpt lat="45.56765" lon="6.00358">
        <ele>760.06</ele>
        <time>2019-04-30T10:51:09Z</time>
      </trkpt>
      <trkpt lat="45.56753" lon="6.00364">
        <ele>762.46</ele>
        <time>2019-04-30T10:51:25Z</time>
      </trkpt>
      <trkpt lat="45.56744" lon="6.00367">
        <ele>764.87</ele>
        <time>2019-04-30T10:51:41Z</time>
      </trkpt>
      <trkpt lat="45.56736" lon="6.00358">
        <ele>766.79</ele>
        <time>2019-04-30T10:51:55Z</time>
      </trkpt>
      <trkpt lat="45.56737" lon="6.00337">
        <ele>768.71</ele>
        <time>2019-04-30T10:52:11Z</time>
      </trkpt>
      <trkpt lat="45.5674" lon="6.00319">
        <ele>772.08</ele>
        <time>2019-04-30T10:52:24Z</time>
      </trkpt>
      <trkpt lat="45.56742" lon="6.00302">
        <ele>774</ele>
        <time>2019-04-30T10:52:40Z</time>
      </trkpt>
      <trkpt lat="45.56746" lon="6.00286">
        <ele>775.92</ele>
        <time>2019-04-30T10:52:54Z</time>
      </trkpt>
      <trkpt lat="45.56741" lon="6.00276">
        <ele>779.77</ele>
        <time>2019-04-30T10:53:11Z</time>
      </trkpt>
      <trkpt lat="45.5673" lon="6.00267">
        <ele>782.17</ele>
        <time>2019-04-30T10:53:28Z</time>
      </trkpt>
      <trkpt lat="45.5672" lon="6.00262">
        <ele>783.13</ele>
        <time>2019-04-30T10:53:44Z</time>
      </trkpt>
      <trkpt lat="45.56711" lon="6.00256">
        <ele>786.98</ele>
        <time>2019-04-30T10:53:56Z</time>
      </trkpt>
      <trkpt lat="45.56699" lon="6.00252">
        <ele>787.46</ele>
        <time>2019-04-30T10:54:09Z</time>
      </trkpt>
      <trkpt lat="45.56684" lon="6.00251">
        <ele>787.94</ele>
        <time>2019-04-30T10:54:25Z</time>
      </trkpt>
      <trkpt lat="45.5667" lon="6.00254">
        <ele>787.46</ele>
        <time>2019-04-30T10:54:38Z</time>
      </trkpt>
      <trkpt lat="45.56661" lon="6.00259">
        <ele>787.46</ele>
        <time>2019-04-30T10:54:44Z</time>
      </trkpt>
      <trkpt lat="45.56654" lon="6.00262">
        <ele>787.46</ele>
        <time>2019-04-30T10:54:50Z</time>
      </trkpt>
      <trkpt lat="45.56639" lon="6.00269">
        <ele>788.42</ele>
        <time>2019-04-30T10:55:03Z</time>
      </trkpt>
      <trkpt lat="45.56634" lon="6.00268">
        <ele>788.9</ele>
        <time>2019-04-30T10:55:08Z</time>
      </trkpt>
      <trkpt lat="45.56624" lon="6.00269">
        <ele>789.86</ele>
        <time>2019-04-30T10:55:18Z</time>
      </trkpt>
      <trkpt lat="45.56611" lon="6.00269">
        <ele>791.78</ele>
        <time>2019-04-30T10:55:33Z</time>
      </trkpt>
      <trkpt lat="45.56598" lon="6.00274">
        <ele>793.22</ele>
        <time>2019-04-30T10:55:49Z</time>
      </trkpt>
      <trkpt lat="45.56586" lon="6.00266">
        <ele>793.22</ele>
        <time>2019-04-30T10:56:03Z</time>
      </trkpt>
      <trkpt lat="45.56566" lon="6.0026">
        <ele>792.74</ele>
        <time>2019-04-30T10:56:19Z</time>
      </trkpt>
      <trkpt lat="45.56556" lon="6.00252">
        <ele>796.59</ele>
        <time>2019-04-30T10:56:29Z</time>
      </trkpt>
      <trkpt lat="45.56556" lon="6.00251">
        <ele>792.74</ele>
        <time>2019-04-30T10:56:30Z</time>
      </trkpt>
      <trkpt lat="45.5655" lon="6.00247">
        <ele>792.26</ele>
        <time>2019-04-30T10:56:35Z</time>
      </trkpt>
      <trkpt lat="45.56541" lon="6.00238">
        <ele>792.26</ele>
        <time>2019-04-30T10:56:47Z</time>
      </trkpt>
      <trkpt lat="45.56538" lon="6.00232">
        <ele>791.78</ele>
        <time>2019-04-30T10:56:54Z</time>
      </trkpt>
      <trkpt lat="45.56531" lon="6.00218">
        <ele>790.82</ele>
        <time>2019-04-30T10:57:05Z</time>
      </trkpt>
      <trkpt lat="45.56528" lon="6.00206">
        <ele>789.86</ele>
        <time>2019-04-30T10:57:15Z</time>
      </trkpt>
      <trkpt lat="45.56521" lon="6.00199">
        <ele>791.3</ele>
        <time>2019-04-30T10:57:27Z</time>
      </trkpt>
      <trkpt lat="45.56517" lon="6.00197">
        <ele>791.3</ele>
        <time>2019-04-30T10:57:39Z</time>
      </trkpt>
      <trkpt lat="45.56517" lon="6.00196">
        <ele>791.78</ele>
        <time>2019-04-30T10:57:55Z</time>
      </trkpt>
      <trkpt lat="45.56516" lon="6.00196">
        <ele>792.26</ele>
        <time>2019-04-30T10:58:07Z</time>
      </trkpt>
      <trkpt lat="45.56516" lon="6.00193">
        <ele>791.3</ele>
        <time>2019-04-30T10:58:16Z</time>
      </trkpt>
      <trkpt lat="45.56513" lon="6.00191">
        <ele>790.82</ele>
        <time>2019-04-30T10:58:18Z</time>
      </trkpt>
      <trkpt lat="45.5651" lon="6.00189">
        <ele>791.3</ele>
        <time>2019-04-30T10:58:21Z</time>
      </trkpt>
      <trkpt lat="45.56507" lon="6.00188">
        <ele>791.3</ele>
        <time>2019-04-30T10:58:23Z</time>
      </trkpt>
      <trkpt lat="45.56494" lon="6.00186">
        <ele>789.86</ele>
        <time>2019-04-30T10:58:33Z</time>
      </trkpt>
      <trkpt lat="45.56482" lon="6.00182">
        <ele>789.38</ele>
        <time>2019-04-30T10:58:42Z</time>
      </trkpt>
      <trkpt lat="45.56465" lon="6.00172">
        <ele>790.34</ele>
        <time>2019-04-30T10:58:57Z</time>
      </trkpt>
      <trkpt lat="45.56456" lon="6.00166">
        <ele>792.74</ele>
        <time>2019-04-30T10:59:08Z</time>
      </trkpt>
      <trkpt lat="45.56446" lon="6.00159">
        <ele>796.11</ele>
        <time>2019-04-30T10:59:22Z</time>
      </trkpt>
      <trkpt lat="45.56436" lon="6.00148">
        <ele>797.07</ele>
        <time>2019-04-30T10:59:37Z</time>
      </trkpt>
      <trkpt lat="45.56426" lon="6.00136">
        <ele>799.95</ele>
        <time>2019-04-30T10:59:53Z</time>
      </trkpt>
      <trkpt lat="45.56418" lon="6.00126">
        <ele>803.32</ele>
        <time>2019-04-30T11:00:07Z</time>
      </trkpt>
      <trkpt lat="45.56412" lon="6.00117">
        <ele>805.24</ele>
        <time>2019-04-30T11:00:19Z</time>
      </trkpt>
      <trkpt lat="45.56406" lon="6.00109">
        <ele>806.2</ele>
        <time>2019-04-30T11:00:30Z</time>
      </trkpt>
      <trkpt lat="45.564" lon="6.00103">
        <ele>808.61</ele>
        <time>2019-04-30T11:00:41Z</time>
      </trkpt>
      <trkpt lat="45.56398" lon="6.00101">
        <ele>809.09</ele>
        <time>2019-04-30T11:00:44Z</time>
      </trkpt>
      <trkpt lat="45.56389" lon="6.00097">
        <ele>809.57</ele>
        <time>2019-04-30T11:00:56Z</time>
      </trkpt>
      <trkpt lat="45.56387" lon="6.00097">
        <ele>809.09</ele>
        <time>2019-04-30T11:00:58Z</time>
      </trkpt>
      <trkpt lat="45.56383" lon="6.00099">
        <ele>808.61</ele>
        <time>2019-04-30T11:01:11Z</time>
      </trkpt>
      <trkpt lat="45.56381" lon="6.00097">
        <ele>809.09</ele>
        <time>2019-04-30T11:01:21Z</time>
      </trkpt>
      <trkpt lat="45.56372" lon="6.0009">
        <ele>808.13</ele>
        <time>2019-04-30T11:01:32Z</time>
      </trkpt>
      <trkpt lat="45.56364" lon="6.00079">
        <ele>810.05</ele>
        <time>2019-04-30T11:01:43Z</time>
      </trkpt>
      <trkpt lat="45.56363" lon="6.00078">
        <ele>810.05</ele>
        <time>2019-04-30T11:01:44Z</time>
      </trkpt>
      <trkpt lat="45.56357" lon="6.00073">
        <ele>811.49</ele>
        <time>2019-04-30T11:01:51Z</time>
      </trkpt>
      <trkpt lat="45.5635" lon="6.00063">
        <ele>811.97</ele>
        <time>2019-04-30T11:02:01Z</time>
      </trkpt>
      <trkpt lat="45.56339" lon="6.00052">
        <ele>811.97</ele>
        <time>2019-04-30T11:02:14Z</time>
      </trkpt>
      <trkpt lat="45.5633" lon="6.00043">
        <ele>811.01</ele>
        <time>2019-04-30T11:02:27Z</time>
      </trkpt>
      <trkpt lat="45.56326" lon="6.00043">
        <ele>808.61</ele>
        <time>2019-04-30T11:02:40Z</time>
      </trkpt>
      <trkpt lat="45.56325" lon="6.00043">
        <ele>808.61</ele>
        <time>2019-04-30T11:02:41Z</time>
      </trkpt>
      <trkpt lat="45.56322" lon="6.00041">
        <ele>808.13</ele>
        <time>2019-04-30T11:02:56Z</time>
      </trkpt>
      <trkpt lat="45.56322" lon="6.0004">
        <ele>808.61</ele>
        <time>2019-04-30T11:03:14Z</time>
      </trkpt>
      <trkpt lat="45.56322" lon="6.0004">
        <ele>808.61</ele>
        <time>2019-04-30T11:03:31Z</time>
      </trkpt>
      <trkpt lat="45.56322" lon="6.0004">
        <ele>808.61</ele>
        <time>2019-04-30T11:03:55Z</time>
      </trkpt>
      <trkpt lat="45.56322" lon="6.00041">
        <ele>808.61</ele>
        <time>2019-04-30T11:04:15Z</time>
      </trkpt>
      <trkpt lat="45.56322" lon="6.00042">
        <ele>808.61</ele>
        <time>2019-04-30T11:04:29Z</time>
      </trkpt>
      <trkpt lat="45.56322" lon="6.00042">
        <ele>808.61</ele>
        <time>2019-04-30T11:04:49Z</time>
      </trkpt>
      <trkpt lat="45.56322" lon="6.00042">
        <ele>808.13</ele>
        <time>2019-04-30T11:04:57Z</time>
      </trkpt>
      <trkpt lat="45.56322" lon="6.00047">
        <ele>809.57</ele>
        <time>2019-04-30T11:05:01Z</time>
      </trkpt>
      <trkpt lat="45.56325" lon="6.00056">
        <ele>808.61</ele>
        <time>2019-04-30T11:05:08Z</time>
      </trkpt>
      <trkpt lat="45.56331" lon="6.00065">
        <ele>809.09</ele>
        <time>2019-04-30T11:05:21Z</time>
      </trkpt>
      <trkpt lat="45.56331" lon="6.00064">
        <ele>809.09</ele>
        <time>2019-04-30T11:05:36Z</time>
      </trkpt>
      <trkpt lat="45.56331" lon="6.00065">
        <ele>809.09</ele>
        <time>2019-04-30T11:05:49Z</time>
      </trkpt>
      <trkpt lat="45.56331" lon="6.00065">
        <ele>809.09</ele>
        <time>2019-04-30T11:06:10Z</time>
      </trkpt>
      <trkpt lat="45.56331" lon="6.00065">
        <ele>808.61</ele>
        <time>2019-04-30T11:06:40Z</time>
      </trkpt>
      <trkpt lat="45.5633" lon="6.00065">
        <ele>809.09</ele>
        <time>2019-04-30T11:07:10Z</time>
      </trkpt>
      <trkpt lat="45.56331" lon="6.00064">
        <ele>809.09</ele>
        <time>2019-04-30T11:07:38Z</time>
      </trkpt>
      <trkpt lat="45.56331" lon="6.00064">
        <ele>809.57</ele>
        <time>2019-04-30T11:08:05Z</time>
      </trkpt>
      <trkpt lat="45.56331" lon="6.00064">
        <ele>809.09</ele>
        <time>2019-04-30T11:08:32Z</time>
      </trkpt>
      <trkpt lat="45.5633" lon="6.00064">
        <ele>809.57</ele>
        <time>2019-04-30T11:09:01Z</time>
      </trkpt>
      <trkpt lat="45.5633" lon="6.00065">
        <ele>808.13</ele>
        <time>2019-04-30T11:09:12Z</time>
      </trkpt>
      <trkpt lat="45.5633" lon="6.00065">
        <ele>810.05</ele>
        <time>2019-04-30T11:09:36Z</time>
      </trkpt>
      <trkpt lat="45.5633" lon="6.00066">
        <ele>809.09</ele>
        <time>2019-04-30T11:09:50Z</time>
      </trkpt>
      <trkpt lat="45.56332" lon="6.00066">
        <ele>810.05</ele>
        <time>2019-04-30T11:10:04Z</time>
      </trkpt>
      <trkpt lat="45.56332" lon="6.00067">
        <ele>809.57</ele>
        <time>2019-04-30T11:10:21Z</time>
      </trkpt>
      <trkpt lat="45.56333" lon="6.00068">
        <ele>810.53</ele>
        <time>2019-04-30T11:10:39Z</time>
      </trkpt>
      <trkpt lat="45.56333" lon="6.00068">
        <ele>809.09</ele>
        <time>2019-04-30T11:10:43Z</time>
      </trkpt>
      <trkpt lat="45.5633" lon="6.00064">
        <ele>808.61</ele>
        <time>2019-04-30T11:10:57Z</time>
      </trkpt>
      <trkpt lat="45.56331" lon="6.00064">
        <ele>809.09</ele>
        <time>2019-04-30T11:11:19Z</time>
      </trkpt>
      <trkpt lat="45.56331" lon="6.00064">
        <ele>809.09</ele>
        <time>2019-04-30T11:11:49Z</time>
      </trkpt>
      <trkpt lat="45.56331" lon="6.00064">
        <ele>809.09</ele>
        <time>2019-04-30T11:12:21Z</time>
      </trkpt>
      <trkpt lat="45.56331" lon="6.00064">
        <ele>809.09</ele>
        <time>2019-04-30T11:12:54Z</time>
      </trkpt>
      <trkpt lat="45.56331" lon="6.00064">
        <ele>809.09</ele>
        <time>2019-04-30T11:13:23Z</time>
      </trkpt>
      <trkpt lat="45.56331" lon="6.00064">
        <ele>809.09</ele>
        <time>2019-04-30T11:13:51Z</time>
      </trkpt>
      <trkpt lat="45.56331" lon="6.00064">
        <ele>809.09</ele>
        <time>2019-04-30T11:14:28Z</time>
      </trkpt>
      <trkpt lat="45.56331" lon="6.00064">
        <ele>809.09</ele>
        <time>2019-04-30T11:15:04Z</time>
      </trkpt>
      <trkpt lat="45.56331" lon="6.00064">
        <ele>809.09</ele>
        <time>2019-04-30T11:15:39Z</time>
      </trkpt>
      <trkpt lat="45.56331" lon="6.00064">
        <ele>809.09</ele>
        <time>2019-04-30T11:16:14Z</time>
      </trkpt>
      <trkpt lat="45.56331" lon="6.00064">
        <ele>809.09</ele>
        <time>2019-04-30T11:16:55Z</time>
      </trkpt>
      <trkpt lat="45.56331" lon="6.00065">
        <ele>808.61</ele>
        <time>2019-04-30T11:17:30Z</time>
      </trkpt>
      <trkpt lat="45.56331" lon="6.00065">
        <ele>809.09</ele>
        <time>2019-04-30T11:18:06Z</time>
      </trkpt>
      <trkpt lat="45.56331" lon="6.00065">
        <ele>809.09</ele>
        <time>2019-04-30T11:18:32Z</time>
      </trkpt>
      <trkpt lat="45.56331" lon="6.00065">
        <ele>809.09</ele>
        <time>2019-04-30T11:19:06Z</time>
      </trkpt>
      <trkpt lat="45.56331" lon="6.00065">
        <ele>810.05</ele>
        <time>2019-04-30T11:19:46Z</time>
      </trkpt>
      <trkpt lat="45.56331" lon="6.00065">
        <ele>809.57</ele>
        <time>2019-04-30T11:20:23Z</time>
      </trkpt>
      <trkpt lat="45.56331" lon="6.00064">
        <ele>809.09</ele>
        <time>2019-04-30T11:20:51Z</time>
      </trkpt>
      <trkpt lat="45.56332" lon="6.00064">
        <ele>807.16</ele>
        <time>2019-04-30T11:21:17Z</time>
      </trkpt>
      <trkpt lat="45.56327" lon="6.00066">
        <ele>811.49</ele>
        <time>2019-04-30T12:15:45Z</time>
      </trkpt>
      <trkpt lat="45.56328" lon="6.00064">
        <ele>811.49</ele>
        <time>2019-04-30T12:15:46Z</time>
      </trkpt>
      <trkpt lat="45.56331" lon="6.00065">
        <ele>810.53</ele>
        <time>2019-04-30T12:16:10Z</time>
      </trkpt>
      <trkpt lat="45.56327" lon="6.00063">
        <ele>810.53</ele>
        <time>2019-04-30T12:16:21Z</time>
      </trkpt>
      <trkpt lat="45.56322" lon="6.00058">
        <ele>810.53</ele>
        <time>2019-04-30T12:16:32Z</time>
      </trkpt>
      <trkpt lat="45.56319" lon="6.00055">
        <ele>810.05</ele>
        <time>2019-04-30T12:16:47Z</time>
      </trkpt>
      <trkpt lat="45.56319" lon="6.00054">
        <ele>810.05</ele>
        <time>2019-04-30T12:17:02Z</time>
      </trkpt>
      <trkpt lat="45.56317" lon="6.00056">
        <ele>809.57</ele>
        <time>2019-04-30T12:17:17Z</time>
      </trkpt>
      <trkpt lat="45.56317" lon="6.00059">
        <ele>809.09</ele>
        <time>2019-04-30T12:17:34Z</time>
      </trkpt>
      <trkpt lat="45.56316" lon="6.00057">
        <ele>809.09</ele>
        <time>2019-04-30T12:17:53Z</time>
      </trkpt>
      <trkpt lat="45.56309" lon="6.00048">
        <ele>808.13</ele>
        <time>2019-04-30T12:18:08Z</time>
      </trkpt>
      <trkpt lat="45.56304" lon="6.00043">
        <ele>807.16</ele>
        <time>2019-04-30T12:18:17Z</time>
      </trkpt>
      <trkpt lat="45.56302" lon="6.00041">
        <ele>806.68</ele>
        <time>2019-04-30T12:18:19Z</time>
      </trkpt>
      <trkpt lat="45.56292" lon="6.00036">
        <ele>805.24</ele>
        <time>2019-04-30T12:18:33Z</time>
      </trkpt>
      <trkpt lat="45.5628" lon="6.00026">
        <ele>805.72</ele>
        <time>2019-04-30T12:18:50Z</time>
      </trkpt>
      <trkpt lat="45.56276" lon="6.00021">
        <ele>807.16</ele>
        <time>2019-04-30T12:19:07Z</time>
      </trkpt>
      <trkpt lat="45.5627" lon="6.00024">
        <ele>805.24</ele>
        <time>2019-04-30T12:19:23Z</time>
      </trkpt>
      <trkpt lat="45.56262" lon="6.00031">
        <ele>802.84</ele>
        <time>2019-04-30T12:19:40Z</time>
      </trkpt>
      <trkpt lat="45.56262" lon="6.00038">
        <ele>800.44</ele>
        <time>2019-04-30T12:19:55Z</time>
      </trkpt>
      <trkpt lat="45.56262" lon="6.00039">
        <ele>799.95</ele>
        <time>2019-04-30T12:19:59Z</time>
      </trkpt>
      <trkpt lat="45.56256" lon="6.0004">
        <ele>798.51</ele>
        <time>2019-04-30T12:20:13Z</time>
      </trkpt>
      <trkpt lat="45.56252" lon="6.00036">
        <ele>797.55</ele>
        <time>2019-04-30T12:20:21Z</time>
      </trkpt>
      <trkpt lat="45.56249" lon="6.00034">
        <ele>796.59</ele>
        <time>2019-04-30T12:20:33Z</time>
      </trkpt>
      <trkpt lat="45.56249" lon="6.00034">
        <ele>796.11</ele>
        <time>2019-04-30T12:20:36Z</time>
      </trkpt>
      <trkpt lat="45.56247" lon="6.0003">
        <ele>795.63</ele>
        <time>2019-04-30T12:20:40Z</time>
      </trkpt>
      <trkpt lat="45.56245" lon="6.00024">
        <ele>795.15</ele>
        <time>2019-04-30T12:20:44Z</time>
      </trkpt>
      <trkpt lat="45.56244" lon="6.0002">
        <ele>794.19</ele>
        <time>2019-04-30T12:20:47Z</time>
      </trkpt>
      <trkpt lat="45.5624" lon="6.00017">
        <ele>791.3</ele>
        <time>2019-04-30T12:21:00Z</time>
      </trkpt>
      <trkpt lat="45.5624" lon="6.0002">
        <ele>790.82</ele>
        <time>2019-04-30T12:21:03Z</time>
      </trkpt>
      <trkpt lat="45.56242" lon="6.00045">
        <ele>789.38</ele>
        <time>2019-04-30T12:21:19Z</time>
      </trkpt>
      <trkpt lat="45.56241" lon="6.00053">
        <ele>787.46</ele>
        <time>2019-04-30T12:21:31Z</time>
      </trkpt>
      <trkpt lat="45.56237" lon="6.00047">
        <ele>785.53</ele>
        <time>2019-04-30T12:21:43Z</time>
      </trkpt>
      <trkpt lat="45.56234" lon="6.00043">
        <ele>783.61</ele>
        <time>2019-04-30T12:21:55Z</time>
      </trkpt>
      <trkpt lat="45.56232" lon="6.00039">
        <ele>782.65</ele>
        <time>2019-04-30T12:22:11Z</time>
      </trkpt>
      <trkpt lat="45.56231" lon="6.00036">
        <ele>782.17</ele>
        <time>2019-04-30T12:22:26Z</time>
      </trkpt>
      <trkpt lat="45.56225" lon="6.00026">
        <ele>780.25</ele>
        <time>2019-04-30T12:22:40Z</time>
      </trkpt>
      <trkpt lat="45.56224" lon="6.00008">
        <ele>778.81</ele>
        <time>2019-04-30T12:22:56Z</time>
      </trkpt>
      <trkpt lat="45.56223" lon="5.99999">
        <ele>777.84</ele>
        <time>2019-04-30T12:23:08Z</time>
      </trkpt>
      <trkpt lat="45.56225" lon="5.99988">
        <ele>777.36</ele>
        <time>2019-04-30T12:23:22Z</time>
      </trkpt>
      <trkpt lat="45.56226" lon="5.99981">
        <ele>776.4</ele>
        <time>2019-04-30T12:23:34Z</time>
      </trkpt>
      <trkpt lat="45.5623" lon="5.99973">
        <ele>776.4</ele>
        <time>2019-04-30T12:23:49Z</time>
      </trkpt>
      <trkpt lat="45.56233" lon="5.99958">
        <ele>774.96</ele>
        <time>2019-04-30T12:23:59Z</time>
      </trkpt>
      <trkpt lat="45.56239" lon="5.9994">
        <ele>774.48</ele>
        <time>2019-04-30T12:24:13Z</time>
      </trkpt>
      <trkpt lat="45.56247" lon="5.99924">
        <ele>774.48</ele>
        <time>2019-04-30T12:24:24Z</time>
      </trkpt>
      <trkpt lat="45.56247" lon="5.99921">
        <ele>774.96</ele>
        <time>2019-04-30T12:24:26Z</time>
      </trkpt>
      <trkpt lat="45.56249" lon="5.99914">
        <ele>774.96</ele>
        <time>2019-04-30T12:24:32Z</time>
      </trkpt>
      <trkpt lat="45.56252" lon="5.999">
        <ele>773.52</ele>
        <time>2019-04-30T12:24:43Z</time>
      </trkpt>
      <trkpt lat="45.56255" lon="5.99889">
        <ele>772.08</ele>
        <time>2019-04-30T12:24:51Z</time>
      </trkpt>
      <trkpt lat="45.56255" lon="5.99888">
        <ele>771.11</ele>
        <time>2019-04-30T12:24:55Z</time>
      </trkpt>
      <trkpt lat="45.56255" lon="5.99885">
        <ele>770.15</ele>
        <time>2019-04-30T12:25:01Z</time>
      </trkpt>
      <trkpt lat="45.56254" lon="5.99884">
        <ele>770.15</ele>
        <time>2019-04-30T12:25:03Z</time>
      </trkpt>
      <trkpt lat="45.56257" lon="5.99882">
        <ele>769.19</ele>
        <time>2019-04-30T12:25:14Z</time>
      </trkpt>
      <trkpt lat="45.56263" lon="5.99871">
        <ele>768.23</ele>
        <time>2019-04-30T12:25:26Z</time>
      </trkpt>
      <trkpt lat="45.56266" lon="5.99869">
        <ele>768.23</ele>
        <time>2019-04-30T12:25:43Z</time>
      </trkpt>
      <trkpt lat="45.56267" lon="5.99868">
        <ele>768.23</ele>
        <time>2019-04-30T12:26:08Z</time>
      </trkpt>
      <trkpt lat="45.56267" lon="5.99868">
        <ele>768.23</ele>
        <time>2019-04-30T12:26:28Z</time>
      </trkpt>
      <trkpt lat="45.56269" lon="5.99866">
        <ele>767.27</ele>
        <time>2019-04-30T12:26:43Z</time>
      </trkpt>
      <trkpt lat="45.56278" lon="5.99866">
        <ele>765.83</ele>
        <time>2019-04-30T12:26:59Z</time>
      </trkpt>
      <trkpt lat="45.56293" lon="5.99867">
        <ele>764.87</ele>
        <time>2019-04-30T12:27:14Z</time>
      </trkpt>
      <trkpt lat="45.56298" lon="5.99866">
        <ele>763.42</ele>
        <time>2019-04-30T12:27:19Z</time>
      </trkpt>
      <trkpt lat="45.56311" lon="5.99865">
        <ele>762.46</ele>
        <time>2019-04-30T12:27:32Z</time>
      </trkpt>
      <trkpt lat="45.56315" lon="5.99864">
        <ele>761.98</ele>
        <time>2019-04-30T12:27:45Z</time>
      </trkpt>
      <trkpt lat="45.56327" lon="5.99863">
        <ele>761.02</ele>
        <time>2019-04-30T12:27:59Z</time>
      </trkpt>
      <trkpt lat="45.56328" lon="5.99863">
        <ele>760.54</ele>
        <time>2019-04-30T12:28:00Z</time>
      </trkpt>
      <trkpt lat="45.56337" lon="5.99864">
        <ele>759.58</ele>
        <time>2019-04-30T12:28:09Z</time>
      </trkpt>
      <trkpt lat="45.56354" lon="5.99864">
        <ele>758.62</ele>
        <time>2019-04-30T12:28:23Z</time>
      </trkpt>
      <trkpt lat="45.56366" lon="5.99857">
        <ele>757.18</ele>
        <time>2019-04-30T12:28:32Z</time>
      </trkpt>
      <trkpt lat="45.56361" lon="5.99845">
        <ele>755.25</ele>
        <time>2019-04-30T12:28:45Z</time>
      </trkpt>
      <trkpt lat="45.56345" lon="5.99845">
        <ele>753.33</ele>
        <time>2019-04-30T12:29:01Z</time>
      </trkpt>
      <trkpt lat="45.56341" lon="5.99844">
        <ele>753.81</ele>
        <time>2019-04-30T12:29:04Z</time>
      </trkpt>
      <trkpt lat="45.56328" lon="5.99838">
        <ele>753.33</ele>
        <time>2019-04-30T12:29:13Z</time>
      </trkpt>
      <trkpt lat="45.56318" lon="5.99828">
        <ele>753.33</ele>
        <time>2019-04-30T12:29:23Z</time>
      </trkpt>
      <trkpt lat="45.5631" lon="5.99814">
        <ele>752.85</ele>
        <time>2019-04-30T12:29:36Z</time>
      </trkpt>
      <trkpt lat="45.56298" lon="5.99804">
        <ele>752.37</ele>
        <time>2019-04-30T12:29:49Z</time>
      </trkpt>
      <trkpt lat="45.56282" lon="5.99796">
        <ele>751.89</ele>
        <time>2019-04-30T12:30:03Z</time>
      </trkpt>
      <trkpt lat="45.56275" lon="5.99794">
        <ele>750.93</ele>
        <time>2019-04-30T12:30:12Z</time>
      </trkpt>
      <trkpt lat="45.56266" lon="5.9979">
        <ele>749.97</ele>
        <time>2019-04-30T12:30:25Z</time>
      </trkpt>
      <trkpt lat="45.56265" lon="5.99788">
        <ele>749.49</ele>
        <time>2019-04-30T12:30:40Z</time>
      </trkpt>
      <trkpt lat="45.56268" lon="5.99782">
        <ele>747.56</ele>
        <time>2019-04-30T12:30:51Z</time>
      </trkpt>
      <trkpt lat="45.56275" lon="5.99768">
        <ele>744.68</ele>
        <time>2019-04-30T12:31:03Z</time>
      </trkpt>
      <trkpt lat="45.56282" lon="5.99759">
        <ele>742.28</ele>
        <time>2019-04-30T12:31:15Z</time>
      </trkpt>
      <trkpt lat="45.56287" lon="5.99753">
        <ele>740.35</ele>
        <time>2019-04-30T12:31:27Z</time>
      </trkpt>
      <trkpt lat="45.56295" lon="5.9974">
        <ele>737.47</ele>
        <time>2019-04-30T12:31:41Z</time>
      </trkpt>
      <trkpt lat="45.56305" lon="5.9972">
        <ele>735.07</ele>
        <time>2019-04-30T12:31:56Z</time>
      </trkpt>
      <trkpt lat="45.56313" lon="5.99703">
        <ele>734.1</ele>
        <time>2019-04-30T12:32:08Z</time>
      </trkpt>
      <trkpt lat="45.56318" lon="5.99686">
        <ele>731.7</ele>
        <time>2019-04-30T12:32:24Z</time>
      </trkpt>
      <trkpt lat="45.56319" lon="5.99668">
        <ele>728.82</ele>
        <time>2019-04-30T12:32:42Z</time>
      </trkpt>
      <trkpt lat="45.56324" lon="5.99652">
        <ele>725.45</ele>
        <time>2019-04-30T12:32:57Z</time>
      </trkpt>
      <trkpt lat="45.56325" lon="5.99643">
        <ele>724.01</ele>
        <time>2019-04-30T12:33:14Z</time>
      </trkpt>
      <trkpt lat="45.56328" lon="5.99634">
        <ele>721.61</ele>
        <time>2019-04-30T12:33:29Z</time>
      </trkpt>
      <trkpt lat="45.56328" lon="5.99624">
        <ele>719.2</ele>
        <time>2019-04-30T12:33:43Z</time>
      </trkpt>
      <trkpt lat="45.56331" lon="5.99614">
        <ele>716.32</ele>
        <time>2019-04-30T12:33:56Z</time>
      </trkpt>
      <trkpt lat="45.56337" lon="5.99595">
        <ele>712.95</ele>
        <time>2019-04-30T12:34:09Z</time>
      </trkpt>
      <trkpt lat="45.56339" lon="5.99587">
        <ele>711.51</ele>
        <time>2019-04-30T12:34:16Z</time>
      </trkpt>
      <trkpt lat="45.56348" lon="5.99568">
        <ele>709.59</ele>
        <time>2019-04-30T12:34:29Z</time>
      </trkpt>
      <trkpt lat="45.56351" lon="5.99563">
        <ele>707.19</ele>
        <time>2019-04-30T12:34:41Z</time>
      </trkpt>
      <trkpt lat="45.56353" lon="5.99553">
        <ele>705.75</ele>
        <time>2019-04-30T12:34:53Z</time>
      </trkpt>
      <trkpt lat="45.56357" lon="5.99535">
        <ele>702.38</ele>
        <time>2019-04-30T12:35:08Z</time>
      </trkpt>
      <trkpt lat="45.56359" lon="5.99527">
        <ele>699.5</ele>
        <time>2019-04-30T12:35:21Z</time>
      </trkpt>
      <trkpt lat="45.56364" lon="5.99509">
        <ele>696.61</ele>
        <time>2019-04-30T12:35:35Z</time>
      </trkpt>
      <trkpt lat="45.56359" lon="5.99491">
        <ele>695.17</ele>
        <time>2019-04-30T12:35:48Z</time>
      </trkpt>
      <trkpt lat="45.56356" lon="5.99485">
        <ele>693.73</ele>
        <time>2019-04-30T12:35:55Z</time>
      </trkpt>
      <trkpt lat="45.56361" lon="5.99473">
        <ele>691.81</ele>
        <time>2019-04-30T12:36:09Z</time>
      </trkpt>
      <trkpt lat="45.56362" lon="5.99472">
        <ele>691.81</ele>
        <time>2019-04-30T12:36:36Z</time>
      </trkpt>
      <trkpt lat="45.56368" lon="5.99454">
        <ele>689.88</ele>
        <time>2019-04-30T12:36:51Z</time>
      </trkpt>
      <trkpt lat="45.56369" lon="5.99453">
        <ele>689.88</ele>
        <time>2019-04-30T12:36:52Z</time>
      </trkpt>
      <trkpt lat="45.56373" lon="5.99446">
        <ele>689.4</ele>
        <time>2019-04-30T12:36:58Z</time>
      </trkpt>
      <trkpt lat="45.56389" lon="5.99434">
        <ele>687.48</ele>
        <time>2019-04-30T12:37:11Z</time>
      </trkpt>
      <trkpt lat="45.56393" lon="5.9943">
        <ele>687</ele>
        <time>2019-04-30T12:37:15Z</time>
      </trkpt>
      <trkpt lat="45.56402" lon="5.99421">
        <ele>685.08</ele>
        <time>2019-04-30T12:37:27Z</time>
      </trkpt>
      <trkpt lat="45.56405" lon="5.99413">
        <ele>684.12</ele>
        <time>2019-04-30T12:37:33Z</time>
      </trkpt>
      <trkpt lat="45.56408" lon="5.9941">
        <ele>687.48</ele>
        <time>2019-04-30T12:37:36Z</time>
      </trkpt>
      <trkpt lat="45.56409" lon="5.99409">
        <ele>684.6</ele>
        <time>2019-04-30T12:37:37Z</time>
      </trkpt>
      <trkpt lat="45.56411" lon="5.99406">
        <ele>683.63</ele>
        <time>2019-04-30T12:37:39Z</time>
      </trkpt>
      <trkpt lat="45.56417" lon="5.99399">
        <ele>683.15</ele>
        <time>2019-04-30T12:37:46Z</time>
      </trkpt>
      <trkpt lat="45.56419" lon="5.99395">
        <ele>682.19</ele>
        <time>2019-04-30T12:37:49Z</time>
      </trkpt>
      <trkpt lat="45.56421" lon="5.99393">
        <ele>681.23</ele>
        <time>2019-04-30T12:37:51Z</time>
      </trkpt>
      <trkpt lat="45.56424" lon="5.99384">
        <ele>680.27</ele>
        <time>2019-04-30T12:37:57Z</time>
      </trkpt>
      <trkpt lat="45.56424" lon="5.99383">
        <ele>680.75</ele>
        <time>2019-04-30T12:37:58Z</time>
      </trkpt>
      <trkpt lat="45.56426" lon="5.99379">
        <ele>680.27</ele>
        <time>2019-04-30T12:38:02Z</time>
      </trkpt>
      <trkpt lat="45.56435" lon="5.99368">
        <ele>678.83</ele>
        <time>2019-04-30T12:38:14Z</time>
      </trkpt>
      <trkpt lat="45.56437" lon="5.99366">
        <ele>678.35</ele>
        <time>2019-04-30T12:38:16Z</time>
      </trkpt>
      <trkpt lat="45.56453" lon="5.9936">
        <ele>675.94</ele>
        <time>2019-04-30T12:38:32Z</time>
      </trkpt>
      <trkpt lat="45.56469" lon="5.99346">
        <ele>675.46</ele>
        <time>2019-04-30T12:38:53Z</time>
      </trkpt>
      <trkpt lat="45.56484" lon="5.99333">
        <ele>676.42</ele>
        <time>2019-04-30T12:39:05Z</time>
      </trkpt>
      <trkpt lat="45.56489" lon="5.99332">
        <ele>677.87</ele>
        <time>2019-04-30T12:39:11Z</time>
      </trkpt>
      <trkpt lat="45.56497" lon="5.99328">
        <ele>678.35</ele>
        <time>2019-04-30T12:39:21Z</time>
      </trkpt>
      <trkpt lat="45.56507" lon="5.99326">
        <ele>677.87</ele>
        <time>2019-04-30T12:39:29Z</time>
      </trkpt>
      <trkpt lat="45.56514" lon="5.99325">
        <ele>677.87</ele>
        <time>2019-04-30T12:39:34Z</time>
      </trkpt>
      <trkpt lat="45.56527" lon="5.99325">
        <ele>676.42</ele>
        <time>2019-04-30T12:39:46Z</time>
      </trkpt>
      <trkpt lat="45.5653" lon="5.99325">
        <ele>675.94</ele>
        <time>2019-04-30T12:39:50Z</time>
      </trkpt>
      <trkpt lat="45.56543" lon="5.99327">
        <ele>674.98</ele>
        <time>2019-04-30T12:40:03Z</time>
      </trkpt>
      <trkpt lat="45.56543" lon="5.99327">
        <ele>674.98</ele>
        <time>2019-04-30T12:40:04Z</time>
      </trkpt>
      <trkpt lat="45.56554" lon="5.99331">
        <ele>673.54</ele>
        <time>2019-04-30T12:40:17Z</time>
      </trkpt>
      <trkpt lat="45.56567" lon="5.99331">
        <ele>672.58</ele>
        <time>2019-04-30T12:40:31Z</time>
      </trkpt>
      <trkpt lat="45.56574" lon="5.99333">
        <ele>672.58</ele>
        <time>2019-04-30T12:40:39Z</time>
      </trkpt>
      <trkpt lat="45.56583" lon="5.99337">
        <ele>671.62</ele>
        <time>2019-04-30T12:40:48Z</time>
      </trkpt>
      <trkpt lat="45.56592" lon="5.99336">
        <ele>671.62</ele>
        <time>2019-04-30T12:40:59Z</time>
      </trkpt>
      <trkpt lat="45.56596" lon="5.99338">
        <ele>670.66</ele>
        <time>2019-04-30T12:41:03Z</time>
      </trkpt>
      <trkpt lat="45.56599" lon="5.99338">
        <ele>670.66</ele>
        <time>2019-04-30T12:41:05Z</time>
      </trkpt>
      <trkpt lat="45.56606" lon="5.99338">
        <ele>670.18</ele>
        <time>2019-04-30T12:41:12Z</time>
      </trkpt>
      <trkpt lat="45.5662" lon="5.99342">
        <ele>669.7</ele>
        <time>2019-04-30T12:41:24Z</time>
      </trkpt>
      <trkpt lat="45.56634" lon="5.99343">
        <ele>668.73</ele>
        <time>2019-04-30T12:41:37Z</time>
      </trkpt>
      <trkpt lat="45.56651" lon="5.99342">
        <ele>666.81</ele>
        <time>2019-04-30T12:41:52Z</time>
      </trkpt>
      <trkpt lat="45.56663" lon="5.99346">
        <ele>666.33</ele>
        <time>2019-04-30T12:42:04Z</time>
      </trkpt>
      <trkpt lat="45.56674" lon="5.99347">
        <ele>664.41</ele>
        <time>2019-04-30T12:42:17Z</time>
      </trkpt>
      <trkpt lat="45.56698" lon="5.99344">
        <ele>662.49</ele>
        <time>2019-04-30T12:42:34Z</time>
      </trkpt>
      <trkpt lat="45.56718" lon="5.99342">
        <ele>662.01</ele>
        <time>2019-04-30T12:42:51Z</time>
      </trkpt>
      <trkpt lat="45.56733" lon="5.99342">
        <ele>661.52</ele>
        <time>2019-04-30T12:43:06Z</time>
      </trkpt>
      <trkpt lat="45.56751" lon="5.9934">
        <ele>661.52</ele>
        <time>2019-04-30T12:43:22Z</time>
      </trkpt>
      <trkpt lat="45.5676" lon="5.99342">
        <ele>660.56</ele>
        <time>2019-04-30T12:43:31Z</time>
      </trkpt>
      <trkpt lat="45.56774" lon="5.99345">
        <ele>659.6</ele>
        <time>2019-04-30T12:43:44Z</time>
      </trkpt>
      <trkpt lat="45.56783" lon="5.99348">
        <ele>659.12</ele>
        <time>2019-04-30T12:43:58Z</time>
      </trkpt>
      <trkpt lat="45.56801" lon="5.99343">
        <ele>658.16</ele>
        <time>2019-04-30T12:44:13Z</time>
      </trkpt>
      <trkpt lat="45.56818" lon="5.99337">
        <ele>657.68</ele>
        <time>2019-04-30T12:44:27Z</time>
      </trkpt>
      <trkpt lat="45.56834" lon="5.99334">
        <ele>657.68</ele>
        <time>2019-04-30T12:44:43Z</time>
      </trkpt>
      <trkpt lat="45.56847" lon="5.99327">
        <ele>658.64</ele>
        <time>2019-04-30T12:44:57Z</time>
      </trkpt>
      <trkpt lat="45.5686" lon="5.99321">
        <ele>658.64</ele>
        <time>2019-04-30T12:45:10Z</time>
      </trkpt>
      <trkpt lat="45.56869" lon="5.99313">
        <ele>658.16</ele>
        <time>2019-04-30T12:45:25Z</time>
      </trkpt>
      <trkpt lat="45.5688" lon="5.99303">
        <ele>658.16</ele>
        <time>2019-04-30T12:45:38Z</time>
      </trkpt>
      <trkpt lat="45.56893" lon="5.99291">
        <ele>659.12</ele>
        <time>2019-04-30T12:45:54Z</time>
      </trkpt>
      <trkpt lat="45.56907" lon="5.99281">
        <ele>659.12</ele>
        <time>2019-04-30T12:46:07Z</time>
      </trkpt>
      <trkpt lat="45.56921" lon="5.99269">
        <ele>660.08</ele>
        <time>2019-04-30T12:46:22Z</time>
      </trkpt>
      <trkpt lat="45.5693" lon="5.99265">
        <ele>660.08</ele>
        <time>2019-04-30T12:46:37Z</time>
      </trkpt>
      <trkpt lat="45.56936" lon="5.99266">
        <ele>660.08</ele>
        <time>2019-04-30T12:46:41Z</time>
      </trkpt>
      <trkpt lat="45.56951" lon="5.99267">
        <ele>660.56</ele>
        <time>2019-04-30T12:46:56Z</time>
      </trkpt>
      <trkpt lat="45.56959" lon="5.99269">
        <ele>659.12</ele>
        <time>2019-04-30T12:47:07Z</time>
      </trkpt>
      <trkpt lat="45.56968" lon="5.99276">
        <ele>657.68</ele>
        <time>2019-04-30T12:47:19Z</time>
      </trkpt>
      <trkpt lat="45.56983" lon="5.99277">
        <ele>657.68</ele>
        <time>2019-04-30T12:47:33Z</time>
      </trkpt>
      <trkpt lat="45.56985" lon="5.99278">
        <ele>657.2</ele>
        <time>2019-04-30T12:47:49Z</time>
      </trkpt>
      <trkpt lat="45.56987" lon="5.99279">
        <ele>657.2</ele>
        <time>2019-04-30T12:48:12Z</time>
      </trkpt>
      <trkpt lat="45.56991" lon="5.99278">
        <ele>657.2</ele>
        <time>2019-04-30T12:48:36Z</time>
      </trkpt>
      <trkpt lat="45.56998" lon="5.9928">
        <ele>657.68</ele>
        <time>2019-04-30T12:48:53Z</time>
      </trkpt>
      <trkpt lat="45.57001" lon="5.9928">
        <ele>656.72</ele>
        <time>2019-04-30T12:49:09Z</time>
      </trkpt>
      <trkpt lat="45.57002" lon="5.99278">
        <ele>655.76</ele>
        <time>2019-04-30T12:49:11Z</time>
      </trkpt>
      <trkpt lat="45.57002" lon="5.99271">
        <ele>652.39</ele>
        <time>2019-04-30T12:49:27Z</time>
      </trkpt>
      <trkpt lat="45.57002" lon="5.99269">
        <ele>649.51</ele>
        <time>2019-04-30T12:49:45Z</time>
      </trkpt>
      <trkpt lat="45.57003" lon="5.99265">
        <ele>648.55</ele>
        <time>2019-04-30T12:50:01Z</time>
      </trkpt>
      <trkpt lat="45.57003" lon="5.99263">
        <ele>646.62</ele>
        <time>2019-04-30T12:50:20Z</time>
      </trkpt>
      <trkpt lat="45.57002" lon="5.9926">
        <ele>643.26</ele>
        <time>2019-04-30T12:50:33Z</time>
      </trkpt>
      <trkpt lat="45.57006" lon="5.9925">
        <ele>642.3</ele>
        <time>2019-04-30T12:50:46Z</time>
      </trkpt>
      <trkpt lat="45.57012" lon="5.99237">
        <ele>640.38</ele>
        <time>2019-04-30T12:50:59Z</time>
      </trkpt>
      <trkpt lat="45.57019" lon="5.9923">
        <ele>639.89</ele>
        <time>2019-04-30T12:51:13Z</time>
      </trkpt>
      <trkpt lat="45.57024" lon="5.99231">
        <ele>638.93</ele>
        <time>2019-04-30T12:51:30Z</time>
      </trkpt>
      <trkpt lat="45.57028" lon="5.99232">
        <ele>635.57</ele>
        <time>2019-04-30T12:51:42Z</time>
      </trkpt>
      <trkpt lat="45.57028" lon="5.99233">
        <ele>642.78</ele>
        <time>2019-04-30T12:51:43Z</time>
      </trkpt>
      <trkpt lat="45.57028" lon="5.99233">
        <ele>639.41</ele>
        <time>2019-04-30T12:51:44Z</time>
      </trkpt>
      <trkpt lat="45.5703" lon="5.99231">
        <ele>636.53</ele>
        <time>2019-04-30T12:51:59Z</time>
      </trkpt>
      <trkpt lat="45.57026" lon="5.99226">
        <ele>633.65</ele>
        <time>2019-04-30T12:52:15Z</time>
      </trkpt>
      <trkpt lat="45.57023" lon="5.99223">
        <ele>630.28</ele>
        <time>2019-04-30T12:52:28Z</time>
      </trkpt>
      <trkpt lat="45.57021" lon="5.99219">
        <ele>627.4</ele>
        <time>2019-04-30T12:52:40Z</time>
      </trkpt>
      <trkpt lat="45.5702" lon="5.99219">
        <ele>625.47</ele>
        <time>2019-04-30T12:52:45Z</time>
      </trkpt>
      <trkpt lat="45.57009" lon="5.9921">
        <ele>623.55</ele>
        <time>2019-04-30T12:53:03Z</time>
      </trkpt>
      <trkpt lat="45.57002" lon="5.992">
        <ele>620.19</ele>
        <time>2019-04-30T12:53:16Z</time>
      </trkpt>
      <trkpt lat="45.57001" lon="5.99198">
        <ele>626.92</ele>
        <time>2019-04-30T12:53:17Z</time>
      </trkpt>
      <trkpt lat="45.57001" lon="5.99189">
        <ele>624.03</ele>
        <time>2019-04-30T12:53:18Z</time>
      </trkpt>
      <trkpt lat="45.56997" lon="5.99181">
        <ele>620.67</ele>
        <time>2019-04-30T12:53:34Z</time>
      </trkpt>
      <trkpt lat="45.56987" lon="5.99173">
        <ele>618.26</ele>
        <time>2019-04-30T12:53:49Z</time>
      </trkpt>
      <trkpt lat="45.5698" lon="5.99168">
        <ele>615.38</ele>
        <time>2019-04-30T12:54:06Z</time>
      </trkpt>
      <trkpt lat="45.56975" lon="5.99164">
        <ele>612.98</ele>
        <time>2019-04-30T12:54:24Z</time>
      </trkpt>
      <trkpt lat="45.56946" lon="5.99178">
        <ele>610.09</ele>
        <time>2019-04-30T12:54:43Z</time>
      </trkpt>
      <trkpt lat="45.56924" lon="5.99186">
        <ele>606.73</ele>
        <time>2019-04-30T12:54:55Z</time>
      </trkpt>
      <trkpt lat="45.56921" lon="5.99185">
        <ele>603.85</ele>
        <time>2019-04-30T12:55:09Z</time>
      </trkpt>
      <trkpt lat="45.56906" lon="5.99184">
        <ele>600.48</ele>
        <time>2019-04-30T12:55:20Z</time>
      </trkpt>
      <trkpt lat="45.56897" lon="5.99183">
        <ele>597.12</ele>
        <time>2019-04-30T12:55:35Z</time>
      </trkpt>
      <trkpt lat="45.56891" lon="5.99182">
        <ele>594.71</ele>
        <time>2019-04-30T12:55:52Z</time>
      </trkpt>
      <trkpt lat="45.56871" lon="5.99173">
        <ele>592.31</ele>
        <time>2019-04-30T12:56:09Z</time>
      </trkpt>
      <trkpt lat="45.56841" lon="5.99165">
        <ele>589.91</ele>
        <time>2019-04-30T12:56:25Z</time>
      </trkpt>
      <trkpt lat="45.56828" lon="5.9916">
        <ele>588.95</ele>
        <time>2019-04-30T12:56:38Z</time>
      </trkpt>
      <trkpt lat="45.56815" lon="5.99155">
        <ele>587.02</ele>
        <time>2019-04-30T12:56:53Z</time>
      </trkpt>
      <trkpt lat="45.56796" lon="5.99145">
        <ele>585.1</ele>
        <time>2019-04-30T12:57:11Z</time>
      </trkpt>
      <trkpt lat="45.56779" lon="5.99138">
        <ele>582.7</ele>
        <time>2019-04-30T12:57:28Z</time>
      </trkpt>
      <trkpt lat="45.5676" lon="5.99123">
        <ele>582.22</ele>
        <time>2019-04-30T12:57:45Z</time>
      </trkpt>
      <trkpt lat="45.56749" lon="5.99109">
        <ele>580.29</ele>
        <time>2019-04-30T12:57:59Z</time>
      </trkpt>
      <trkpt lat="45.56734" lon="5.99095">
        <ele>577.89</ele>
        <time>2019-04-30T12:58:18Z</time>
      </trkpt>
      <trkpt lat="45.56722" lon="5.99084">
        <ele>575.01</ele>
        <time>2019-04-30T12:58:37Z</time>
      </trkpt>
      <trkpt lat="45.56712" lon="5.99068">
        <ele>573.08</ele>
        <time>2019-04-30T12:58:53Z</time>
      </trkpt>
      <trkpt lat="45.56712" lon="5.99064">
        <ele>572.6</ele>
        <time>2019-04-30T12:59:11Z</time>
      </trkpt>
      <trkpt lat="45.56695" lon="5.99051">
        <ele>571.16</ele>
        <time>2019-04-30T12:59:26Z</time>
      </trkpt>
      <trkpt lat="45.56677" lon="5.99042">
        <ele>570.2</ele>
        <time>2019-04-30T12:59:43Z</time>
      </trkpt>
      <trkpt lat="45.56663" lon="5.9904">
        <ele>569.72</ele>
        <time>2019-04-30T13:00:02Z</time>
      </trkpt>
      <trkpt lat="45.5665" lon="5.99037">
        <ele>569.72</ele>
        <time>2019-04-30T13:00:21Z</time>
      </trkpt>
      <trkpt lat="45.56618" lon="5.99029">
        <ele>569.24</ele>
        <time>2019-04-30T13:00:37Z</time>
      </trkpt>
      <trkpt lat="45.56599" lon="5.99025">
        <ele>569.24</ele>
        <time>2019-04-30T13:00:54Z</time>
      </trkpt>
      <trkpt lat="45.56594" lon="5.99024">
        <ele>569.72</ele>
        <time>2019-04-30T13:00:59Z</time>
      </trkpt>
      <trkpt lat="45.56572" lon="5.99018">
        <ele>571.16</ele>
        <time>2019-04-30T13:01:18Z</time>
      </trkpt>
      <trkpt lat="45.56561" lon="5.99011">
        <ele>572.12</ele>
        <time>2019-04-30T13:01:33Z</time>
      </trkpt>
      <trkpt lat="45.56546" lon="5.99005">
        <ele>572.12</ele>
        <time>2019-04-30T13:01:50Z</time>
      </trkpt>
      <trkpt lat="45.56524" lon="5.98997">
        <ele>568.76</ele>
        <time>2019-04-30T13:02:07Z</time>
      </trkpt>
      <trkpt lat="45.56505" lon="5.98996">
        <ele>569.72</ele>
        <time>2019-04-30T13:02:24Z</time>
      </trkpt>
      <trkpt lat="45.56501" lon="5.98996">
        <ele>567.8</ele>
        <time>2019-04-30T13:02:27Z</time>
      </trkpt>
      <trkpt lat="45.56498" lon="5.98997">
        <ele>567.32</ele>
        <time>2019-04-30T13:02:30Z</time>
      </trkpt>
      <trkpt lat="45.56484" lon="5.99005">
        <ele>566.35</ele>
        <time>2019-04-30T13:02:43Z</time>
      </trkpt>
      <trkpt lat="45.56476" lon="5.99013">
        <ele>564.91</ele>
        <time>2019-04-30T13:02:54Z</time>
      </trkpt>
      <trkpt lat="45.56468" lon="5.99022">
        <ele>563.95</ele>
        <time>2019-04-30T13:03:05Z</time>
      </trkpt>
      <trkpt lat="45.56457" lon="5.99031">
        <ele>561.07</ele>
        <time>2019-04-30T13:03:19Z</time>
      </trkpt>
      <trkpt lat="45.56453" lon="5.9902">
        <ele>558.18</ele>
        <time>2019-04-30T13:03:35Z</time>
      </trkpt>
      <trkpt lat="45.56461" lon="5.99007">
        <ele>555.3</ele>
        <time>2019-04-30T13:03:50Z</time>
      </trkpt>
      <trkpt lat="45.56467" lon="5.99001">
        <ele>554.82</ele>
        <time>2019-04-30T13:03:58Z</time>
      </trkpt>
      <trkpt lat="45.56474" lon="5.98991">
        <ele>552.41</ele>
        <time>2019-04-30T13:04:13Z</time>
      </trkpt>
      <trkpt lat="45.56484" lon="5.98978">
        <ele>549.53</ele>
        <time>2019-04-30T13:04:30Z</time>
      </trkpt>
      <trkpt lat="45.56494" lon="5.98966">
        <ele>548.09</ele>
        <time>2019-04-30T13:04:44Z</time>
      </trkpt>
      <trkpt lat="45.5651" lon="5.98954">
        <ele>545.2</ele>
        <time>2019-04-30T13:05:02Z</time>
      </trkpt>
      <trkpt lat="45.56519" lon="5.98945">
        <ele>542.8</ele>
        <time>2019-04-30T13:05:17Z</time>
      </trkpt>
      <trkpt lat="45.5652" lon="5.98942">
        <ele>542.32</ele>
        <time>2019-04-30T13:05:19Z</time>
      </trkpt>
      <trkpt lat="45.56535" lon="5.98935">
        <ele>539.44</ele>
        <time>2019-04-30T13:05:36Z</time>
      </trkpt>
      <trkpt lat="45.56549" lon="5.98926">
        <ele>536.55</ele>
        <time>2019-04-30T13:05:54Z</time>
      </trkpt>
      <trkpt lat="45.56564" lon="5.98921">
        <ele>533.67</ele>
        <time>2019-04-30T13:06:13Z</time>
      </trkpt>
      <trkpt lat="45.56577" lon="5.98919">
        <ele>530.3</ele>
        <time>2019-04-30T13:06:29Z</time>
      </trkpt>
      <trkpt lat="45.56588" lon="5.98919">
        <ele>527.9</ele>
        <time>2019-04-30T13:06:44Z</time>
      </trkpt>
      <trkpt lat="45.56599" lon="5.98917">
        <ele>526.46</ele>
        <time>2019-04-30T13:06:57Z</time>
      </trkpt>
      <trkpt lat="45.5661" lon="5.98919">
        <ele>525.02</ele>
        <time>2019-04-30T13:07:07Z</time>
      </trkpt>
      <trkpt lat="45.56628" lon="5.9892">
        <ele>523.09</ele>
        <time>2019-04-30T13:07:21Z</time>
      </trkpt>
      <trkpt lat="45.56643" lon="5.98918">
        <ele>521.65</ele>
        <time>2019-04-30T13:07:37Z</time>
      </trkpt>
      <trkpt lat="45.56652" lon="5.98924">
        <ele>518.29</ele>
        <time>2019-04-30T13:07:54Z</time>
      </trkpt>
      <trkpt lat="45.56653" lon="5.98924">
        <ele>522.13</ele>
        <time>2019-04-30T13:07:55Z</time>
      </trkpt>
      <trkpt lat="45.56655" lon="5.98925">
        <ele>518.77</ele>
        <time>2019-04-30T13:08:02Z</time>
      </trkpt>
      <trkpt lat="45.56662" lon="5.98923">
        <ele>515.4</ele>
        <time>2019-04-30T13:08:15Z</time>
      </trkpt>
      <trkpt lat="45.56669" lon="5.9892">
        <ele>512.52</ele>
        <time>2019-04-30T13:08:29Z</time>
      </trkpt>
      <trkpt lat="45.56674" lon="5.98914">
        <ele>509.16</ele>
        <time>2019-04-30T13:08:41Z</time>
      </trkpt>
      <trkpt lat="45.5668" lon="5.98907">
        <ele>506.27</ele>
        <time>2019-04-30T13:08:56Z</time>
      </trkpt>
      <trkpt lat="45.56683" lon="5.98904">
        <ele>503.39</ele>
        <time>2019-04-30T13:09:05Z</time>
      </trkpt>
      <trkpt lat="45.56685" lon="5.98902">
        <ele>501.95</ele>
        <time>2019-04-30T13:09:08Z</time>
      </trkpt>
      <trkpt lat="45.56689" lon="5.98897">
        <ele>499.06</ele>
        <time>2019-04-30T13:09:18Z</time>
      </trkpt>
      <trkpt lat="45.56697" lon="5.9889">
        <ele>495.22</ele>
        <time>2019-04-30T13:09:31Z</time>
      </trkpt>
      <trkpt lat="45.56703" lon="5.98886">
        <ele>491.85</ele>
        <time>2019-04-30T13:09:43Z</time>
      </trkpt>
      <trkpt lat="45.56709" lon="5.98878">
        <ele>488.49</ele>
        <time>2019-04-30T13:09:54Z</time>
      </trkpt>
      <trkpt lat="45.56716" lon="5.98867">
        <ele>485.12</ele>
        <time>2019-04-30T13:10:12Z</time>
      </trkpt>
      <trkpt lat="45.5672" lon="5.98864">
        <ele>481.76</ele>
        <time>2019-04-30T13:10:21Z</time>
      </trkpt>
      <trkpt lat="45.56723" lon="5.98861">
        <ele>478.87</ele>
        <time>2019-04-30T13:10:30Z</time>
      </trkpt>
      <trkpt lat="45.56727" lon="5.98858">
        <ele>475.51</ele>
        <time>2019-04-30T13:10:42Z</time>
      </trkpt>
      <trkpt lat="45.56736" lon="5.98852">
        <ele>473.59</ele>
        <time>2019-04-30T13:10:54Z</time>
      </trkpt>
      <trkpt lat="45.56745" lon="5.98846">
        <ele>470.22</ele>
        <time>2019-04-30T13:11:05Z</time>
      </trkpt>
      <trkpt lat="45.56748" lon="5.98842">
        <ele>467.34</ele>
        <time>2019-04-30T13:11:17Z</time>
      </trkpt>
      <trkpt lat="45.56754" lon="5.98836">
        <ele>463.97</ele>
        <time>2019-04-30T13:11:28Z</time>
      </trkpt>
      <trkpt lat="45.56759" lon="5.98833">
        <ele>460.13</ele>
        <time>2019-04-30T13:11:31Z</time>
      </trkpt>
      <trkpt lat="45.56761" lon="5.98831">
        <ele>465.42</ele>
        <time>2019-04-30T13:11:32Z</time>
      </trkpt>
      <trkpt lat="45.56763" lon="5.98829">
        <ele>462.05</ele>
        <time>2019-04-30T13:11:35Z</time>
      </trkpt>
      <trkpt lat="45.56768" lon="5.98823">
        <ele>459.17</ele>
        <time>2019-04-30T13:11:45Z</time>
      </trkpt>
      <trkpt lat="45.5677" lon="5.9882">
        <ele>458.21</ele>
        <time>2019-04-30T13:11:49Z</time>
      </trkpt>
      <trkpt lat="45.56771" lon="5.98819">
        <ele>457.24</ele>
        <time>2019-04-30T13:11:52Z</time>
      </trkpt>
      <trkpt lat="45.5678" lon="5.98812">
        <ele>455.32</ele>
        <time>2019-04-30T13:12:02Z</time>
      </trkpt>
      <trkpt lat="45.56785" lon="5.98807">
        <ele>452.44</ele>
        <time>2019-04-30T13:12:14Z</time>
      </trkpt>
      <trkpt lat="45.56788" lon="5.98802">
        <ele>450.03</ele>
        <time>2019-04-30T13:12:25Z</time>
      </trkpt>
      <trkpt lat="45.5679" lon="5.98797">
        <ele>447.63</ele>
        <time>2019-04-30T13:12:37Z</time>
      </trkpt>
      <trkpt lat="45.56795" lon="5.98792">
        <ele>444.27</ele>
        <time>2019-04-30T13:12:47Z</time>
      </trkpt>
      <trkpt lat="45.56808" lon="5.98786">
        <ele>440.9</ele>
        <time>2019-04-30T13:13:03Z</time>
      </trkpt>
      <trkpt lat="45.56817" lon="5.9878">
        <ele>437.54</ele>
        <time>2019-04-30T13:13:18Z</time>
      </trkpt>
      <trkpt lat="45.56829" lon="5.98764">
        <ele>434.17</ele>
        <time>2019-04-30T13:13:31Z</time>
      </trkpt>
      <trkpt lat="45.56841" lon="5.98755">
        <ele>431.29</ele>
        <time>2019-04-30T13:13:46Z</time>
      </trkpt>
      <trkpt lat="45.56851" lon="5.98746">
        <ele>428.4</ele>
        <time>2019-04-30T13:14:01Z</time>
      </trkpt>
      <trkpt lat="45.56848" lon="5.98735">
        <ele>425.04</ele>
        <time>2019-04-30T13:14:11Z</time>
      </trkpt>
      <trkpt lat="45.56849" lon="5.98725">
        <ele>421.68</ele>
        <time>2019-04-30T13:14:23Z</time>
      </trkpt>
      <trkpt lat="45.56853" lon="5.98713">
        <ele>418.31</ele>
        <time>2019-04-30T13:14:37Z</time>
      </trkpt>
      <trkpt lat="45.56856" lon="5.98706">
        <ele>415.43</ele>
        <time>2019-04-30T13:14:50Z</time>
      </trkpt>
      <trkpt lat="45.56862" lon="5.98691">
        <ele>412.06</ele>
        <time>2019-04-30T13:15:04Z</time>
      </trkpt>
      <trkpt lat="45.56865" lon="5.98676">
        <ele>409.66</ele>
        <time>2019-04-30T13:15:22Z</time>
      </trkpt>
      <trkpt lat="45.56866" lon="5.98673">
        <ele>406.29</ele>
        <time>2019-04-30T13:15:31Z</time>
      </trkpt>
      <trkpt lat="45.56866" lon="5.98672">
        <ele>410.62</ele>
        <time>2019-04-30T13:15:32Z</time>
      </trkpt>
      <trkpt lat="45.56866" lon="5.9867">
        <ele>407.74</ele>
        <time>2019-04-30T13:15:38Z</time>
      </trkpt>
      <trkpt lat="45.5687" lon="5.98659">
        <ele>404.37</ele>
        <time>2019-04-30T13:15:52Z</time>
      </trkpt>
      <trkpt lat="45.56872" lon="5.98647">
        <ele>401.97</ele>
        <time>2019-04-30T13:16:08Z</time>
      </trkpt>
      <trkpt lat="45.56874" lon="5.98638">
        <ele>399.57</ele>
        <time>2019-04-30T13:16:24Z</time>
      </trkpt>
      <trkpt lat="45.56879" lon="5.98628">
        <ele>396.68</ele>
        <time>2019-04-30T13:16:39Z</time>
      </trkpt>
      <trkpt lat="45.56881" lon="5.98623">
        <ele>394.76</ele>
        <time>2019-04-30T13:16:56Z</time>
      </trkpt>
      <trkpt lat="45.56882" lon="5.98612">
        <ele>391.39</ele>
        <time>2019-04-30T13:17:03Z</time>
      </trkpt>
      <trkpt lat="45.56885" lon="5.98601">
        <ele>391.39</ele>
        <time>2019-04-30T13:17:17Z</time>
      </trkpt>
      <trkpt lat="45.56887" lon="5.98594">
        <ele>389.47</ele>
        <time>2019-04-30T13:17:30Z</time>
      </trkpt>
      <trkpt lat="45.56882" lon="5.98595">
        <ele>388.99</ele>
        <time>2019-04-30T13:17:44Z</time>
      </trkpt>
      <trkpt lat="45.56869" lon="5.98595">
        <ele>389.47</ele>
        <time>2019-04-30T13:18:00Z</time>
      </trkpt>
      <trkpt lat="45.56863" lon="5.98591">
        <ele>390.43</ele>
        <time>2019-04-30T13:18:07Z</time>
      </trkpt>
      <trkpt lat="45.56861" lon="5.98588">
        <ele>386.59</ele>
        <time>2019-04-30T13:18:09Z</time>
      </trkpt>
      <trkpt lat="45.5686" lon="5.98588">
        <ele>394.28</ele>
        <time>2019-04-30T13:18:10Z</time>
      </trkpt>
      <trkpt lat="45.56859" lon="5.98587">
        <ele>390.43</ele>
        <time>2019-04-30T13:18:11Z</time>
      </trkpt>
      <trkpt lat="45.56846" lon="5.98588">
        <ele>390.91</ele>
        <time>2019-04-30T13:18:25Z</time>
      </trkpt>
      <trkpt lat="45.5683" lon="5.98583">
        <ele>391.39</ele>
        <time>2019-04-30T13:18:43Z</time>
      </trkpt>
      <trkpt lat="45.56811" lon="5.98581">
        <ele>391.39</ele>
        <time>2019-04-30T13:19:00Z</time>
      </trkpt>
      <trkpt lat="45.56798" lon="5.98577">
        <ele>391.87</ele>
        <time>2019-04-30T13:19:11Z</time>
      </trkpt>
      <trkpt lat="45.56784" lon="5.98578">
        <ele>392.36</ele>
        <time>2019-04-30T13:19:26Z</time>
      </trkpt>
      <trkpt lat="45.56772" lon="5.98574">
        <ele>392.36</ele>
        <time>2019-04-30T13:19:39Z</time>
      </trkpt>
      <trkpt lat="45.56759" lon="5.98569">
        <ele>392.84</ele>
        <time>2019-04-30T13:19:52Z</time>
      </trkpt>
      <trkpt lat="45.56746" lon="5.98556">
        <ele>391.87</ele>
        <time>2019-04-30T13:20:09Z</time>
      </trkpt>
      <trkpt lat="45.56746" lon="5.98552">
        <ele>392.36</ele>
        <time>2019-04-30T13:20:28Z</time>
      </trkpt>
      <trkpt lat="45.56746" lon="5.98552">
        <ele>393.32</ele>
        <time>2019-04-30T13:20:51Z</time>
      </trkpt>
      <trkpt lat="45.56746" lon="5.98551">
        <ele>392.36</ele>
        <time>2019-04-30T13:21:20Z</time>
      </trkpt>
      <trkpt lat="45.56746" lon="5.98551">
        <ele>391.87</ele>
        <time>2019-04-30T13:21:45Z</time>
      </trkpt>
      <trkpt lat="45.56746" lon="5.9855">
        <ele>390.43</ele>
        <time>2019-04-30T13:22:06Z</time>
      </trkpt>
      <trkpt lat="45.56747" lon="5.98548">
        <ele>390.91</ele>
        <time>2019-04-30T13:22:29Z</time>
      </trkpt>
      <trkpt lat="45.56747" lon="5.98547">
        <ele>390.43</ele>
        <time>2019-04-30T13:23:04Z</time>
      </trkpt>
      <trkpt lat="45.56747" lon="5.98548">
        <ele>390.43</ele>
        <time>2019-04-30T13:23:27Z</time>
      </trkpt>
      <trkpt lat="45.56746" lon="5.98549">
        <ele>390.91</ele>
        <time>2019-04-30T13:23:47Z</time>
      </trkpt>
      <trkpt lat="45.56748" lon="5.9855">
        <ele>389.95</ele>
        <time>2019-04-30T13:24:10Z</time>
      </trkpt>
      <trkpt lat="45.5675" lon="5.98551">
        <ele>390.43</ele>
        <time>2019-04-30T13:24:38Z</time>
      </trkpt>
      <trkpt lat="45.56752" lon="5.98545">
        <ele>388.03</ele>
        <time>2019-04-30T13:24:54Z</time>
      </trkpt>
      <trkpt lat="45.56752" lon="5.98545">
        <ele>386.59</ele>
        <time>2019-04-30T13:25:01Z</time>
      </trkpt>
      <trkpt lat="45.56762" lon="5.98531">
        <ele>383.7</ele>
        <time>2019-04-30T13:25:18Z</time>
      </trkpt>
      <trkpt lat="45.56764" lon="5.98517">
        <ele>380.82</ele>
        <time>2019-04-30T13:25:31Z</time>
      </trkpt>
      <trkpt lat="45.5677" lon="5.985">
        <ele>377.94</ele>
        <time>2019-04-30T13:25:49Z</time>
      </trkpt>
      <trkpt lat="45.56772" lon="5.98491">
        <ele>373.61</ele>
        <time>2019-04-30T13:25:59Z</time>
      </trkpt>
      <trkpt lat="45.56774" lon="5.98478">
        <ele>372.17</ele>
        <time>2019-04-30T13:26:16Z</time>
      </trkpt>
      <trkpt lat="45.56777" lon="5.9847">
        <ele>368.8</ele>
        <time>2019-04-30T13:26:28Z</time>
      </trkpt>
      <trkpt lat="45.5679" lon="5.98459">
        <ele>365.44</ele>
        <time>2019-04-30T13:26:43Z</time>
      </trkpt>
      <trkpt lat="45.56806" lon="5.98458">
        <ele>364</ele>
        <time>2019-04-30T13:27:00Z</time>
      </trkpt>
      <trkpt lat="45.56807" lon="5.98459">
        <ele>363.52</ele>
        <time>2019-04-30T13:27:01Z</time>
      </trkpt>
      <trkpt lat="45.56819" lon="5.98462">
        <ele>361.11</ele>
        <time>2019-04-30T13:27:15Z</time>
      </trkpt>
      <trkpt lat="45.5683" lon="5.98463">
        <ele>359.19</ele>
        <time>2019-04-30T13:27:28Z</time>
      </trkpt>
      <trkpt lat="45.56842" lon="5.98456">
        <ele>356.31</ele>
        <time>2019-04-30T13:27:42Z</time>
      </trkpt>
      <trkpt lat="45.56849" lon="5.98453">
        <ele>353.9</ele>
        <time>2019-04-30T13:27:55Z</time>
      </trkpt>
      <trkpt lat="45.56858" lon="5.9845">
        <ele>351.98</ele>
        <time>2019-04-30T13:28:05Z</time>
      </trkpt>
      <trkpt lat="45.56868" lon="5.98449">
        <ele>348.62</ele>
        <time>2019-04-30T13:28:18Z</time>
      </trkpt>
      <trkpt lat="45.56871" lon="5.98448">
        <ele>343.81</ele>
        <time>2019-04-30T13:28:23Z</time>
      </trkpt>
      <trkpt lat="45.56871" lon="5.98448">
        <ele>350.06</ele>
        <time>2019-04-30T13:28:24Z</time>
      </trkpt>
      <trkpt lat="45.56875" lon="5.98445">
        <ele>346.21</ele>
        <time>2019-04-30T13:28:35Z</time>
      </trkpt>
      <trkpt lat="45.56882" lon="5.9844">
        <ele>342.85</ele>
        <time>2019-04-30T13:28:43Z</time>
      </trkpt>
      <trkpt lat="45.56893" lon="5.9843">
        <ele>340.44</ele>
        <time>2019-04-30T13:29:00Z</time>
      </trkpt>
      <trkpt lat="45.56897" lon="5.98426">
        <ele>337.56</ele>
        <time>2019-04-30T13:29:10Z</time>
      </trkpt>
      <trkpt lat="45.56902" lon="5.98422">
        <ele>334.68</ele>
        <time>2019-04-30T13:29:21Z</time>
      </trkpt>
      <trkpt lat="45.56908" lon="5.98426">
        <ele>331.31</ele>
        <time>2019-04-30T13:29:41Z</time>
      </trkpt>
      <trkpt lat="45.56934" lon="5.9842">
        <ele>328.43</ele>
        <time>2019-04-30T13:29:58Z</time>
      </trkpt>
      <trkpt lat="45.56938" lon="5.98412">
        <ele>327.95</ele>
        <time>2019-04-30T13:30:03Z</time>
      </trkpt>
      <trkpt lat="45.56942" lon="5.98395">
        <ele>326.5</ele>
        <time>2019-04-30T13:30:14Z</time>
      </trkpt>
      <trkpt lat="45.56946" lon="5.98385">
        <ele>322.66</ele>
        <time>2019-04-30T13:30:23Z</time>
      </trkpt>
      <trkpt lat="45.56947" lon="5.98384">
        <ele>326.02</ele>
        <time>2019-04-30T13:30:24Z</time>
      </trkpt>
      <trkpt lat="45.56951" lon="5.98376">
        <ele>323.14</ele>
        <time>2019-04-30T13:30:32Z</time>
      </trkpt>
      <trkpt lat="45.56959" lon="5.98363">
        <ele>320.74</ele>
        <time>2019-04-30T13:30:44Z</time>
      </trkpt>
      <trkpt lat="45.56966" lon="5.98354">
        <ele>317.85</ele>
        <time>2019-04-30T13:30:55Z</time>
      </trkpt>
      <trkpt lat="45.56967" lon="5.98352">
        <ele>317.85</ele>
        <time>2019-04-30T13:30:57Z</time>
      </trkpt>
      <trkpt lat="45.56974" lon="5.98342">
        <ele>315.93</ele>
        <time>2019-04-30T13:31:11Z</time>
      </trkpt>
      <trkpt lat="45.56974" lon="5.98342">
        <ele>315.93</ele>
        <time>2019-04-30T13:31:15Z</time>
      </trkpt>
      <trkpt lat="45.56974" lon="5.98335">
        <ele>315.45</ele>
        <time>2019-04-30T13:31:19Z</time>
      </trkpt>
      <trkpt lat="45.56976" lon="5.98327">
        <ele>314.97</ele>
        <time>2019-04-30T13:31:23Z</time>
      </trkpt>
      <trkpt lat="45.56977" lon="5.9832">
        <ele>314.49</ele>
        <time>2019-04-30T13:31:26Z</time>
      </trkpt>
      <trkpt lat="45.56982" lon="5.98312">
        <ele>314.97</ele>
        <time>2019-04-30T13:31:32Z</time>
      </trkpt>
      <trkpt lat="45.56983" lon="5.9831">
        <ele>313.53</ele>
        <time>2019-04-30T13:31:35Z</time>
      </trkpt>
      <trkpt lat="45.56989" lon="5.98295">
        <ele>312.57</ele>
        <time>2019-04-30T13:31:46Z</time>
      </trkpt>
      <trkpt lat="45.56991" lon="5.98295">
        <ele>312.09</ele>
        <time>2019-04-30T13:31:49Z</time>
      </trkpt>
      <trkpt lat="45.56998" lon="5.98287">
        <ele>311.12</ele>
        <time>2019-04-30T13:32:00Z</time>
      </trkpt>
      <trkpt lat="45.56998" lon="5.98286">
        <ele>311.12</ele>
        <time>2019-04-30T13:32:16Z</time>
      </trkpt>
      <trkpt lat="45.57001" lon="5.98281">
        <ele>310.64</ele>
        <time>2019-04-30T13:32:27Z</time>
      </trkpt>
      <trkpt lat="45.57004" lon="5.98267">
        <ele>310.16</ele>
        <time>2019-04-30T13:32:41Z</time>
      </trkpt>
      <trkpt lat="45.57009" lon="5.98256">
        <ele>309.68</ele>
        <time>2019-04-30T13:32:55Z</time>
      </trkpt>
      <trkpt lat="45.57011" lon="5.98238">
        <ele>308.72</ele>
        <time>2019-04-30T13:33:07Z</time>
      </trkpt>
      <trkpt lat="45.57014" lon="5.98224">
        <ele>308.24</ele>
        <time>2019-04-30T13:33:19Z</time>
      </trkpt>
      <trkpt lat="45.57014" lon="5.98222">
        <ele>308.24</ele>
        <time>2019-04-30T13:33:20Z</time>
      </trkpt>
      <trkpt lat="45.57015" lon="5.98214">
        <ele>307.76</ele>
        <time>2019-04-30T13:33:28Z</time>
      </trkpt>
      <trkpt lat="45.57009" lon="5.98196">
        <ele>307.28</ele>
        <time>2019-04-30T13:33:40Z</time>
      </trkpt>
      <trkpt lat="45.57008" lon="5.98194">
        <ele>307.28</ele>
        <time>2019-04-30T13:33:41Z</time>
      </trkpt>
      <trkpt lat="45.57008" lon="5.98189">
        <ele>307.28</ele>
        <time>2019-04-30T13:33:45Z</time>
      </trkpt>
      <trkpt lat="45.57008" lon="5.9818">
        <ele>307.28</ele>
        <time>2019-04-30T13:33:52Z</time>
      </trkpt>
      <trkpt lat="45.57007" lon="5.98168">
        <ele>306.8</ele>
        <time>2019-04-30T13:34:02Z</time>
      </trkpt>
      <trkpt lat="45.57011" lon="5.98159">
        <ele>307.28</ele>
        <time>2019-04-30T13:34:17Z</time>
      </trkpt>
      <trkpt lat="45.57012" lon="5.98158">
        <ele>306.8</ele>
        <time>2019-04-30T13:34:34Z</time>
      </trkpt>
      <trkpt lat="45.5701" lon="5.98153">
        <ele>307.28</ele>
        <time>2019-04-30T13:34:48Z</time>
      </trkpt>
      <trkpt lat="45.57009" lon="5.98151">
        <ele>307.76</ele>
        <time>2019-04-30T13:34:51Z</time>
      </trkpt>
      <trkpt lat="45.57009" lon="5.98148">
        <ele>307.28</ele>
        <time>2019-04-30T13:34:53Z</time>
      </trkpt>
      <trkpt lat="45.57005" lon="5.98137">
        <ele>306.8</ele>
        <time>2019-04-30T13:35:03Z</time>
      </trkpt>
      <trkpt lat="45.57002" lon="5.98127">
        <ele>304.39</ele>
        <time>2019-04-30T13:35:10Z</time>
      </trkpt>
      <trkpt lat="45.57001" lon="5.98126">
        <ele>309.2</ele>
        <time>2019-04-30T13:35:11Z</time>
      </trkpt>
      <trkpt lat="45.56996" lon="5.98103">
        <ele>306.32</ele>
        <time>2019-04-30T13:35:26Z</time>
      </trkpt>
      <trkpt lat="45.56995" lon="5.98101">
        <ele>306.8</ele>
        <time>2019-04-30T13:35:28Z</time>
      </trkpt>
      <trkpt lat="45.56994" lon="5.98092">
        <ele>306.32</ele>
        <time>2019-04-30T13:35:43Z</time>
      </trkpt>
      <trkpt lat="45.56995" lon="5.98091">
        <ele>305.84</ele>
        <time>2019-04-30T13:35:54Z</time>
      </trkpt>
      <trkpt lat="45.56993" lon="5.98096">
        <ele>305.84</ele>
        <time>2019-04-30T13:36:09Z</time>
      </trkpt>
      <trkpt lat="45.56993" lon="5.98093">
        <ele>305.84</ele>
        <time>2019-04-30T13:36:21Z</time>
      </trkpt>
      <trkpt lat="45.56993" lon="5.98093">
        <ele>305.84</ele>
        <time>2019-04-30T13:36:32Z</time>
      </trkpt>
      <trkpt lat="45.56992" lon="5.98091">
        <ele>306.32</ele>
        <time>2019-04-30T13:36:46Z</time>
      </trkpt>
      <trkpt lat="45.56991" lon="5.98089">
        <ele>305.36</ele>
        <time>2019-04-30T13:36:55Z</time>
      </trkpt>
      <trkpt lat="45.56988" lon="5.9808">
        <ele>309.68</ele>
        <time>2019-04-30T13:37:05Z</time>
      </trkpt>
      <trkpt lat="45.56988" lon="5.98081">
        <ele>305.84</ele>
        <time>2019-04-30T13:37:06Z</time>
      </trkpt>
      <trkpt lat="45.56988" lon="5.9808">
        <ele>305.84</ele>
        <time>2019-04-30T13:37:08Z</time>
      </trkpt>
      <trkpt lat="45.56982" lon="5.9806">
        <ele>305.84</ele>
        <time>2019-04-30T13:37:19Z</time>
      </trkpt>
      <trkpt lat="45.56981" lon="5.98058">
        <ele>306.32</ele>
        <time>2019-04-30T13:37:20Z</time>
      </trkpt>
      <trkpt lat="45.56981" lon="5.98054">
        <ele>305.84</ele>
        <time>2019-04-30T13:37:22Z</time>
      </trkpt>
      <trkpt lat="45.56973" lon="5.98033">
        <ele>306.32</ele>
        <time>2019-04-30T13:37:37Z</time>
      </trkpt>
      <trkpt lat="45.5697" lon="5.9802">
        <ele>305.84</ele>
        <time>2019-04-30T13:37:46Z</time>
      </trkpt>
      <trkpt lat="45.56969" lon="5.98015">
        <ele>305.84</ele>
        <time>2019-04-30T13:37:49Z</time>
      </trkpt>
      <trkpt lat="45.56964" lon="5.97999">
        <ele>305.84</ele>
        <time>2019-04-30T13:38:02Z</time>
      </trkpt>
      <trkpt lat="45.56961" lon="5.97991">
        <ele>305.36</ele>
        <time>2019-04-30T13:38:08Z</time>
      </trkpt>
      <trkpt lat="45.56961" lon="5.97985">
        <ele>305.36</ele>
        <time>2019-04-30T13:38:11Z</time>
      </trkpt>
      <trkpt lat="45.56958" lon="5.97972">
        <ele>305.36</ele>
        <time>2019-04-30T13:38:19Z</time>
      </trkpt>
      <trkpt lat="45.56957" lon="5.97966">
        <ele>305.36</ele>
        <time>2019-04-30T13:38:22Z</time>
      </trkpt>
      <trkpt lat="45.56956" lon="5.97958">
        <ele>305.84</ele>
        <time>2019-04-30T13:38:27Z</time>
      </trkpt>
      <trkpt lat="45.56957" lon="5.97953">
        <ele>300.55</ele>
        <time>2019-04-30T13:38:30Z</time>
      </trkpt>
      <trkpt lat="45.56958" lon="5.97951">
        <ele>309.2</ele>
        <time>2019-04-30T13:38:31Z</time>
      </trkpt>
      <trkpt lat="45.56958" lon="5.9795">
        <ele>305.84</ele>
        <time>2019-04-30T13:38:32Z</time>
      </trkpt>
      <trkpt lat="45.56963" lon="5.97933">
        <ele>305.84</ele>
        <time>2019-04-30T13:38:44Z</time>
      </trkpt>
      <trkpt lat="45.56966" lon="5.97927">
        <ele>306.32</ele>
        <time>2019-04-30T13:38:48Z</time>
      </trkpt>
      <trkpt lat="45.56968" lon="5.97922">
        <ele>306.32</ele>
        <time>2019-04-30T13:38:51Z</time>
      </trkpt>
      <trkpt lat="45.56973" lon="5.9791">
        <ele>306.32</ele>
        <time>2019-04-30T13:39:00Z</time>
      </trkpt>
      <trkpt lat="45.56987" lon="5.97896">
        <ele>306.32</ele>
        <time>2019-04-30T13:39:16Z</time>
      </trkpt>
      <trkpt lat="45.56989" lon="5.97891">
        <ele>306.32</ele>
        <time>2019-04-30T13:39:20Z</time>
      </trkpt>
      <trkpt lat="45.56986" lon="5.97882">
        <ele>306.8</ele>
        <time>2019-04-30T13:39:28Z</time>
      </trkpt>
      <trkpt lat="45.56975" lon="5.97866">
        <ele>306.32</ele>
        <time>2019-04-30T13:39:43Z</time>
      </trkpt>
      <trkpt lat="45.56974" lon="5.97864">
        <ele>306.32</ele>
        <time>2019-04-30T13:39:45Z</time>
      </trkpt>
      <trkpt lat="45.56974" lon="5.9786">
        <ele>306.32</ele>
        <time>2019-04-30T13:39:47Z</time>
      </trkpt>
      <trkpt lat="45.56966" lon="5.97848">
        <ele>305.84</ele>
        <time>2019-04-30T13:40:00Z</time>
      </trkpt>
      <trkpt lat="45.56966" lon="5.97847">
        <ele>305.84</ele>
        <time>2019-04-30T13:40:01Z</time>
      </trkpt>
      <trkpt lat="45.56964" lon="5.97843">
        <ele>308.24</ele>
        <time>2019-04-30T13:40:03Z</time>
      </trkpt>
      <trkpt lat="45.56967" lon="5.97825">
        <ele>306.32</ele>
        <time>2019-04-30T13:40:14Z</time>
      </trkpt>
      <trkpt lat="45.56967" lon="5.97818">
        <ele>306.8</ele>
        <time>2019-04-30T13:40:19Z</time>
      </trkpt>
      <trkpt lat="45.56967" lon="5.97808">
        <ele>306.32</ele>
        <time>2019-04-30T13:40:26Z</time>
      </trkpt>
      <trkpt lat="45.56968" lon="5.97801">
        <ele>305.84</ele>
        <time>2019-04-30T13:40:30Z</time>
      </trkpt>
      <trkpt lat="45.5697" lon="5.97787">
        <ele>305.84</ele>
        <time>2019-04-30T13:40:38Z</time>
      </trkpt>
      <trkpt lat="45.56969" lon="5.97781">
        <ele>306.32</ele>
        <time>2019-04-30T13:40:42Z</time>
      </trkpt>
      <trkpt lat="45.56964" lon="5.97761">
        <ele>305.84</ele>
        <time>2019-04-30T13:40:55Z</time>
      </trkpt>
      <trkpt lat="45.56959" lon="5.97742">
        <ele>305.84</ele>
        <time>2019-04-30T13:41:11Z</time>
      </trkpt>
      <trkpt lat="45.56958" lon="5.97737">
        <ele>305.36</ele>
        <time>2019-04-30T13:41:14Z</time>
      </trkpt>
      <trkpt lat="45.56955" lon="5.97728">
        <ele>305.36</ele>
        <time>2019-04-30T13:41:20Z</time>
      </trkpt>
      <trkpt lat="45.56947" lon="5.9771">
        <ele>306.32</ele>
        <time>2019-04-30T13:41:33Z</time>
      </trkpt>
      <trkpt lat="45.56943" lon="5.977">
        <ele>309.68</ele>
        <time>2019-04-30T13:41:41Z</time>
      </trkpt>
      <trkpt lat="45.56942" lon="5.97699">
        <ele>306.8</ele>
        <time>2019-04-30T13:41:42Z</time>
      </trkpt>
      <trkpt lat="45.56936" lon="5.97676">
        <ele>306.8</ele>
        <time>2019-04-30T13:41:55Z</time>
      </trkpt>
      <trkpt lat="45.56929" lon="5.97658">
        <ele>306.32</ele>
        <time>2019-04-30T13:42:08Z</time>
      </trkpt>
      <trkpt lat="45.56924" lon="5.97643">
        <ele>306.8</ele>
        <time>2019-04-30T13:42:17Z</time>
      </trkpt>
      <trkpt lat="45.56928" lon="5.97626">
        <ele>307.28</ele>
        <time>2019-04-30T13:42:27Z</time>
      </trkpt>
      <trkpt lat="45.56932" lon="5.97622">
        <ele>307.28</ele>
        <time>2019-04-30T13:42:31Z</time>
      </trkpt>
      <trkpt lat="45.56933" lon="5.9762">
        <ele>307.28</ele>
        <time>2019-04-30T13:42:33Z</time>
      </trkpt>
      <trkpt lat="45.56944" lon="5.97615">
        <ele>306.8</ele>
        <time>2019-04-30T13:42:46Z</time>
      </trkpt>
      <trkpt lat="45.56947" lon="5.97616">
        <ele>306.8</ele>
        <time>2019-04-30T13:42:48Z</time>
      </trkpt>
      <trkpt lat="45.5696" lon="5.97606">
        <ele>306.8</ele>
        <time>2019-04-30T13:43:02Z</time>
      </trkpt>
      <trkpt lat="45.56962" lon="5.97603">
        <ele>306.32</ele>
        <time>2019-04-30T13:43:04Z</time>
      </trkpt>
      <trkpt lat="45.56969" lon="5.97588">
        <ele>306.8</ele>
        <time>2019-04-30T13:43:16Z</time>
      </trkpt>
      <trkpt lat="45.5697" lon="5.97583">
        <ele>307.28</ele>
        <time>2019-04-30T13:43:19Z</time>
      </trkpt>
      <trkpt lat="45.56981" lon="5.97571">
        <ele>307.28</ele>
        <time>2019-04-30T13:43:33Z</time>
      </trkpt>
    </trkseg>
  </trk>
</gpx>